[[{"header":{"parameterUnit":"m.s-1","parameterCategory":1,"la1":30.6,"la2":29.2853,"lo1":-89.7004,"lo2":-87.6739,"dx":0.0162,"dy":0.0183,"nx":112,"ny":82,"refTime":"2022-11-11T18:00:00:Z","depth":0,"parameterNumber":2,"parameterNumberName":"U-component_of_WINDS"},"data":[0.0,0.0,0.0,0.0,0.0,0.0,0.0,0.0,0.0,0.0,0.0,0.0,0.0,0.0,0.0,0.0,0.0,0.0,0.0,0.0,0.0,0.0,0.0,0.0,0.0,0.0,0.0,0.0,0.0,0.0,0.0,0.0,0.0,0.0,0.0,0.0,0.0,0.0,0.0,0.0,0.0,0.0,0.0,0.0,0.0,0.0,0.0,0.0,0.0,0.0,0.0,0.0,0.0,0.0,0.0,0.0,0.0,0.0,0.0,0.0,0.0,0.0,0.0,0.0,0.0,0.0,0.0,0.0,0.0,0.0,0.0,0.0,0.0,0.0,0.0,0.0,0.0,0.0,0.0,0.0,0.0,0.0,0.0,0.0,0.0,0.0,0.0,0.0,0.0,0.0,0.0,8.217,8.7825,9.2018,9.3557,9.0979,8.7748,8.4209,0.0,0.0,0.0,0.0,0.0,0.0,0.0,0.0,0.0,0.0,0.0,0.0,0.0,0.0,0.0,0.0,0.0,0.0,0.0,0.0,0.0,0.0,0.0,0.0,0.0,0.0,0.0,0.0,0.0,0.0,0.0,0.0,0.0,0.0,0.0,0.0,0.0,0.0,0.0,0.0,0.0,0.0,0.0,0.0,0.0,0.0,0.0,0.0,0.0,0.0,0.0,0.0,0.0,0.0,0.0,0.0,0.0,0.0,0.0,0.0,0.0,0.0,0.0,0.0,0.0,0.0,0.0,0.0,0.0,0.0,0.0,0.0,0.0,0.0,0.0,0.0,0.0,0.0,0.0,0.0,0.0,0.0,0.0,0.0,0.0,0.0,0.0,0.0,0.0,0.0,0.0,0.0,0.0,0.0,0.0,0.0,0.0,0.0,0.0,0.0,0.0,0.0,0.0,0.0,8.1093,8.7863,9.0825,9.2672,9.3633,9.2595,9.0133,8.5978,0.0,0.0,0.0,0.0,0.0,0.0,0.0,0.0,0.0,0.0,0.0,0.0,0.0,0.0,0.0,0.0,0.0,0.0,0.0,0.0,0.0,0.0,0.0,0.0,0.0,0.0,0.0,0.0,0.0,0.0,0.0,0.0,0.0,0.0,0.0,0.0,0.0,0.0,0.0,0.0,0.0,0.0,0.0,0.0,0.0,0.0,0.0,0.0,0.0,0.0,0.0,0.0,0.0,0.0,0.0,0.0,0.0,0.0,0.0,0.0,0.0,0.0,0.0,0.0,0.0,0.0,0.0,0.0,0.0,0.0,0.0,0.0,0.0,0.0,0.0,0.0,0.0,0.0,0.0,0.0,0.0,0.0,0.0,0.0,0.0,0.0,0.0,0.0,0.0,0.0,0.0,0.0,0.0,0.0,0.0,0.0,0.0,0.0,0.0,0.0,0.0,0.0,0.0,8.0554,8.5016,9.1287,9.3518,9.5095,9.6365,9.4864,9.2018,8.7786,8.2785,0.0,0.0,0.0,0.0,0.0,0.0,0.0,0.0,0.0,0.0,0.0,0.0,0.0,0.0,0.0,0.0,0.0,0.0,0.0,0.0,0.0,0.0,0.0,0.0,0.0,0.0,0.0,0.0,0.0,0.0,0.0,0.0,0.0,0.0,0.0,0.0,0.0,0.0,0.0,0.0,0.0,0.0,0.0,0.0,0.0,0.0,0.0,0.0,0.0,0.0,0.0,0.0,0.0,0.0,0.0,0.0,0.0,0.0,0.0,0.0,0.0,0.0,0.0,0.0,0.0,0.0,0.0,0.0,0.0,0.0,0.0,0.0,0.0,0.0,0.0,0.0,0.0,0.0,0.0,0.0,0.0,0.0,0.0,0.0,0.0,0.0,0.0,0.0,0.0,0.0,0.0,0.0,0.0,0.0,0.0,0.0,0.0,0.0,0.0,0.0,0.0,0.0,8.4593,8.8863,9.2979,9.5134,9.6903,9.8365,9.6711,9.3787,8.9556,8.544,0.0,0.0,0.0,0.0,0.0,0.0,0.0,0.0,0.0,0.0,0.0,0.0,0.0,0.0,0.0,0.0,0.0,0.0,0.0,0.0,0.0,0.0,0.0,0.0,0.0,0.0,0.0,0.0,0.0,0.0,0.0,0.0,0.0,0.0,0.0,0.0,0.0,0.0,0.0,0.0,0.0,0.0,0.0,0.0,0.0,0.0,0.0,0.0,0.0,0.0,0.0,0.0,0.0,0.0,0.0,0.0,0.0,0.0,0.0,0.0,0.0,0.0,0.0,0.0,0.0,0.0,0.0,0.0,0.0,0.0,0.0,0.0,0.0,0.0,0.0,0.0,0.0,0.0,0.0,0.0,0.0,0.0,0.0,0.0,0.0,0.0,0.0,0.0,0.0,0.0,0.0,0.0,0.0,0.0,0.0,0.0,0.0,0.0,0.0,0.0,0.0,0.0,8.6286,9.1287,9.2441,9.4826,9.6634,9.7519,9.7442,9.5518,9.1287,8.7748,0.0,0.0,0.0,0.0,0.0,0.0,0.0,0.0,0.0,0.0,0.0,0.0,0.0,0.0,0.0,0.0,0.0,0.0,0.0,0.0,0.0,0.0,0.0,0.0,0.0,0.0,0.0,0.0,0.0,0.0,0.0,0.0,0.0,0.0,0.0,0.0,0.0,0.0,0.0,0.0,0.0,0.0,0.0,0.0,0.0,0.0,0.0,0.0,0.0,0.0,0.0,0.0,0.0,0.0,0.0,0.0,0.0,0.0,0.0,0.0,0.0,0.0,0.0,0.0,0.0,0.0,0.0,0.0,0.0,0.0,0.0,0.0,0.0,0.0,0.0,0.0,0.0,0.0,0.0,0.0,0.0,0.0,0.0,0.0,0.0,0.0,0.0,0.0,0.0,0.0,0.0,0.0,0.0,0.0,0.0,0.0,0.0,0.0,0.0,0.0,0.0,0.0,8.7132,9.2133,0.0,9.6673,9.8211,9.9058,9.9096,9.7096,9.2326,0.0,0.0,0.0,0.0,0.0,0.0,0.0,0.0,0.0,0.0,0.0,0.0,0.0,0.0,0.0,0.0,0.0,0.0,0.0,0.0,0.0,0.0,0.0,0.0,0.0,0.0,0.0,0.0,0.0,0.0,0.0,0.0,0.0,0.0,0.0,0.0,0.0,0.0,0.0,0.0,0.0,0.0,0.0,0.0,0.0,0.0,0.0,0.0,0.0,0.0,0.0,0.0,0.0,0.0,0.0,0.0,0.0,0.0,0.0,0.0,0.0,0.0,0.0,0.0,0.0,0.0,0.0,0.0,0.0,0.0,0.0,0.0,0.0,0.0,0.0,0.0,0.0,0.0,0.0,0.0,0.0,0.0,0.0,0.0,0.0,0.0,0.0,0.0,0.0,0.0,0.0,0.0,0.0,0.0,0.0,0.0,0.0,0.0,0.0,0.0,0.0,0.0,8.2054,8.7979,9.3095,0.0,9.7788,9.9135,9.9981,10.0289,9.8288,9.321,0.0,0.0,0.0,0.0,0.0,0.0,0.0,0.0,0.0,0.0,0.0,0.0,0.0,0.0,0.0,0.0,0.0,0.0,0.0,0.0,0.0,0.0,0.0,0.0,0.0,0.0,0.0,0.0,0.0,0.0,0.0,0.0,0.0,0.0,0.0,0.0,0.0,0.0,0.0,0.0,0.0,0.0,0.0,0.0,0.0,0.0,0.0,0.0,0.0,0.0,0.0,0.0,0.0,0.0,0.0,0.0,0.0,0.0,0.0,0.0,0.0,0.0,0.0,0.0,0.0,0.0,0.0,0.0,0.0,0.0,0.0,0.0,0.0,0.0,0.0,0.0,0.0,0.0,0.0,0.0,0.0,0.0,0.0,0.0,0.0,0.0,0.0,0.0,0.0,0.0,0.0,0.0,0.0,0.0,0.0,0.0,0.0,0.0,0.0,0.0,0.0,0.0,8.2208,8.8979,9.4364,9.6095,9.7788,9.9135,9.9981,10.0789,9.9135,0.0,0.0,0.0,0.0,0.0,0.0,0.0,0.0,0.0,0.0,0.0,0.0,0.0,0.0,0.0,0.0,0.0,0.0,0.0,0.0,0.0,0.0,0.0,0.0,0.0,0.0,0.0,0.0,0.0,0.0,0.0,0.0,0.0,0.0,0.0,0.0,0.0,0.0,0.0,0.0,0.0,0.0,0.0,0.0,0.0,0.0,0.0,0.0,0.0,0.0,0.0,0.0,0.0,0.0,0.0,0.0,0.0,0.0,0.0,0.0,0.0,0.0,0.0,0.0,0.0,0.0,0.0,0.0,0.0,0.0,0.0,0.0,0.0,0.0,0.0,0.0,0.0,0.0,0.0,0.0,0.0,0.0,0.0,0.0,0.0,0.0,0.0,0.0,0.0,0.0,0.0,0.0,0.0,0.0,0.0,0.0,0.0,0.0,0.0,0.0,0.0,0.0,0.0,8.3093,8.9902,9.5057,9.6172,9.725,9.825,9.9096,9.9942,9.8519,9.398,0.0,0.0,0.0,0.0,0.0,0.0,0.0,0.0,0.0,0.0,0.0,0.0,0.0,0.0,0.0,0.0,0.0,0.0,0.0,0.0,0.0,0.0,0.0,0.0,0.0,0.0,0.0,0.0,0.0,0.0,0.0,0.0,0.0,0.0,0.0,0.0,0.0,0.0,0.0,0.0,0.0,0.0,0.0,0.0,0.0,0.0,0.0,0.0,0.0,0.0,0.0,0.0,0.0,0.0,0.0,0.0,0.0,0.0,0.0,0.0,0.0,0.0,0.0,0.0,0.0,0.0,0.0,0.0,0.0,0.0,0.0,0.0,0.0,0.0,0.0,0.0,0.0,0.0,0.0,0.0,0.0,0.0,0.0,0.0,0.0,0.0,0.0,0.0,0.0,0.0,0.0,0.0,0.0,0.0,0.0,0.0,0.0,0.0,0.0,0.0,0.0,0.0,8.3939,9.0479,9.5326,9.6211,9.7019,9.7865,9.8711,9.9288,9.8211,9.4941,0.0,0.0,0.0,0.0,0.0,0.0,0.0,0.0,0.0,0.0,0.0,0.0,0.0,0.0,0.0,0.0,0.0,0.0,0.0,0.0,0.0,0.0,0.0,0.0,0.0,0.0,0.0,0.0,0.0,0.0,0.0,0.0,0.0,0.0,0.0,0.0,0.0,0.0,0.0,0.0,0.0,0.0,0.0,0.0,0.0,0.0,0.0,0.0,0.0,0.0,0.0,0.0,0.0,0.0,0.0,0.0,0.0,0.0,0.0,0.0,0.0,0.0,0.0,0.0,0.0,0.0,0.0,0.0,0.0,0.0,0.0,0.0,0.0,0.0,0.0,0.0,0.0,0.0,0.0,0.0,0.0,0.0,0.0,0.0,0.0,0.0,0.0,0.0,0.0,0.0,0.0,0.0,0.0,0.0,0.0,0.0,0.0,0.0,0.0,0.0,0.0,0.0,8.467,9.0825,9.5326,9.6211,9.6942,9.775,9.8596,9.875,9.8057,9.6288,0.0,0.0,0.0,0.0,0.0,0.0,0.0,0.0,0.0,0.0,0.0,0.0,0.0,0.0,0.0,0.0,0.0,0.0,0.0,0.0,0.0,0.0,0.0,0.0,0.0,0.0,0.0,0.0,0.0,0.0,0.0,0.0,0.0,0.0,0.0,0.0,0.0,0.0,0.0,0.0,0.0,0.0,0.0,0.0,0.0,0.0,0.0,0.0,0.0,0.0,0.0,0.0,0.0,0.0,0.0,0.0,0.0,0.0,0.0,0.0,7.3976,0.0,0.0,0.0,0.0,0.0,0.0,0.0,0.0,0.0,0.0,0.0,0.0,0.0,0.0,0.0,0.0,0.0,0.0,0.0,0.0,0.0,0.0,0.0,0.0,0.0,0.0,0.0,0.0,0.0,0.0,0.0,0.0,0.0,0.0,0.0,0.0,0.0,0.0,0.0,0.0,0.0,8.467,9.0825,9.5326,9.6211,9.6442,9.6903,9.7711,9.8404,9.7788,9.5441,9.3441,0.0,0.0,0.0,0.0,0.0,0.0,0.0,0.0,0.0,0.0,0.0,0.0,0.0,0.0,0.0,0.0,0.0,0.0,0.0,0.0,0.0,0.0,0.0,0.0,0.0,0.0,0.0,0.0,0.0,0.0,0.0,0.0,0.0,0.0,0.0,0.0,0.0,0.0,0.0,0.0,0.0,0.0,0.0,0.0,0.0,0.0,0.0,0.0,0.0,0.0,0.0,0.0,0.0,0.0,0.0,0.0,0.0,0.0,0.0,0.0,7.5592,0.0,0.0,0.0,0.0,0.0,0.0,0.0,0.0,0.0,0.0,0.0,0.0,0.0,0.0,0.0,0.0,0.0,0.0,0.0,0.0,0.0,0.0,0.0,0.0,0.0,0.0,0.0,0.0,0.0,0.0,0.0,0.0,0.0,0.0,0.0,0.0,0.0,0.0,0.0,0.0,8.5786,9.1287,9.548,9.6749,9.6865,9.7365,9.8634,9.8788,9.825,9.6903,9.448,0.0,0.0,0.0,0.0,0.0,0.0,0.0,0.0,0.0,0.0,0.0,0.0,0.0,0.0,0.0,0.0,0.0,0.0,0.0,0.0,0.0,0.0,0.0,0.0,0.0,0.0,0.0,0.0,0.0,0.0,0.0,0.0,0.0,0.0,0.0,0.0,0.0,0.0,0.0,0.0,0.0,0.0,0.0,0.0,0.0,0.0,0.0,0.0,0.0,0.0,0.0,0.0,0.0,8.1477,8.2054,8.2208,8.2901,8.317,8.3131,8.2016,7.9785,7.6938,7.7669,0.0,0.0,0.0,0.0,0.0,0.0,0.0,0.0,0.0,0.0,0.0,0.0,0.0,0.0,0.0,0.0,0.0,0.0,0.0,0.0,0.0,0.0,0.0,0.0,8.0823,8.1016,0.0,0.0,0.0,0.0,0.0,0.0,0.0,0.0,0.0,0.0,0.0,0.0,8.7171,9.1787,9.5403,9.7096,9.7403,9.8134,9.975,9.9327,9.8904,9.8596,9.5441,9.2556,0.0,0.0,0.0,0.0,0.0,0.0,0.0,0.0,0.0,0.0,0.0,0.0,0.0,0.0,0.0,0.0,0.0,0.0,0.0,0.0,0.0,0.0,0.0,0.0,0.0,0.0,0.0,0.0,0.0,0.0,0.0,0.0,7.4035,7.5524,0.0,0.0,0.0,0.0,0.0,0.0,0.0,0.0,0.0,0.0,0.0,0.0,0.0,8.0169,8.1939,8.2593,8.2978,8.3131,8.467,8.5824,8.6555,8.6671,8.6709,8.6786,8.8017,0.0,8.0439,8.0554,0.0,0.0,0.0,0.0,0.0,0.0,0.0,0.0,0.0,0.0,0.0,0.0,0.0,0.0,0.0,0.0,0.0,0.0,0.0,0.0,0.0,0.0,8.3285,8.4747,8.4747,8.4478,0.0,8.19,7.8977,7.7861,7.7669,0.0,0.0,0.0,0.0,0.0,0.0,0.0,8.7979,9.1672,9.4518,9.6288,9.7096,9.7904,9.8904,9.9558,9.9288,9.7788,9.7865,9.5865,9.121,8.9902,0.0,0.0,0.0,0.0,0.0,0.0,0.0,0.0,0.0,0.0,0.0,0.0,0.0,0.0,0.0,0.0,0.0,0.0,0.0,0.0,0.0,0.0,0.0,0.0,0.0,0.0,0.0,0.0,0.0,7.4519,7.5994,7.7916,7.7361,7.6823,0.0,0.0,0.0,0.0,0.0,0.0,0.0,0.0,0.0,8.1862,8.2401,8.3478,8.5132,8.5555,8.5978,8.6478,8.7209,8.7748,8.8132,8.8594,8.8825,8.8863,8.9594,8.844,8.5978,8.5016,8.3131,8.0746,0.0,0.0,0.0,0.0,7.8707,7.9554,8.0516,8.117,0.0,8.0439,0.0,0.0,0.0,0.0,0.0,0.0,0.0,0.0,0.0,0.0,8.617,8.7825,8.7979,8.7671,8.7594,8.6478,8.467,0.0,8.1362,8.0516,7.7861,0.0,0.0,0.0,0.0,8.5632,8.894,9.2326,9.5057,9.6788,9.8173,9.9288,10.0096,10.0596,10.0289,9.9019,9.8865,9.7365,9.421,9.1864,8.9133,0.0,0.0,0.0,0.0,0.0,0.0,0.0,0.0,0.0,0.0,0.0,0.0,0.0,0.0,0.0,0.0,0.0,0.0,0.0,0.0,0.0,0.0,0.0,0.0,0.0,0.0,0.0,0.0,7.6802,7.8211,8.0491,7.9823,7.9169,0.0,0.0,0.0,0.0,0.0,0.0,8.1093,8.2131,8.3401,8.4863,8.5517,8.6555,8.8017,8.7825,8.8055,8.8709,8.8709,8.8786,8.9017,8.9633,9.0017,9.0248,9.0248,9.0248,9.0133,8.8632,8.6671,8.4439,8.3208,8.217,8.14,8.14,8.1977,8.2901,8.4132,8.5016,8.5324,8.4016,8.3324,8.2554,8.0439,0.0,0.0,0.0,0.0,8.4093,8.7748,8.8209,8.8094,8.9556,8.9902,8.9825,8.9402,8.9825,8.9171,0.0,8.4901,8.3939,8.0939,0.0,0.0,0.0,0.0,8.744,9.021,9.3172,9.5634,9.7326,9.9058,10.0404,10.1212,10.1289,10.0981,10.0173,9.9481,9.8288,9.6365,9.3864,9.1402,8.9056,0.0,0.0,0.0,0.0,0.0,0.0,0.0,0.0,0.0,0.0,0.0,0.0,0.0,0.0,0.0,0.0,0.0,0.0,0.0,0.0,0.0,0.0,0.0,0.0,0.0,0.0,0.0,0.0,0.0,8.3138,8.1939,0.0,0.0,0.0,0.0,8.0977,8.3247,8.4632,8.4632,8.6209,8.7478,8.8402,8.8479,8.8902,8.9787,8.9017,8.8671,8.8709,8.8709,8.9094,8.9863,8.9902,9.0364,9.1133,9.1133,9.1133,9.1056,9.0171,8.8748,8.7209,8.7132,8.6555,8.5786,8.5786,8.6324,8.7094,8.7171,8.7248,8.7248,8.7171,8.6055,8.4593,8.3632,8.3324,0.0,0.0,8.5324,8.6324,8.8209,8.8671,8.8863,8.971,8.9902,9.0133,9.0902,9.1095,9.0594,0.0,8.844,8.7863,8.6017,0.0,8.6132,8.6978,8.7209,8.8556,9.1941,9.3903,9.5634,9.7326,9.9058,10.0404,10.1212,10.1289,10.0981,10.0173,10.0096,9.8904,9.6403,9.6134,9.4095,8.994,8.8902,0.0,0.0,0.0,0.0,0.0,0.0,0.0,0.0,0.0,0.0,0.0,0.0,0.0,0.0,0.0,0.0,0.0,0.0,0.0,0.0,0.0,0.0,0.0,0.0,0.0,0.0,0.0,0.0,8.495,8.467,0.0,8.2824,8.3208,8.3555,8.3555,8.5401,8.6517,8.6517,8.7594,8.8363,8.8671,8.921,8.9633,8.9902,9.0171,9.0325,9.0325,9.0325,9.0479,9.0748,9.0748,9.0902,9.121,9.121,9.121,9.1171,9.0864,9.0056,8.9017,8.9017,8.8517,8.7786,8.7786,8.8286,8.9017,8.9017,8.9017,8.894,8.8402,8.7825,8.7286,8.6978,8.6863,8.7055,8.7902,8.8325,8.8825,9.0017,9.0325,9.0364,9.0671,9.0748,9.0825,9.1133,9.121,9.1018,9.0402,9.0325,8.9787,8.8055,8.8671,8.9133,8.8363,8.9633,9.1133,9.2326,9.4441,9.6249,9.7365,9.9519,10.1212,10.2097,10.2712,10.2597,10.1789,10.1212,10.0212,9.8788,9.7173,9.5326,9.321,9.1287,8.7825,0.0,0.0,0.0,0.0,0.0,0.0,0.0,0.0,0.0,0.0,0.0,0.0,0.0,0.0,0.0,0.0,0.0,0.0,0.0,0.0,0.0,0.0,0.0,0.0,0.0,0.0,8.436,8.6296,8.6286,8.567,8.4555,8.5247,8.5747,8.5747,8.7286,8.8248,8.8248,8.9056,8.9556,8.9556,9.0056,9.0364,9.0364,9.0902,9.1364,9.1633,9.1633,9.1787,9.2056,9.2056,9.2056,9.2056,9.2056,9.2056,9.2018,9.1748,9.1287,9.0748,9.0441,9.0017,8.9556,8.9556,8.9863,9.0364,9.0364,9.0364,9.0248,8.971,8.9556,8.9556,8.9556,8.9556,8.9633,9.021,9.0364,9.0556,9.1402,9.1441,9.1287,9.1556,9.1633,9.1633,9.1633,9.1864,9.2056,9.2056,9.1595,9.0864,8.971,9.0441,9.0902,9.0094,9.1402,9.271,9.3249,9.5057,9.6826,9.8211,10.0096,10.1789,10.2904,10.3597,10.3712,10.3097,10.2212,10.1404,10.0481,9.8634,9.6903,9.548,9.2633,8.8709,8.3593,0.0,0.0,0.0,0.0,0.0,0.0,0.0,0.0,0.0,0.0,0.0,0.0,0.0,0.0,0.0,0.0,0.0,0.0,0.0,0.0,0.0,0.0,0.0,8.3773,8.4591,8.5599,8.7248,8.6709,8.6209,8.617,8.6978,8.7478,8.7478,8.9017,8.994,8.994,9.0748,9.121,9.121,9.1248,9.1248,9.1248,9.1287,9.171,9.2556,9.2556,9.2941,9.371,9.371,9.371,9.371,9.371,9.371,9.3633,9.2864,9.2556,9.2441,9.1556,9.121,9.121,9.121,9.121,9.121,9.121,9.121,9.121,9.121,9.121,9.121,9.121,9.121,9.121,9.1248,9.1248,9.1441,9.2326,9.1902,9.1479,9.2326,9.2556,9.2556,9.2556,9.3133,9.371,9.371,9.2402,9.1287,9.1287,9.1287,9.1556,9.2402,9.2556,0.0,9.4788,9.5749,9.7288,9.9788,10.0789,10.202,10.3712,10.3905,10.3905,10.3905,10.3097,10.2289,10.1404,10.0596,9.8942,9.6365,9.2903,8.9479,8.6132,0.0,0.0,0.0,0.0,0.0,0.0,0.0,0.0,0.0,0.0,0.0,0.0,0.0,0.0,0.0,0.0,0.0,0.0,0.0,0.0,0.0,0.0,8.3929,8.4874,8.6638,8.7964,8.8291,8.8632,8.8632,8.8017,8.8748,8.921,8.921,9.0248,9.0864,9.0864,9.1056,9.121,9.121,9.1825,9.2133,9.2133,9.271,9.3133,9.3364,9.3364,9.348,9.371,9.371,9.371,9.371,9.371,9.371,9.3672,9.3441,9.3364,9.321,9.1787,9.121,9.121,9.121,9.121,9.121,9.121,9.121,9.121,9.121,9.121,9.121,9.121,9.121,9.1325,9.1979,9.2133,9.2326,9.3172,9.3172,9.3056,9.3326,9.3364,9.3364,9.3364,9.3518,9.371,9.371,9.3326,9.3018,9.3018,9.3018,9.3095,9.3326,9.3903,0.0,9.4941,9.5749,9.7019,9.8942,9.9904,10.1404,10.3712,10.4405,10.4789,10.4789,10.4482,10.3789,10.2289,10.1404,9.9519,9.6365,9.1748,8.8594,0.0,0.0,0.0,0.0,0.0,0.0,0.0,0.0,0.0,0.0,0.0,0.0,0.0,0.0,0.0,0.0,0.0,0.0,0.0,0.0,0.0,0.0,8.4983,8.6312,8.6805,8.7676,8.8424,8.873,8.9415,8.971,8.9248,8.9979,9.0441,9.0441,9.0902,9.121,9.121,9.1556,9.1748,9.1748,9.2556,9.2979,9.2979,9.348,9.3864,9.4249,9.4249,9.4441,9.4788,9.4788,9.4788,9.4788,9.4788,9.4788,9.4749,9.4403,9.4249,0.0,0.0,0.0,0.0,0.0,9.2249,9.2249,9.2249,9.2249,9.2249,9.2249,9.2249,9.2249,9.2249,9.2249,9.2364,9.2864,9.2979,9.3172,9.4018,9.398,9.3787,9.4172,9.4249,9.4249,9.4249,9.4518,9.4788,9.4788,9.4788,0.0,9.5211,9.4403,9.3826,9.4172,9.4672,9.5134,9.548,9.6288,9.7442,9.9173,10.0404,10.1981,10.4212,10.5213,0.0,0.0,0.0,10.4289,10.2712,10.1404,0.0,0.0,0.0,0.0,0.0,0.0,0.0,0.0,8.1871,7.993,0.0,0.0,0.0,0.0,0.0,0.0,0.0,0.0,0.0,0.0,0.0,0.0,0.0,0.0,0.0,0.0,8.7521,8.8939,8.9049,8.8232,8.7996,8.8909,8.9612,9.0056,9.0056,9.0825,9.1364,9.1364,9.1441,9.1479,9.1479,0.0,0.0,0.0,0.0,9.3826,9.3826,9.3941,9.4364,9.5134,9.5249,9.5672,9.6442,9.6557,9.6596,9.6596,9.6596,9.6596,9.6519,9.5749,9.5365,9.5172,9.4095,9.371,9.371,9.371,9.371,9.371,9.371,0.0,0.0,9.371,9.371,9.371,9.371,9.371,9.371,9.3826,9.3826,9.4057,9.4903,9.4557,9.421,9.5057,9.5288,9.5288,9.5288,9.598,9.6519,9.6326,9.6442,9.6788,9.7403,9.5557,9.4287,9.5134,9.5288,9.5557,9.6326,9.7134,9.8288,9.9904,0.0,0.0,10.4789,10.5713,10.6213,10.6405,10.5597,10.4405,10.2789,10.0981,9.9327,9.7673,9.5903,9.4249,9.2787,9.2521,9.1644,9.0073,8.3524,8.1259,0.0,0.0,0.0,0.0,0.0,0.0,0.0,0.0,0.0,0.0,0.0,0.0,0.0,0.0,0.0,8.7851,8.8624,8.9125,8.9773,8.9612,8.9483,8.9683,9.0447,9.0941,9.0941,9.1748,9.2249,9.2249,9.2864,9.321,9.321,9.3364,9.3441,9.348,9.4323,9.4747,9.4747,9.5441,9.5865,9.6057,0.0,0.0,9.7288,9.8019,9.8327,9.8327,9.8327,9.8327,9.8288,9.8134,9.7634,9.6788,9.4557,9.371,9.371,9.371,9.371,9.371,9.371,9.371,9.371,9.371,9.371,9.371,9.371,9.371,0.0,9.4557,9.4749,9.4941,9.5826,9.5903,9.6019,9.6826,9.7019,9.7019,9.7019,9.7711,9.7904,9.6557,9.7403,9.8134,9.7596,9.6557,9.6057,9.6903,9.7019,9.7096,9.725,9.8019,9.8942,9.9981,10.0404,10.1481,10.3905,10.4289,10.4982,10.629,10.5597,10.4713,10.3712,10.1404,9.9596,9.8557,9.6211,9.4826,9.4518,9.2559,9.1467,9.1108,8.8457,8.6799,0.0,0.0,0.0,0.0,0.0,0.0,0.0,0.0,0.0,0.0,0.0,8.3674,0.0,0.0,8.7926,8.919,8.9765,9.0186,9.0607,9.0605,9.0411,9.0072,9.072,9.1364,9.1825,9.221,9.2672,9.3056,9.348,9.371,9.3672,9.4131,9.4362,9.4362,9.5209,9.567,9.567,9.648,9.6903,9.6903,9.7749,9.8134,9.8173,9.8596,9.8788,9.8788,9.8788,9.8788,9.8827,9.8788,9.8519,9.8019,9.6749,9.5749,9.5018,9.5018,9.5018,9.5057,9.5441,9.5595,9.5672,9.6095,9.6249,9.6249,9.6249,9.6249,9.6326,9.6788,9.6903,9.698,9.7442,9.7557,9.7634,9.8057,9.8134,9.8134,9.8134,9.8481,9.8557,9.7711,9.8211,9.8788,9.8788,9.8096,9.7673,9.8096,9.8134,9.8134,9.8134,9.8904,9.9596,10.0096,10.0904,10.1904,10.3097,10.3982,10.4982,10.629,10.602,10.5213,10.3982,10.2289,10.0481,9.8827,9.7134,9.5826,9.498,9.3793,9.2945,9.2523,9.0646,8.8934,0.0,0.0,0.0,0.0,0.0,0.0,0.0,0.0,8.5454,8.6406,8.7064,8.7529,8.7863,8.8979,8.9979,9.0133,9.0748,9.121,9.121,9.1364,9.122,9.0635,9.1107,9.1787,9.2633,9.29,9.3246,9.39,9.4095,9.421,9.421,9.4901,9.5324,9.5478,9.6134,9.6596,9.6788,9.7441,9.7749,9.775,9.8634,9.9057,9.9058,9.9173,9.9288,9.9288,9.9288,9.9288,9.925,9.9135,9.9058,9.9019,9.8865,9.798,9.6788,9.6788,9.6788,9.6865,9.7519,9.775,9.7865,9.8557,9.8788,9.8788,9.8788,9.8788,9.8788,9.8788,9.8788,9.8788,9.8788,9.8788,9.8827,9.9019,9.9058,9.9058,9.9058,9.9173,9.9173,9.8865,9.9058,9.9442,9.9981,9.9635,9.9211,9.9058,9.9058,9.9058,9.9058,9.9788,10.0289,10.0289,10.1481,10.2404,10.2597,10.4097,10.5405,10.6097,10.629,10.5597,10.3982,10.3097,10.1481,9.9096,9.8019,9.6826,9.548,9.5134,9.4634,9.3903,9.1804,9.0018,8.5824,8.6247,0.0,8.5247,8.6017,8.7132,0.0,0.0,8.6661,8.8102,8.8002,8.8037,8.9371,8.9787,9.0171,9.0941,9.1133,9.121,9.121,9.1864,9.2326,9.2251,9.2287,9.2669,9.3512,9.4247,9.4747,9.4862,9.5557,9.6019,9.6019,9.6095,9.648,9.721,9.7325,9.7749,9.8517,9.8632,9.8672,9.8673,9.9558,9.9942,9.9981,10.0712,10.1019,10.1019,10.1019,10.1019,10.1019,10.0211,9.9942,9.9865,9.9096,9.8673,9.8519,9.8519,9.8519,9.8519,9.8634,9.8634,9.8673,9.875,9.8788,9.8788,9.8788,9.8788,9.8788,9.8788,9.8788,9.8788,9.8788,9.8788,9.8981,9.975,9.9942,9.9942,9.9942,10.0481,10.0596,9.9096,10.0019,10.0789,10.0212,10.0596,10.0789,10.0096,9.9942,9.9942,9.9942,10.0712,10.1212,10.1212,10.1289,10.1789,10.252,10.4097,10.5097,10.5213,10.602,10.5597,10.3982,10.3097,10.1789,9.9981,9.8327,9.7403,9.7211,9.5711,9.4941,9.4826,9.3158,9.1567,8.9017,8.8979,0.0,0.0,8.9094,8.9748,9.0248,9.0144,9.0147,9.079,9.0682,9.0531,9.0636,9.0671,9.0787,0.0,9.1633,9.1979,9.1979,9.2672,9.34,9.39,9.3939,9.4093,9.4436,9.4783,9.5206,9.5747,9.6519,9.698,9.698,9.7479,9.7902,9.8249,9.825,9.8404,9.8827,9.9288,9.9558,9.9557,10.0404,10.0788,10.0788,10.1096,10.1289,10.1289,10.1289,10.1289,10.1289,10.0904,10.0827,10.0789,10.0404,10.0289,10.0096,9.9173,9.8788,9.8865,9.9365,9.9558,9.9635,10.0096,10.0289,10.0289,10.0289,10.0289,10.0289,10.0289,10.0289,10.0289,10.0289,10.0289,10.0289,10.0712,10.0789,10.0789,10.0789,10.1096,10.1096,10.0404,10.0789,10.1212,10.0904,10.1096,10.1212,10.0789,10.0789,10.0789,10.0789,10.1096,10.1289,10.1289,10.1289,10.1904,10.3212,10.4405,10.529,10.579,10.6213,10.5597,10.3982,10.3097,10.1789,10.0096,9.9365,9.8519,9.7519,9.6788,9.6211,9.5711,9.4122,9.2803,9.0787,0.0,0.0,9.0787,9.121,9.1672,9.2056,9.2133,9.2133,9.2133,9.2133,9.1941,9.1325,9.121,9.1287,9.1518,9.2095,9.2595,9.2787,9.3518,9.4287,9.4901,9.5401,9.567,9.567,9.5707,9.5976,9.6557,9.7402,9.7864,9.7865,9.848,9.8903,9.9134,9.9135,9.925,9.948,10.0096,10.0404,10.0404,10.1019,10.1289,10.1289,10.1289,10.1289,10.1289,10.1289,10.1289,10.1289,10.1289,10.1289,10.1289,10.1289,10.1289,10.1212,9.9942,9.9481,9.9596,10.0212,10.0404,10.0481,10.1096,10.1289,10.1289,10.1289,10.1289,10.1289,10.1289,10.1289,10.1289,10.1289,10.1289,10.1289,10.1289,10.1289,10.1289,10.1289,10.1096,10.1019,10.1289,10.1096,10.1019,10.1289,10.1289,10.1289,10.1289,10.1289,10.1289,10.1289,10.1289,10.1289,10.1289,10.1289,10.1904,10.3405,10.4289,10.5097,10.602,10.602,10.5405,10.3982,10.3097,10.1904,10.0481,10.0212,9.9481,9.8211,9.775,9.7097,9.6288,9.47,9.3429,9.0402,9.1171,9.2018,9.0364,9.121,9.2249,9.1441,9.1248,9.1248,9.1248,9.1248,9.1248,9.121,9.121,9.1479,9.2326,9.2479,9.2787,9.3557,9.4403,9.4941,9.4978,9.644,9.7441,0.0,9.7441,9.7441,9.7479,9.8249,9.8788,9.875,9.8788,9.9173,10.0019,10.0096,10.0404,10.1212,10.1289,10.1289,10.1289,10.1289,10.1289,10.1289,10.1289,10.1289,10.1289,10.1289,10.1289,10.1289,10.1289,10.1289,10.1289,10.1289,10.1289,10.1289,10.1212,10.1212,10.1212,10.1289,10.1289,10.1289,10.1289,10.1289,10.1289,10.1289,10.1289,10.1289,10.1289,10.1289,10.1289,10.1289,10.1289,10.1289,10.1289,10.1289,10.1289,10.1289,10.0712,10.0404,10.1096,10.0712,10.0404,10.1212,10.1289,10.1289,10.1289,10.1289,10.1289,10.1289,10.1289,10.1289,10.1289,10.1289,10.1712,10.2597,10.3405,10.4289,10.5097,10.5097,10.4789,10.3905,10.3097,10.2212,10.1289,10.0481,10.0096,9.9981,9.8327,9.7091,9.6379,9.4817,9.3275,9.1787,9.1633,9.1518,9.0902,9.121,9.1556,9.1287,9.121,9.121,9.121,9.1672,9.221,9.2749,9.2864,9.3133,9.4018,9.4172,9.4249,9.4518,9.5326,9.5865,9.5865,9.6825,0.0,0.0,0.0,0.0,9.8366,9.9135,9.9634,9.9673,10.0211,10.0596,10.0904,10.0904,10.1019,10.1289,10.1289,10.1289,10.1289,10.1289,10.1289,10.1289,10.1289,10.1597,10.2097,10.1597,10.1981,10.2982,10.2405,10.2481,10.2981,10.2366,10.2174,10.202,10.0904,10.0481,10.0596,10.1096,10.1289,10.1289,10.1289,10.1289,10.1289,10.1289,10.1289,10.1289,10.1289,10.1289,10.1289,10.1289,10.1289,10.1289,10.1289,10.1289,10.1289,10.1289,10.0712,10.0289,10.1096,10.0712,10.0404,10.1212,10.1289,10.1289,10.1289,10.1289,10.1289,10.1289,10.1289,10.1289,10.1289,10.1289,10.1904,10.3289,10.4212,10.5097,10.5905,10.602,10.529,10.3982,10.3097,10.2212,10.1289,10.1019,10.0596,10.0096,9.8964,9.77,9.6371,9.5371,9.4082,9.221,9.1633,9.121,9.121,9.121,9.121,9.121,9.121,9.121,9.121,9.1902,9.2672,9.3172,9.3518,9.4095,9.5249,9.5441,9.5557,9.5826,9.6634,9.7096,9.6788,9.7749,9.8442,0.0,0.0,0.0,9.9288,10.0019,10.048,10.048,10.1019,10.1289,10.1289,10.1289,10.1289,10.1289,10.1289,10.1481,10.1789,10.1404,10.1481,10.1789,10.1404,10.1827,10.2595,10.1712,10.2097,10.3367,10.2481,10.252,10.2904,10.2366,10.2097,10.202,10.0596,10.0096,10.0173,10.0712,10.0904,10.0904,10.1212,10.1289,10.1289,10.1289,10.1289,10.1289,10.1289,10.1289,10.1289,10.1289,10.1289,10.1289,10.1289,10.1096,10.0904,10.0904,9.9981,9.9519,10.0596,10.0212,9.9981,10.1096,10.1096,10.0789,10.0519,10.0712,10.1019,10.1289,10.1289,10.1289,10.1289,10.1289,10.202,10.3789,10.4405,10.5213,10.629,10.6097,10.529,10.3982,10.3097,10.2212,10.1289,10.1289,10.1019,10.0481,9.9396,9.8067,9.6451,9.5404,9.4111,9.171,9.1248,9.121,9.121,9.121,9.121,9.1248,9.1248,9.121,9.1325,9.2018,9.2633,0.0,0.0,9.4441,9.6058,9.6251,9.6519,9.725,9.8134,9.8365,0.0,0.0,0.0,0.0,0.0,0.0,10.0211,0.0,10.1289,10.1289,10.1289,10.1289,10.1289,10.1289,10.1289,10.1289,10.1289,10.1789,10.2597,10.1789,10.1904,10.2597,10.1789,10.1903,10.2707,10.1788,10.1981,10.2713,10.1903,10.1519,10.1597,10.152,10.1404,10.1289,10.0404,9.9981,9.9981,9.9981,9.9981,10.0212,10.1019,10.1289,10.1289,10.1289,10.1289,10.1289,10.1289,10.1289,10.1289,10.1289,10.1289,10.1289,10.1289,10.0712,10.0096,10.0096,9.8711,9.8019,9.9712,9.9365,9.9327,10.1019,10.0596,9.975,9.8904,9.9481,10.0289,10.1096,10.1289,10.1289,10.1289,10.1289,10.202,10.3789,10.3905,10.4597,10.629,10.5597,10.4789,10.3905,10.3097,10.2212,10.1289,10.1289,10.1289,10.1289,9.9702,9.8162,9.6611,9.4971,9.3387,9.2287,9.171,9.121,9.121,9.121,9.1364,9.2018,9.1672,9.1556,9.2826,9.3749,9.4369,0.0,0.0,0.0,9.638,9.5789,0.0,9.5595,9.6403,0.0,9.6634,0.0,10.0096,10.0096,10.0789,0.0,0.0,10.1212,10.1289,10.1289,10.1289,10.1289,10.1289,10.1289,10.1289,10.1289,10.1904,10.2404,10.2635,10.3018,10.3405,10.3599,10.3289,10.3672,10.44,10.3595,10.4097,10.5408,10.4522,10.4482,10.502,10.4405,10.3405,10.2097,10.0596,9.9288,9.8173,9.8173,9.9019,10.0096,10.0289,10.0789,10.1289,10.1289,10.1289,10.1289,10.1289,10.1289,10.1289,10.1289,10.1289,10.1289,10.1289,10.0712,10.0096,10.0096,9.8711,9.7827,9.8904,9.8942,9.9135,10.0212,9.9712,9.9058,9.8827,9.8981,9.9442,10.0289,10.0904,10.1289,10.1289,10.1289,10.202,10.3789,10.3905,10.4597,10.629,10.6213,10.5405,10.3982,10.3712,10.2904,10.1289,10.1289,10.1289,10.1289,9.972,9.8479,9.7422,9.5254,9.3713,9.2018,9.1556,9.121,9.121,9.1479,9.1787,9.1902,9.1864,9.2056,9.2979,9.387,0.0,9.501,0.0,0.0,0.0,0.0,0.0,9.6596,9.7403,9.798,0.0,9.9519,0.0,10.0596,10.1019,10.1289,0.0,10.1289,10.1289,10.1289,10.1289,10.1289,10.1289,10.1289,10.1289,10.1289,10.2212,10.2828,10.3211,10.3708,10.4095,10.4366,10.4097,10.4287,10.5095,0.0,10.4597,10.5792,10.4906,10.4866,10.5328,10.4789,10.3789,10.2404,10.0712,9.925,9.798,9.725,9.7827,9.9096,9.9827,10.0404,10.0789,10.1212,10.1289,10.1289,10.1289,10.1289,10.1289,10.1289,10.1019,10.0904,10.1212,10.0096,9.9058,9.9442,9.8173,9.7211,9.8057,9.8865,9.9288,9.9019,9.8865,9.8557,9.7827,9.798,9.8404,9.8904,9.9981,10.0789,10.0789,10.1096,10.202,10.3789,10.3905,10.4597,10.629,10.6405,10.579,10.4482,10.4097,10.3289,10.1904,10.152,10.1093,10.0804,9.9562,9.8379,9.7229,9.5248,9.3859,9.1402,9.121,9.121,9.121,9.1787,9.2172,9.1633,9.2018,9.2595,9.2941,0.0,9.4217,9.4907,9.581,9.6547,9.7095,0.0,9.748,9.8365,9.9211,9.9788,9.9904,10.0712,10.1289,10.1289,10.1289,10.1289,10.152,10.152,10.1404,10.1289,10.1289,10.1289,10.1289,10.1404,10.152,10.152,10.2404,10.3288,10.4093,10.4208,10.4593,10.521,10.4477,10.4593,10.521,10.448,10.4597,10.5213,10.4482,10.4212,10.4172,10.4212,10.3597,10.2404,10.0789,9.9558,9.8404,9.6826,9.6749,9.7596,9.9211,9.9904,10.0212,10.0904,10.1212,10.1289,10.1289,10.1289,10.1289,10.1289,10.0712,10.0289,10.1096,9.9365,9.775,9.8596,9.748,9.6557,9.7326,9.8711,9.925,9.775,9.8134,9.8134,9.6673,9.698,9.7365,9.748,9.9019,10.0096,10.0096,10.0789,10.202,10.3789,10.3905,10.4597,10.629,10.6405,10.602,10.5097,10.4289,10.3482,10.2597,10.1712,10.0889,10.0185,9.9401,9.8215,9.6713,9.5146,9.4042,9.1248,9.121,9.121,9.121,9.1325,9.1748,9.2979,9.2864,0.0,9.5211,9.5278,9.5006,9.5134,9.5852,9.6226,9.5668,9.5519,9.5749,9.6596,9.7442,9.8211,0.0,10.0404,10.1289,0.0,0.0,0.0,0.0,0.0,10.2097,10.1289,10.1289,10.1289,10.1289,10.202,10.2404,10.2404,10.3906,10.4714,10.4905,10.5636,10.602,10.6213,10.602,10.602,10.6213,10.602,0.0,10.6213,10.602,10.602,10.602,10.602,10.4597,10.252,10.152,9.9673,9.7596,9.6634,9.6403,9.6673,9.7634,9.8942,10.0096,10.0289,10.0789,10.1289,10.1289,10.1289,10.1289,10.1289,10.0712,10.0289,10.1096,9.9365,9.775,9.8596,9.748,9.6557,9.7326,9.775,9.7865,9.7557,9.7634,9.7634,9.7326,9.6826,9.6749,9.7403,9.9019,10.0096,10.0096,10.0789,10.202,10.3789,10.3905,10.4597,10.629,10.6405,10.602,10.5097,10.4289,10.3482,10.2597,10.1712,10.0889,10.0185,9.9401,9.8515,9.7502,9.5994,9.485,9.1748,9.1864,9.1979,9.2402,9.2518,9.271,9.3518,9.3403,9.3595,9.5288,9.5738,9.5814,9.5776,9.6828,9.7265,9.5968,9.6443,9.7134,9.7557,9.8327,9.9019,9.9442,10.0212,10.0481,0.0,0.0,0.0,0.0,0.0,10.1904,10.202,10.152,10.152,10.202,10.2404,10.2789,10.3289,10.4482,10.5099,10.5097,10.602,10.6405,10.6405,10.6405,10.6405,10.6405,10.6405,10.6405,10.6405,10.6405,10.6405,10.6405,10.5905,10.4405,10.2403,10.1212,9.9327,9.7403,9.6596,9.6288,9.6442,9.725,9.8365,9.9596,10.0481,10.1019,10.1212,10.0789,10.0712,10.0596,10.0096,9.9712,9.9519,9.9904,9.8711,9.7519,9.748,9.6865,9.6403,9.6788,9.7596,9.8019,9.7596,9.7865,9.8019,9.7557,9.6826,9.6442,9.6826,9.8365,9.9404,9.9404,10.0519,10.1789,10.3097,10.3597,10.4405,10.5597,10.6097,10.6213,10.579,10.4597,10.3712,10.3289,10.158,10.029,9.96,9.8772,9.7993,9.7173,9.6067,9.507,9.2249,9.2479,9.2672,9.348,9.3557,9.3518,9.3903,9.3826,9.398,9.5057,9.5738,9.621,9.6251,9.7308,9.7654,9.6288,9.7443,9.8519,9.8556,9.9442,10.0096,0.0,10.0096,0.0,9.8865,9.8981,0.0,0.0,0.0,0.0,10.2904,10.2212,10.2097,10.2597,10.2904,10.3405,10.3905,10.4713,10.5097,10.5097,10.5597,10.602,10.6097,10.6097,10.6213,10.6405,10.6405,10.6405,10.6405,10.6405,10.629,10.6097,10.5405,10.4135,10.2403,10.0712,9.9096,9.7634,9.6634,9.6288,9.6442,9.725,9.8096,9.9058,10.0596,10.1019,10.0904,10.0289,9.9981,9.9635,9.8981,9.8673,9.8481,9.8288,9.7865,9.7288,9.648,9.6288,9.6288,9.6288,9.7634,9.8481,9.7403,9.8096,9.8481,9.7634,9.6826,9.6365,9.6519,9.7865,9.8788,9.8788,10.0289,10.1712,10.252,10.3212,10.3982,10.4982,10.5713,10.6097,10.6097,10.4713,10.3789,10.3597,10.1392,9.9758,9.9007,9.8151,9.7422,9.6685,9.6061,9.5254,9.2249,9.2479,9.2672,9.348,9.3133,9.3018,9.4518,9.4249,9.4172,9.5826,9.57,9.5522,9.6175,9.5891,9.5456,9.5356,9.6629,9.7672,9.7776,9.9121,10.0096,10.0096,0.0,0.0,9.8865,9.9519,0.0,0.0,0.0,0.0,10.3789,10.3712,10.3289,10.2597,10.4097,10.4597,10.3905,10.4713,10.5097,10.5097,10.4405,10.4482,10.5213,10.5213,10.5713,10.6405,10.6405,10.6405,0.0,10.6405,10.5905,10.5213,10.5097,10.4097,10.2404,10.0712,9.9481,9.8442,9.6865,9.6288,9.6442,9.725,9.8096,9.8981,9.9904,10.0212,10.0173,10.0096,9.9519,9.8904,9.8827,9.8211,9.7442,9.6711,9.7019,9.7288,9.648,9.6288,9.6288,9.6288,9.7634,9.8288,9.6673,9.775,9.8481,9.7634,9.6826,9.6557,9.7288,9.8211,9.8788,9.8788,10.0289,10.1712,10.252,10.2712,10.3405,10.4982,10.5213,10.5213,10.5213,10.4405,10.3482,10.2712,10.1086,9.9758,9.9007,9.8151,9.7422,9.6685,9.6612,9.5768,9.2402,9.2864,9.3441,9.4249,9.4249,9.4326,9.5518,9.5095,9.4826,9.6057,9.6443,9.6396,9.5734,9.6584,9.7082,9.6081,9.7239,9.8481,9.9048,9.971,9.9904,9.9365,9.9327,0.0,0.0,0.0,0.0,0.0,0.0,0.0,10.4713,10.3712,10.3212,10.3405,10.3482,10.3712,10.3905,10.4212,10.4405,10.4405,10.4097,10.4289,10.5097,10.5097,10.5597,10.6405,10.6405,10.6405,0.0,10.6405,10.6213,10.579,10.4789,10.3597,10.2404,10.0712,9.9558,9.8711,9.8057,9.7788,9.7942,9.8788,9.9288,9.9635,9.9981,10.0404,10.0712,10.0212,9.9481,9.8788,9.8788,9.8134,9.7403,9.7096,9.6903,9.6673,9.6365,9.6673,9.7019,9.7019,9.8404,9.9211,9.8019,9.8365,9.8481,9.7634,9.6826,9.6442,9.6749,9.7519,9.8211,9.875,10.0289,10.1404,10.1789,10.2289,10.2904,10.3597,10.4097,10.4405,10.4405,10.3597,10.3212,10.3405,10.1317,10.0312,10.0516,9.8699,9.769,9.7419,9.6942,9.6098,9.2823,9.3249,9.3903,9.4788,9.498,9.5211,9.6095,9.5634,9.5249,9.6134,9.6749,9.6789,9.5734,9.694,9.7711,9.654,9.7779,9.9058,9.9667,10.021,10.0096,9.9288,0.0,0.0,0.0,0.0,0.0,0.0,0.0,0.0,10.4789,10.3405,10.2904,10.3482,10.3212,10.3212,10.3482,10.3482,10.3482,10.3482,10.3289,10.3712,10.4713,10.4713,10.5405,10.6405,10.6405,10.6405,0.0,10.6405,10.6097,10.552,10.4405,10.3212,10.202,10.0596,9.9712,9.9135,9.8596,9.8596,9.8865,9.9211,9.9673,10.0096,10.0404,10.0712,10.0789,10.0289,9.9481,9.875,9.8481,9.7942,9.7442,9.7211,9.6711,9.6288,9.6288,9.6749,9.7211,9.7442,9.8711,9.9442,9.8557,9.8634,9.8404,9.7326,9.6673,9.6288,9.6288,9.725,9.8134,9.8711,10.0289,10.1289,10.1289,10.1904,10.2289,10.2597,10.3212,10.3482,10.3482,10.3212,10.2978,10.3195,10.1475,10.0812,10.1095,9.9205,9.8117,9.7897,9.7309,9.6502,9.3474,9.3669,9.3903,9.4788,9.498,9.5211,9.6095,9.5634,9.5249,9.6134,9.6326,9.6326,9.6288,9.6326,9.6366,9.6387,9.7779,9.8863,9.8991,10.031,10.1019,0.0,0.0,0.0,0.0,0.0,0.0,0.0,0.0,0.0,10.3905,10.3097,10.2597,10.2597,10.3405,10.3482,10.2597,10.2597,10.2597,10.2597,10.1712,10.2212,10.3905,10.3905,10.4789,10.6405,10.6405,10.6405,0.0,10.6405,10.5405,10.3905,10.3905,10.2789,10.1212,10.0404,10.0096,9.9827,9.8096,9.8096,9.8673,9.7788,9.8673,10.0212,10.1019,10.0712,10.0096,10.0096,9.9481,9.8596,9.775,9.7519,9.7288,9.6519,9.6326,9.6288,9.6288,9.6326,9.6557,9.7365,9.8211,9.8519,9.7673,9.8211,9.8211,9.6557,9.6326,9.6288,9.6288,9.775,9.8788,9.8788,10.0289,10.1289,10.1289,10.1289,10.1712,10.252,10.2597,10.2597,10.2597,10.3405,10.3119,10.1481,10.1522,10.107,10.0326,9.9461,9.8668,9.7897,9.7897,9.7016,9.3785,9.4131,9.4634,9.4903,9.5441,9.5942,9.6249,9.6095,9.598,9.6249,9.6288,9.6136,9.5657,9.5981,9.652,9.7196,9.7622,9.8366,9.9591,10.021,0.0,9.8481,0.0,0.0,0.0,0.0,0.0,0.0,0.0,0.0,10.3097,10.2712,10.2597,10.2597,10.2289,10.202,10.1712,10.1712,10.1712,10.1712,10.202,10.2789,10.3905,10.4482,10.529,10.6405,10.6405,10.6405,10.6405,10.6405,10.5713,10.4713,10.4097,10.3212,10.2097,10.1212,10.0904,10.0789,9.9673,9.9442,9.9635,9.9365,9.9635,10.0289,10.1096,10.1096,10.0904,10.0904,10.1212,10.1096,9.9635,9.8827,9.8173,9.7326,9.6711,9.6288,9.6288,9.7211,9.8096,9.8327,9.9558,10.0212,9.9404,9.9019,9.8404,9.7288,9.6634,9.6288,9.6288,9.6749,9.7519,9.8673,9.925,10.0096,10.1212,10.1289,10.1404,10.1712,10.2289,10.2597,10.2597,10.3405,10.3694,10.3121,10.2621,10.2197,10.1928,10.0644,9.9218,9.7897,9.7346,9.6502,9.4326,9.4595,9.498,9.498,9.5672,9.6365,9.6673,9.6519,9.6403,9.6711,9.6519,9.6136,9.57,9.5981,9.6597,9.7461,9.7825,9.8481,9.9904,10.0404,0.0,9.8634,0.0,0.0,0.0,0.0,0.0,0.0,0.0,0.0,10.2597,10.2289,10.2097,10.2097,10.1597,10.1289,10.1289,10.1289,10.1289,10.1289,10.2212,10.3097,10.3905,10.4713,10.5597,10.6405,10.6405,10.6405,0.0,10.6405,10.5713,10.4597,10.4097,10.3212,10.202,10.152,10.1289,10.1096,9.9981,9.9827,9.9981,9.9327,9.975,10.0596,10.1096,10.152,10.1904,10.2212,10.2404,10.2289,10.0904,9.9673,9.8596,9.7711,9.6903,9.6288,9.6288,9.7365,9.8404,9.875,9.9904,10.0712,10.0173,9.9365,9.8481,9.7634,9.6826,9.6288,9.6288,9.6557,9.7288,9.8634,9.9096,9.9827,10.1212,10.1289,10.1289,10.1289,10.2097,10.2517,10.2232,10.3301,10.3574,10.2999,10.2762,10.2639,10.2167,10.0892,9.9622,9.8337,9.753,9.6722,0.0,9.5057,9.5095,9.5095,9.5749,9.6596,9.7326,9.698,0.0,9.7442,9.6942,9.6403,9.6403,9.6326,9.6557,9.7365,9.8211,9.9058,9.9865,10.0596,0.0,0.0,0.0,0.0,0.0,0.0,0.0,0.0,0.0,0.0,10.252,10.1712,10.1289,10.1289,10.1289,10.1289,10.1289,10.1289,10.1289,10.1289,10.2212,10.3097,10.3905,10.4713,10.5597,0.0,10.6405,10.6405,10.6405,10.6405,10.5405,10.3905,10.3905,10.2789,10.1289,10.1289,10.1289,10.1096,9.9365,9.9327,9.9712,9.8057,9.9135,10.1212,10.1289,10.202,10.2904,10.3712,10.3289,10.252,10.152,10.0096,9.8596,9.7711,9.6903,9.6288,9.6288,9.698,9.7827,9.8634,9.9558,10.0173,10.0173,9.9404,9.8519,9.7711,9.6865,9.6288,9.6288,9.7019,9.7827,9.8711,9.9558,10.0404,10.1212,10.1289,10.1289,10.1289,10.2212,10.2313,10.1481,10.3121,10.3189,10.163,10.2305,10.2167,10.1494,10.0686,9.9916,9.9181,9.83,9.7493,9.4634,0.0,9.598,9.598,9.6596,9.7288,0.0,9.7865,9.825,9.8442,9.7827,9.7211,9.7211,9.6711,9.6557,9.7365,9.8211,9.8865,9.9058,9.8673,0.0,9.9942,0.0,0.0,0.0,0.0,0.0,0.0,0.0,10.2097,10.1597,10.1404,10.1289,10.1289,10.1289,10.1289,10.1289,10.1289,10.1289,10.1289,10.2212,10.3097,10.3905,10.4713,10.5597,10.6405,10.6405,10.6405,10.6405,10.6405,10.5405,10.3905,10.3905,10.2789,10.1289,10.1289,10.1289,10.1096,9.9365,9.8942,9.8942,9.7865,9.8365,9.975,10.1712,10.3289,10.4405,10.3982,10.3789,10.3212,10.1712,10.0096,9.8596,9.7711,9.6903,9.6288,9.6288,9.7442,9.8557,9.875,9.9981,10.1019,10.1019,9.9788,9.8711,9.8519,9.725,9.6288,9.6288,9.7019,9.7827,9.8711,9.9558,10.0404,10.1212,10.1289,10.1289,10.1289,10.2712,10.3195,10.2396,10.3998,10.4098,10.2487,10.2017,10.166,10.1494,10.0686,10.0209,9.9989,9.8557,9.7787,9.5709,9.5903,9.5788,9.6211,9.6903,9.7596,9.8019,9.8442,9.8904,9.9288,9.8711,9.798,9.7557,9.748,9.7442,9.748,9.8211,9.8942,9.9327,9.8981,9.9019,9.9981,9.925,0.0,0.0,0.0,0.0,0.0,0.0,10.1789,10.1289,10.1289,10.1289,10.1289,10.1289,10.152,10.1904,10.152,10.1712,10.252,10.2981,10.3597,10.4482,10.529,10.602,10.6405,10.6405,10.6405,10.6405,10.6405,10.5405,10.3905,10.4289,10.3212,10.1289,10.1712,10.1597,10.1096,9.9365,9.8288,9.7596,9.7096,9.7788,9.9058,10.0404,10.2289,10.3905,10.3905,10.3289,10.2404,10.1096,9.9481,9.8096,9.7596,9.6903,9.6403,9.6788,9.7865,9.8904,9.9327,10.0404,10.1289,10.1289,9.9904,9.8788,9.8788,9.7365,9.6288,9.6288,9.7019,9.7827,9.8711,9.9558,10.0404,10.1212,10.1289,10.152,10.1904,10.3212,10.3487,10.269,10.3905,10.3903,10.2166,10.1702,10.1494,10.1494,10.109,10.0686,10.0283,9.9035,9.8264,9.6709,9.6057,9.5288,9.6403,9.7211,9.7942,9.8788,9.9096,9.9404,10.0096,9.9481,9.8596,9.8019,9.8288,9.8404,9.7788,9.8442,9.925,9.9981,9.9981,9.9942,10.0096,9.9981,0.0,0.0,0.0,0.0,0.0,0.0,10.1289,10.1289,10.1289,10.1289,10.1289,10.1289,10.1789,10.2789,10.1904,10.2289,10.3905,10.3905,10.4289,10.5097,10.5905,10.629,10.6405,0.0,0.0,10.6405,10.6405,10.5405,10.3982,10.4713,10.3405,10.1404,10.2097,10.1904,10.1096,9.9365,9.7788,9.648,9.648,9.7442,9.8634,9.8904,10.0289,10.202,10.2904,10.2212,10.1096,9.9981,9.8596,9.748,9.7365,9.6788,9.648,9.7173,9.8096,9.9019,9.975,10.0712,10.1289,10.1289,9.9904,9.8788,9.8788,9.7365,9.6326,9.648,9.7211,9.8019,9.8904,9.975,10.0596,10.1212,10.1289,10.1712,10.2712,10.3482,10.3619,10.2916,10.3402,10.2995,10.1538,10.1494,10.1494,10.1494,10.1494,10.109,10.0503,9.9659,9.8851,9.5095,9.5211,9.5558,9.7827,9.8519,9.8827,9.9712,10.0404,10.1019,10.1096,9.9865,9.8981,9.9596,9.8596,9.7904,9.8481,9.9327,9.9942,0.0,0.0,9.925,9.9981,0.0,0.0,0.0,0.0,0.0,0.0,0.0,10.1289,10.1289,10.1289,10.1289,10.1289,10.1289,10.2097,10.3712,10.2789,10.2904,10.3905,10.3905,10.4289,10.5097,10.5213,10.5713,10.6405,0.0,10.6405,10.6405,10.6405,10.5405,10.3905,10.3982,10.2904,10.1289,10.152,10.1404,10.1096,9.9365,9.8134,9.7326,9.7326,9.748,9.798,9.9442,9.9135,9.8442,9.9327,10.0404,10.0789,9.8481,9.7711,9.7326,9.6634,9.6403,9.6326,9.648,9.7711,9.8827,9.8981,10.0212,10.1289,10.1289,9.9904,9.8788,9.8788,9.7365,9.6557,9.725,9.8057,9.8942,9.9788,10.0596,10.1212,10.1289,10.1289,10.202,10.3597,10.3789,10.3887,10.3822,10.2568,10.1776,10.1494,10.1494,10.1494,10.1494,10.1494,10.1384,10.1274,10.0503,9.9695,9.6596,9.6711,9.698,9.9519,9.9481,9.9019,9.9904,10.0712,10.1289,10.1289,10.0289,9.9596,9.9981,9.9058,9.8327,9.8711,0.0,10.0404,0.0,0.0,0.0,0.0,0.0,0.0,0.0,0.0,0.0,0.0,10.1289,10.1289,10.1289,10.1289,10.1289,10.1289,10.1289,10.2097,10.3905,10.3482,10.3982,10.5213,10.4789,10.4982,10.579,10.579,10.602,10.6405,0.0,10.6405,10.6405,10.6405,10.5405,10.3982,10.4905,10.3597,10.1289,10.1289,10.0712,9.9904,9.9596,9.8327,9.6903,9.7365,9.7519,9.7557,9.7942,9.8134,9.8096,9.7596,9.8327,9.8865,9.7288,9.6865,9.6749,9.6403,9.6288,9.6557,9.7442,9.825,9.9058,9.9981,10.0789,10.1289,10.1289,9.9904,9.8788,9.8788,9.775,9.7096,9.7442,9.8673,9.9635,10.0096,10.0789,10.1289,10.1289,10.1712,10.252,10.3789,10.3909,10.4014,10.3988,10.2389,10.1494,10.1494,10.1494,10.1494,10.1494,10.1494,10.1494,10.1494,10.0686,9.9879,9.7596,9.7865,9.798,9.9942,9.975,9.9327,10.0212,10.0904,10.1289,10.1289,10.0712,10.0096,10.0096,9.9558,0.0,9.9365,10.0519,0.0,0.0,0.0,0.0,0.0,0.0,0.0,0.0,0.0,10.1289,10.1289,10.1289,10.1289,10.1289,10.1289,10.1289,10.1289,10.1289,10.2097,10.3905,10.3905,10.4713,10.6405,10.5713,10.579,10.6405,10.6405,10.6405,10.6405,10.6405,10.6405,10.6405,10.6213,10.5213,10.3982,10.529,10.4212,10.1904,10.1712,10.0519,9.9173,9.9635,9.8365,9.6673,9.7288,9.7519,9.7403,9.6788,9.7365,9.7942,9.6673,9.6749,9.7096,9.648,9.6288,9.6288,9.6288,9.6288,9.6711,9.8173,9.8673,9.925,10.0712,10.1212,10.1289,10.1289,10.0096,9.9096,9.9096,9.8365,9.7865,9.8096,9.925,10.0173,10.0404,10.0904,10.1404,10.1597,10.2212,10.3018,10.3775,10.4014,10.3865,10.3678,10.2315,10.1494,10.1494,10.1494,10.1494,10.1494,10.1494,10.1494,10.1494,10.0907,9.9989,9.6211,9.698,9.7557,9.775,9.8904,10.0212,10.1019,10.1289,10.1289,10.1289,10.0712,10.0096,10.0096,9.9981,10.0289,10.1019,10.1212,0.0,0.0,0.0,0.0,0.0,0.0,0.0,0.0,10.1289,10.1289,10.1289,10.1289,10.1289,10.1289,10.1289,10.1289,10.1289,10.1289,10.2097,10.3905,10.3905,10.4713,10.6405,10.629,10.629,10.6405,10.6405,10.6405,10.6405,10.6405,10.6405,10.629,10.5482,10.4713,10.3905,10.3982,10.3905,10.3597,10.2789,10.1404,9.9904,9.9135,9.825,9.7403,9.748,9.7519,9.748,9.7442,9.698,9.6442,9.6326,9.6326,9.6365,9.6326,9.6288,9.6288,9.6288,9.6288,9.6557,9.7403,9.8211,9.9058,9.9981,10.0789,10.1289,10.1289,10.0596,9.9981,9.9981,9.925,9.8981,9.9788,9.9981,10.0404,10.1096,10.1289,10.1597,10.2404,10.2597,10.3008,10.3792,10.4003,10.3576,10.2814,10.2012,10.1494,10.1494,10.1494,10.1494,10.1494,10.1494,10.1494,10.1494,10.1384,10.0576,9.6673,9.7673,9.8442,9.8981,9.9981,10.0789,10.0596,10.0596,10.0789,10.1904,10.0981,9.9904,9.9365,9.9712,10.0173,10.0481,10.1019,0.0,0.0,0.0,0.0,0.0,0.0,0.0,10.1212,10.1289,10.1289,10.1289,10.1289,10.1289,10.1289,10.1289,10.1289,10.1289,10.1289,10.2097,10.3905,10.3905,10.4713,10.6405,10.6405,10.6097,10.5597,10.5597,10.5597,10.5597,10.5597,10.5905,10.6405,10.602,10.5097,10.3789,10.3289,10.3405,10.3789,10.2904,10.1212,9.9404,10.0096,9.9096,9.7673,9.875,9.8365,9.7519,9.7519,9.6942,9.6288,9.6288,9.6288,9.6288,9.6288,9.6288,9.6288,9.6288,9.6288,9.6519,9.7326,9.8173,9.9058,9.9904,10.0712,10.1289,10.1289,10.0596,10.0096,10.0096,9.9827,9.9712,10.0096,10.0481,10.1019,10.1289,10.1789,10.252,10.3289,10.3905,10.41,10.4022,10.4017,10.3614,10.2673,10.1899,10.1494,10.1494,10.1494,10.1494,10.1494,10.1494,10.1494,10.1494,10.098,10.0209,9.7134,9.8327,9.9288,9.9596,10.0289,10.0789,10.0212,10.0481,10.1212,10.2404,10.0981,9.9596,9.925,9.9481,0.0,0.0,0.0,0.0,0.0,0.0,0.0,0.0,0.0,10.0712,10.1212,10.1289,10.1289,10.1289,10.1289,10.1289,10.1289,10.1289,10.1289,10.1289,10.1289,10.2097,10.3905,10.3905,10.4713,10.6405,10.6405,10.5905,10.5097,10.5097,10.4982,10.4713,10.4713,10.5097,10.5597,10.529,10.452,10.3482,10.3405,10.3597,10.3789,10.3212,10.1597,9.9712,10.0596,9.9596,9.8057,9.8981,9.8481,9.7442,9.7211,9.6749,9.6288,9.6288,9.6288,9.6288,9.6288,9.6288,9.6288,9.6288,9.6288,9.6596,9.7673,9.8365,9.9135,10.0289,10.0904,10.1289,10.1289,10.0789,10.0481,10.0481,10.0481,10.0481,10.0481,10.0981,10.1289,10.1289,10.1789,10.2712,10.3789,10.4202,10.4195,10.3973,10.3703,10.3223,10.2389,10.1817,10.1494,10.1494,10.1494,10.1494,10.1494,10.1494,10.1384,10.109,10.0576,9.9732,9.7288,9.875,9.9865,9.9019,9.9481,10.0096,10.0096,10.1404,10.2597,10.2597,10.0596,9.9096,9.9942,9.9404,0.0,0.0,0.0,0.0,10.0212,10.0789,10.1019,10.0173,10.0789,10.1289,10.1289,10.1289,10.1289,10.1289,10.1289,10.1289,10.1289,10.1289,10.1289,10.1289,10.1289,10.2097,10.3905,10.3905,10.4713,10.6405,10.6405,10.5905,10.5097,10.5097,10.4597,10.3905,10.3905,10.3905,10.3789,10.2981,10.2597,10.2789,10.4405,10.4597,10.3905,10.3905,10.2789,10.1212,10.0404,9.9519,9.8673,9.7827,9.7519,9.7365,9.6557,9.6326,9.6288,9.6288,9.6288,9.6288,9.6288,9.6288,9.6288,9.6288,9.6288,9.6749,9.8442,9.8788,9.9288,10.1019,10.1289,10.1289,10.1289,10.1289,10.1289,10.1289,10.1289,10.1289,10.1289,10.1289,10.1289,10.1327,10.1327,10.202,10.3712,10.3076,10.3041,10.3875,10.3193,10.2315,10.1538,10.1494,10.1494,10.1494,10.1494,10.1494,10.1494,10.1494,10.109,10.0283,10.0283,9.9438,9.7442,9.8327,9.925,9.9635,10.0289,10.1096,10.1712,10.1789,10.1904,10.252,10.152,10.0596,10.0904,10.0289,0.0,0.0,0.0,0.0,10.0289,10.1289,10.1712,10.0289,10.0789,10.1289,10.1289,10.1289,10.1289,10.1289,10.1289,10.1289,10.1289,10.1289,10.1289,10.1289,10.1289,10.2097,10.3905,10.3905,10.4713,10.6405,10.579,10.5097,10.4289,10.4289,10.3789,10.2981,10.3597,10.3905,10.3789,10.2981,10.3289,10.4289,10.3597,10.3212,10.2981,10.2981,10.1904,10.0481,10.0789,10.0404,9.975,10.0096,9.9365,9.8365,9.8134,9.725,9.6288,9.6288,9.6288,9.6288,9.6288,9.6288,9.6288,9.6288,9.6288,9.6596,9.7673,9.8365,9.9135,10.0212,10.0904,10.1289,10.1289,10.1289,10.1289,10.1289,10.1289,10.1289,10.1289,10.1289,10.1091,10.0589,10.0505,10.0824,10.1316,10.1633,10.1875,10.222,10.2478,10.2315,10.1538,10.1494,10.1494,10.1494,10.1494,10.1494,10.1494,10.1494,10.109,10.0283,9.9732,9.8888,9.8327,9.8904,9.9519,10.0404,10.0904,10.152,10.2404,10.2212,10.1904,10.202,10.1404,10.0789,10.0789,10.0404,0.0,0.0,0.0,0.0,10.0712,10.1404,10.1712,10.0712,10.1019,10.1289,10.1289,10.1289,10.1289,10.1289,10.1289,10.1289,10.1289,10.1289,10.1289,10.1289,10.1289,10.2097,10.3905,10.3905,10.4713,10.6405,10.5482,10.4713,10.3905,10.3482,10.2904,10.2097,10.2981,10.3597,10.3905,10.3289,10.3482,10.3982,10.3405,10.2712,10.2097,10.252,10.1712,10.0596,10.1096,10.1019,10.0481,10.0404,9.9635,9.8673,9.8019,9.7096,9.6288,9.6288,9.6288,9.6288,9.6288,9.6288,9.6365,9.6711,9.6788,9.7096,9.8288,9.8942,9.9558,10.0404,10.1019,10.1289,10.1289,10.1289,10.1289,10.1289,10.1289,10.1289,10.1289,10.1289,10.0896,9.9861,10.0004,10.0088,9.984,10.0315,10.0778,10.1513,10.1683,10.1719,10.1457,10.1494,10.1494,10.1494,10.1494,10.1494,10.1494,10.12,10.0613,9.9805,9.8998,9.819,9.9635,10.0096,10.0289,10.1096,10.1289,10.152,10.2289,10.252,10.2289,10.1597,10.0789,10.0212,10.0212,10.0212,10.0481,0.0,0.0,10.1404,10.1289,10.1404,10.1404,10.1212,10.1289,10.1289,10.1289,10.1289,10.1289,10.1289,10.1289,10.1289,10.1289,10.1404,10.1404,10.1289,10.1404,10.2212,10.3905,10.3905,10.4713,10.6405,10.5405,10.4597,10.3905,10.2981,10.2212,10.152,10.2289,10.3212,10.3982,10.3789,10.3405,10.2789,10.3405,10.2712,10.1404,10.2212,10.202,10.1289,10.1289,10.1289,10.1019,9.9442,9.8865,9.8481,9.6903,9.6365,9.6288,9.6288,9.6288,9.6288,9.6288,9.6288,9.6519,9.7403,9.7557,9.798,9.9712,10.0096,10.0289,10.1096,10.1289,10.1289,10.1289,10.1289,10.1289,10.1289,10.1289,10.1289,10.1289,10.1289,10.0704,9.904,9.9488,9.953,9.8761,9.8749,9.9475,10.108,10.0607,10.0686,10.1494,10.1494,10.1494,10.1494,10.1494,10.1494,10.1384,10.0686,9.9842,9.8961,9.8227,9.7456,9.9788,10.0096,10.0289,10.1096,10.1289,10.1289,10.152,10.1597,10.1712,10.2212,10.1597,10.1019,10.1019,10.1019,10.1289,10.2212,10.2289,10.2097,10.1404,10.1904,10.1789,10.0481,10.0904,10.1289,10.1289,10.1289,10.1289,10.1289,10.1289,10.1289,10.1289,10.1904,10.202,10.1289,10.202,10.2789,10.3905,10.3905,10.4713,10.6405,10.4905,10.4097,10.3905,10.2981,10.252,10.2404,10.3212,10.4097,10.4713,10.3405,10.3212,10.3482,10.2289,10.1597,10.1289,10.152,10.152,10.1289,10.1289,10.1289,10.1096,10.0096,9.9365,9.8596,9.7557,9.6788,9.6288,9.6288,9.6288,9.6288,9.6288,9.6288,9.6673,9.8173,9.8019,9.798,9.9712,10.0096,10.0289,10.1096,10.1289,10.1289,10.1289,10.1289,10.1289,10.1289,10.1289,10.1289,10.1289,10.1289,10.0497,9.8264,9.7626,9.6852,9.5429,9.5884,9.6915,9.8535,9.9742,10.0686,10.1494,10.1494,10.1494,10.1494,10.1494,10.12,10.0576,10.0393,9.9548,9.8154,9.797,9.7456,9.975,9.9788,9.9673,10.0481,10.1019,10.1289,10.1289,10.1289,10.1404,10.1904,10.1597,10.1289,10.1289,10.1597,10.2097,10.252,10.2981,10.3097,10.2597,10.2597,10.2289,10.1404,10.1289,10.1289,10.1289,10.1289,10.1289,10.1289,10.1289,10.1289,10.1289,10.1712,10.1789,10.1289,10.2097,10.2981,10.3905,10.4289,10.5097,10.6405,10.5097,10.4097,10.3289,10.2789,10.2597,10.2597,10.3482,10.4405,10.4982,10.3289,10.3097,10.3712,10.202,10.1289,10.1289,10.1289,10.1289,10.1289,10.1289,10.1289,10.1096,9.9865,9.9173,9.8557,9.7326,9.6634,9.6288,9.6288,9.6288,9.6288,9.6288,9.6596,9.7211,9.8481,9.8442,9.8596,10.0289,10.0712,10.0789,10.1212,10.1289,10.1289,10.1289,10.1289,10.1289,10.1289,10.1289,10.1289,10.1289,10.097,10.0022,9.8045,9.6756,9.5566,9.4411,9.4666,9.5621,9.7199,9.8851,10.0099,10.0907,10.1274,10.1274,10.0907,10.0503,10.0099,9.9732,9.9328,9.8704,9.7897,9.7493,9.7089,9.9404,9.9481,9.9211,10.0096,10.0789,10.1289,10.152,10.152,10.1597,10.1712,10.152,10.1289,10.152,10.2097,10.2712,10.2981,10.3482,10.3905,10.4097,10.3212,10.2597,10.2597,10.1789,10.1289,10.1289,10.1289,10.1289,10.1289,10.1289,10.1404,10.152,10.152,10.152,10.152,10.2212,10.2981,10.3905,10.4597,10.5405,10.6405,10.5405,10.4097,10.2597,10.2597,10.252,10.2404,10.3597,10.4289,10.4597,10.3289,10.3212,10.3482,10.1904,10.1289,10.1289,10.1289,10.1289,10.1289,10.1289,10.1289,10.1019,9.9327,9.8788,9.8481,9.6826,9.6288,9.6288,9.6288,9.6288,9.6288,9.6288,9.6788,9.7557,9.8557,9.8788,9.925,10.0904,10.1289,10.1289,10.1289,10.1289,10.1289,10.1289,10.1289,10.1289,10.1289,10.1289,10.1288,10.1131,10.0589,9.9467,9.7592,9.6194,9.5001,9.3933,9.4116,9.4923,9.6392,9.8154,9.9475,10.0283,10.0907,10.0907,10.0099,9.9585,9.9255,9.9108,9.83,9.7823,9.7676,9.7016,9.6685,9.8519,9.9442,10.0096,10.0904,10.1212,10.152,10.2289,10.2404,10.2597,0.0,10.2404,10.152,10.2289,10.252,10.3097,10.4482,10.4289,10.4097,10.4789,10.3597,10.2597,10.2597,10.1789,10.1289,10.1289,10.1289,10.1289,10.1289,10.1289,10.1597,10.2404,10.2404,10.2404,10.2404,10.252,10.2981,10.3905,10.3982,10.4789,10.6405,10.4789,10.3482,10.2597,10.2597,10.2212,10.1597,10.3905,10.4212,10.2981,10.3482,10.3289,10.2712,10.1712,10.1289,10.1289,10.1289,10.1289,10.1289,10.1289,10.1289,10.1019,9.9327,9.8788,9.8481,9.6826,9.6288,9.6288,9.6288,9.6288,9.6288,9.6288,9.6365,9.6865,9.8442,9.8788,9.925,10.0904,10.1289,10.1289,10.1289,10.1289,10.1289,10.1289,10.1289,10.1289,10.1289,10.1289,10.1129,10.0375,10.0309,9.9046,9.6056,9.5511,9.4518,9.2317,9.3455,9.4703,9.5621,9.7823,9.9475,10.0283,10.0393,10.0099,9.9292,9.9842,9.9805,9.9108,9.83,9.753,9.6869,9.6759,9.6685,9.7635,9.9058,10.0096,9.9942,10.0596,10.1404,10.1789,10.2212,10.2712,10.3097,10.2981,10.2904,10.3289,10.3712,10.4212,10.4982,10.5213,10.5405,10.579,10.4405,10.3289,10.3289,10.2097,10.1289,10.1289,10.1289,10.152,10.202,10.1597,10.1904,10.3289,10.2404,10.2289,10.3289,10.3289,10.3712,10.4597,10.5097,10.5713,10.6405,10.5213,10.4097,10.3289,10.2789,10.2097,10.1404,10.302,10.3289,10.2597,10.252,10.252,10.252,10.1597,10.1289,10.1289,10.1289,10.1289,10.1289,10.1289,10.1289,10.1019,9.9327,9.8788,9.8481,9.6826,9.6288,9.6288,9.6288,9.6288,9.6288,9.6288,9.7019,9.7904,9.8634,9.9519,10.0404,10.1096,10.1289,10.1289,10.1289,10.1289,10.1289,10.1289,10.1289,10.1289,10.1289,10.0931,10.0627,10.0195,9.9401,9.8327,9.6891,9.5531,9.4591,9.3896,9.4153,9.485,9.6098,9.8007,9.9255,9.9622,10.0099,9.9916,9.9145,9.8998,9.8557,9.775,9.7383,9.7052,9.6685,9.6685,9.6685,9.7096,9.8596,9.9673,9.925,10.0212,10.1404,10.1597,10.2289,10.2981,0.0,10.3789,10.4212,10.4212,10.4482,10.4905,10.5405,10.579,10.6097,10.6405,10.4982,10.3905,10.3905,10.2404,10.1289,10.1289,10.1289,10.1712,10.252,10.202,10.2404,10.4097,10.2789,10.2712,10.4212,10.3982,10.4289,10.5097,10.602,10.6405,10.6405,10.5482,10.4713,10.3905,10.2981,10.2097,10.1404,10.252,10.2712,10.2289,10.202,10.2097,10.2212,10.1597,10.1289,10.1289,10.1289,10.1289,10.1289,10.1289,10.1289,10.1019,9.9327,9.8788,9.8481,9.6826,9.6288,9.6288,9.6288,9.6288,9.6288,9.6288,9.7365,9.8519,9.875,9.9904,10.1096,10.1289,10.1289,10.1289,10.1289,10.1289,10.1289,10.1289,10.1289,10.1211,10.0973,10.0581,10.0125,9.9653,9.8529,9.7546,9.6968,9.5331,9.4446,9.4887,9.452,9.4887,9.6318,9.8117,9.9108,9.9108,9.9879,9.9916,9.9145,9.83,9.7603,9.7016,9.6795,9.6685,9.6685,9.6685,9.6575,9.7288,9.8173,9.9058,9.9827,10.0712,10.152,10.2289,0.0,10.3982,10.4789,10.4982,10.4982,10.4982,10.4405,10.4482,10.6097,10.5713,10.5482,10.629,10.4982,10.3905,10.3905,10.2404,10.1289,10.1289,10.1289,10.1712,10.252,10.2597,10.3289,10.4905,10.4212,10.4212,10.4982,10.4289,10.4289,10.5097,10.602,10.6405,10.6405,10.5482,10.4713,10.3905,10.2981,10.2097,10.1404,10.3097,10.2904,10.152,10.3097,10.2789,10.1404,10.1289,10.1289,10.1289,10.1289,10.1289,10.1289,10.1289,10.1289,10.1019,9.9327,9.8788,9.8481,9.6826,9.6288,9.6288,9.6288,9.6288,9.6288,9.6288,9.6942,9.7788,9.8596,9.9481,10.0404,10.1096,10.1289,10.1289,10.1289,10.1289,10.1289,10.1289,10.1289,10.1129,10.0404,10.0185,9.9653,9.8124,9.786,9.6931,9.4743,9.4411,9.4006,9.3308,9.3896,9.4666,9.5511,9.7787,9.9108,9.9108,9.9879,9.9916,9.9145,9.83,9.786,9.7823,9.7052,9.6685,9.6685,9.6685,9.6282,9.6365,9.775,9.8865,9.9173,10.0289,10.1404,10.1712,10.2904,10.3982,10.4289,10.5213,10.579,10.5213,10.4905,10.4905,10.5482,10.579,10.602,10.6405,10.5405,10.4482,10.3982,10.2904,10.1904,10.1404,10.1789,10.252,10.3405,10.3405,10.4212,10.579,10.4597,10.4482,10.5905,10.5097,10.5097,10.5905,10.6213,10.6405,10.6405,10.5482,10.4713,10.3905,10.2981,10.2097,10.1404,10.2597,10.2404,10.1289,10.202,10.1904,10.1289,10.1289,10.1289,10.1289,10.1289,10.1289,10.1289,10.1289,10.1289,10.1019,9.9327,9.8788,9.8481,9.6826,9.6288,9.6288,9.6288,9.6288,9.6288,9.6288,9.7326,9.8673,10.0096,10.0596,10.0904,10.1212,10.1289,10.1289,10.1289,10.1289,10.1093,10.0716,10.0589,10.0328,9.9547,9.9007,9.8467,9.786,9.7388,9.6548,9.518,9.4593,9.4373,9.463,9.4446,9.507,9.6906,9.8337,9.8888,9.8337,9.9108,9.8924,9.7603,9.7273,9.7126,9.7126,9.6832,9.6685,9.6685,9.6685,9.6282,9.598,9.7519,9.8788,9.8788,10.0289,10.1712,10.1404,10.2904,10.4212,10.3982,10.4982,10.579,10.5213,10.5097,10.5097,10.5097,10.5597,10.6097,10.6405,10.5597,10.4789,10.3982,10.3097,10.2289,10.1404,10.2097,10.2981,10.3789,10.4212,0.0,10.629,10.529,10.5213,10.6405,10.579,10.579,10.6405,10.6405,10.629,10.602,10.5405,10.4482,10.3405,10.2904,10.2097,10.1289,10.1904,10.1789,10.1289,10.1597,10.1597,10.1289,10.1289,10.1289,10.1289,10.1289,10.1289,10.1289,10.1289,10.1096,10.0712,9.925,9.8596,9.8096,9.6711,9.6288,9.6288,9.6288,9.6288,9.6288,9.6288,9.7557,9.9211,10.0904,10.1289,10.1211,10.1008,10.1131,10.1171,10.1008,10.0889,10.0716,9.9949,9.9796,9.9547,9.8712,9.8151,9.7695,9.7492,9.6732,9.5988,9.518,9.4373,9.4226,9.5034,9.4593,9.5217,9.7346,9.8264,9.8447,9.7897,9.8411,9.819,9.7126,9.6832,9.6685,9.6685,9.6685,9.6685,9.6685,9.6685,9.6135,0.0,0.0,0.0,9.875,10.0712,10.2289,10.152,0.0,10.4789,10.4097,10.4482,10.5097,10.5097,10.5097,10.5097,10.5097,10.5097,10.5405,10.629,10.5713,10.4789,10.3982,10.3212,10.2289,10.152,10.2212,10.302,10.3905,10.4713,10.5482,10.6405,10.6405,10.6405,10.6405,10.6405,10.6405,10.6405,10.6405,10.602,10.5097,10.5097,10.4212,10.2597,10.2597,10.2097,10.1289,10.1289,10.1289,10.1404,10.2212,10.2097,10.1289,10.1289,10.1289,10.1289,10.1289,10.1289,10.1289,10.1289,10.0789,9.9942,9.9058,9.8211,9.7365,9.6557,9.6288,9.6288,9.6288,9.6288,9.6326,9.6365,9.7596,9.925,10.0904,10.1289,10.1091,10.0404,10.0798,10.0973,10.028,10.0174,9.9898,9.9122,9.8969,9.8712,9.786,9.7726,9.7455,9.6801,9.5951,9.518,9.4336,9.3565,9.3418,9.4226,9.4299,9.4997,9.6612,9.7456,9.7897,9.786,9.7897,9.7897,9.786,9.7089,9.6685,9.6685,9.6685,9.6685,9.6685,9.6649,9.5768,9.6134,0.0,0.0,0.0,0.0,0.0,0.0,0.0,0.0,10.3789,10.4482,10.5097,10.5097,10.5597,10.579,10.5213,10.5597,10.6097,10.6405,10.6213,10.5713,10.4905,10.4597,10.4097,10.3289,10.3905,10.4482,0.0,10.5597,10.6097,10.6405,10.6405,10.6405,10.6405,10.6405,10.6405,10.6405,10.6405,10.602,10.5097,10.4482,10.3712,10.2597,10.2597,10.2097,10.1289,10.202,10.2212,10.2212,10.1789,10.152,10.1289,10.1289,10.1289,10.1289,10.1289,10.1289,10.1289,10.1289,10.0789,9.9942,9.9058,9.8211,9.7365,9.6557,9.6288,9.6288,9.6288,9.6288,9.6596,9.7788,9.8904,9.9981,10.1096,10.1289,10.1091,10.0404,10.0404,10.0319,9.9455,9.9346,9.9065,9.8279,9.8124,9.7897,9.7101,9.6474,9.6068,9.5841,9.5144,9.4336,9.3529,9.3235,9.3418,9.4226,9.4299,9.4997,9.6612,9.7456,9.764,9.7052,9.7566,9.764,9.7052,9.6795,9.6685,9.6685,9.6685,9.6685,9.6685,9.5511,9.441,9.6673,9.7403,9.8134,9.8481,0.0,0.0,0.0,0.0,0.0,0.0,10.4289,10.4597,10.4597,10.529,10.5713,10.5213,10.579,10.6405,10.6405,10.6405,10.6097,10.5213,10.5097,10.4789,10.3982,10.4597,10.5097,10.5097,10.5905,10.6213,10.5905,10.6213,10.6213,10.5905,10.6213,10.6405,10.6405,10.602,10.5405,10.4597,10.3789,10.2904,10.2097,10.2404,10.2097,10.1404,10.2597,10.2904,10.2597,10.2404,10.2212,10.1789,10.1789,10.1597,10.1289,10.1289,10.1289,10.1289,10.1289,10.0519,9.9481,9.8981,9.798,9.6903,9.6442,9.6288,9.6365,9.6711,9.7057,9.7634,9.8981,9.9712,10.0211,10.0697,10.0808,10.0467,9.9439,9.9179,9.9065,9.8591,9.8529,9.8215,9.7492,9.7317,9.721,9.6762,9.6025,9.5511,9.5511,9.452,9.3602,9.3161,9.3088,9.3418,9.4226,9.4593,9.5327,9.6612,9.7126,9.7199,9.6722,9.7163,9.7163,9.6722,9.6685,9.6685,9.6685,9.6685,9.6539,9.6171,9.4887,9.3859,9.7634,9.8134,9.8865,9.975,10.0481,0.0,0.0,0.0,0.0,0.0,10.3789,10.3789,10.3982,10.4482,10.4982,10.4982,10.5597,10.6213,10.6405,10.6405,10.6097,10.529,10.5213,10.4982,10.4212,10.4789,10.5213,10.5213,10.602,10.6097,10.529,10.602,10.602,10.529,10.602,10.6405,10.6405,10.5482,10.4713,10.3905,10.2981,10.2097,10.1289,10.2212,10.2212,10.152,10.3212,10.3482,10.2904,10.3712,10.3482,10.2597,10.2597,10.2097,10.1404,10.1289,10.1404,10.1404,10.1289,10.0212,9.8788,9.8788,9.7673,9.6326,9.6403,9.6442,9.6596,9.7403,9.825,9.9096,9.9904,10.0173,10.0209,10.0306,10.0309,9.9758,9.8279,9.7785,9.7651,9.7695,9.7695,9.7492,9.6801,9.6685,9.6685,9.6685,9.6025,9.5474,9.5401,9.4042,9.3051,9.2978,9.3051,9.3418,9.4226,9.5034,9.5841,9.6649,9.6685,9.6685,9.6685,9.6685,9.6685,9.6685,9.6685,9.6685,9.6685,9.6612,9.6171,9.5364,9.4556,9.3712,9.8365,9.8173,9.7942,9.8827,9.9173,0.0,0.0,10.0596,0.0,0.0,10.3289,10.3289,10.4597,10.4482,10.4097,10.4097,10.4289,10.4905,10.6213,10.6405,10.629,10.6213,10.6097,10.6097,10.5905,10.6097,10.6097,10.6097,10.629,10.629,10.6213,10.629,10.629,10.6213,10.629,10.6405,10.6405,10.5482,10.4713,10.3905,10.2981,10.2097,10.1289,10.2212,10.252,10.2404,10.3405,10.4212,10.4597,10.4789,10.3982,10.2597,10.2597,10.252,10.2289,10.1597,10.1712,10.2212,10.152,10.0212,9.8788,9.8788,9.7673,9.6442,9.7057,9.7288,9.7442,9.8288,9.9173,9.9865,10.0096,10.0596,10.1096,10.1131,10.0595,9.9949,9.9007,9.7754,9.6846,9.6916,9.6915,9.6877,9.6685,9.6685,9.6685,9.6685,9.6025,9.529,9.463,9.3675,9.2831,9.2134,9.2684,9.3418,9.4226,9.5034,9.5841,9.6649,9.6685,9.6685,9.6685,9.6685,9.6685,9.6685,9.6685,9.6685,9.6685,9.6061,9.5327,9.452,9.3712,9.2868,9.8788,9.8788,9.8904,9.9327,0.0,0.0,0.0,0.0,10.0212,10.2712,10.2597,10.2212,10.302,10.3212,10.3289,10.3289,10.3597,10.4212,10.502,10.5213,10.529,10.5713,10.579,10.5905,10.6405,10.6405,10.6405,10.6405,10.6405,10.6213,10.579,10.6213,10.6213,10.579,10.6213,10.6405,10.6405,10.5097,10.4289,10.3905,10.2597,10.1712,10.1289,10.2212,10.2597,10.2712,10.3905,10.4713,10.5097,10.5597,10.4982,10.3789,10.3789,10.3597,10.3097,10.2289,10.2212,10.252,10.1597,10.0481,9.9365,9.8942,9.7942,9.698,9.7365,9.8096,9.8904,9.9327,10.0096,10.0712,10.0712,10.1019,10.1091,10.029,9.986,9.9291,9.8096,9.7228,9.6657,9.6652,9.6685,9.6685,9.6685,9.6685,9.6685,9.6685,9.5658,9.4777,9.4336,9.3235,9.2281,9.184,9.2941,9.3859,9.4263,9.5401,9.6282,9.6685,9.6685,9.6685,9.6685,9.6685,9.6685,9.6685,9.6685,9.6502,9.6098,9.529,9.4703,9.4263,9.3455,9.2648,9.9442,9.9673,10.0096,0.0,0.0,9.9404,0.0,0.0,0.0,0.0,0.0,0.0,0.0,0.0,0.0,0.0,0.0,0.0,0.0,10.3289,0.0,0.0,0.0,0.0,10.5905,10.5905,10.6097,10.6405,10.6213,10.5905,10.5405,10.602,10.6097,10.5405,10.602,10.629,10.6213,10.4713,10.3789,10.3597,10.2097,10.1289,10.1289,10.202,10.252,10.2904,10.4289,10.5097,10.5405,10.6097,10.602,10.529,10.5213,10.4713,10.3982,10.2981,10.2712,10.2712,10.1712,10.0789,9.9942,9.9058,9.8327,9.775,9.775,9.8942,10.0289,10.0289,10.0789,10.1289,10.1289,10.121,10.0804,9.9509,9.9007,9.8405,9.7137,9.6691,9.6502,9.6685,9.6575,9.6539,9.6685,9.6685,9.6685,9.6685,9.5474,9.4483,9.4299,9.2978,9.1987,9.1803,9.3308,9.4299,9.4299,9.5768,9.6685,9.6685,9.6685,9.6685,9.6685,9.6685,9.6685,9.6685,9.6685,9.6318,9.5511,9.4703,9.4226,9.4042,9.3235,9.2464,0.0,0.0,0.0,0.0,9.9981,0.0,0.0,0.0,0.0,10.2097,0.0,0.0,0.0,0.0,0.0,0.0,0.0,0.0,10.0596,10.1096,0.0,0.0,0.0,0.0,0.0,10.4212,10.4789,10.629,10.5713,10.5482,10.6213,10.629,10.6405,10.629,10.629,10.602,10.529,10.4405,10.3482,10.2712,10.1789,10.1289,10.1289,10.1404,10.2289,10.3789,10.3982,10.4905,10.629,10.6405,10.629,10.6213,10.5405,10.4982,10.4789,10.3212,10.3097,10.3482,10.1904,10.0789,9.9942,9.9058,9.8711,9.8634,9.8634,9.9827,10.1212,10.1212,10.1212,10.1289,10.1289,10.0804,10.0319,10.0136,9.8949,9.786,9.7695,9.6583,9.5878,9.6575,9.6135,9.5878,9.6575,9.6685,9.6685,9.6685,9.5951,9.5107,9.4373,9.3492,9.2648,9.1877,9.3308,9.4299,9.4299,9.5768,9.6685,9.6685,9.6685,9.6685,9.6685,9.6685,9.6685,9.6685,9.6685,9.6318,9.5511,9.4703,9.3932,9.3235,9.2354,9.1877,10.0596,10.1096,0.0,0.0,0.0,0.0,10.1019,0.0,9.9365,0.0,0.0,0.0,0.0,0.0,0.0,0.0,10.1096,0.0,0.0,0.0,10.1789,0.0,0.0,0.0,0.0,0.0,0.0,0.0,10.5597,10.5482,10.6405,10.6405,10.6405,10.6405,10.6405,10.602,10.5097,10.4289,10.3482,10.2597,10.1712,10.1289,10.1289,10.1789,10.2712,10.3905,10.4405,10.529,10.6405,10.6405,10.6405,10.6405,10.602,10.5905,10.5713,10.4482,10.3982,10.3712,10.252,10.152,10.0712,9.9827,9.9211,9.8904,9.9404,10.0404,10.1289,10.1289,10.1289,10.1289,10.1289,10.0798,10.0087,9.96,9.8651,9.7695,9.7245,9.6657,9.6318,9.6649,9.6428,9.6318,9.6649,9.6685,9.6539,9.6061,9.5327,9.452,9.3712,9.2868,9.2207,9.184,9.3308,9.4299,9.4299,9.5768,9.6685,9.6685,9.6685,9.6685,9.6685,9.6685,9.6685,9.6685,9.6245,9.5621,9.4813,9.4006,9.3161,9.2354,9.195,9.1803,10.0712,0.0,0.0,0.0,0.0,0.0,0.0,0.0,0.0,0.0,0.0,0.0,0.0,0.0,10.1904,10.1404,0.0,10.152,0.0,0.0,0.0,0.0,0.0,0.0,0.0,0.0,0.0,0.0,0.0,10.5097,10.602,10.629,10.6405,10.6405,10.6213,10.5597,10.4789,10.3982,10.3097,10.2212,10.1789,10.1712,10.1712,10.2597,10.3405,10.4289,10.4789,10.5597,10.6405,10.6405,10.6405,10.6405,10.6405,10.6405,10.629,10.5405,10.4713,10.4097,10.3289,10.2212,10.1212,10.0596,9.9827,9.925,9.9904,10.0712,10.1289,10.1289,10.1208,10.097,10.097,10.0319,9.9401,9.8831,9.8058,9.7388,9.6801,9.6685,9.6685,9.6685,9.6685,9.6649,9.6428,9.6392,9.6171,9.5584,9.463,9.3749,9.3198,9.2354,9.1803,9.1803,9.3308,9.4299,9.4299,9.5768,9.6685,9.6685,9.6685,9.6685,9.6685,9.6685,9.6612,9.6392,9.5804,9.4997,9.3969,9.3382,9.2648,9.1803,9.1803,9.1803,0.0,0.0,0.0,10.152,0.0,0.0,0.0,0.0,10.0481,0.0,0.0,0.0,0.0,10.3789,10.3289,10.1597,10.202,0.0,0.0,0.0,0.0,0.0,0.0,0.0,0.0,0.0,0.0,0.0,0.0,0.0,10.5097,10.5905,10.6405,10.6405,10.5597,10.4789,10.3905,10.3097,10.2212,10.1404,10.2212,10.2597,10.2597,10.3482,10.4289,10.5097,10.5097,10.5597,10.6405,10.6405,10.6405,10.6405,10.6405,10.6405,10.629,10.5405,10.5097,10.4905,10.4097,10.2712,10.1289,10.1289,10.0712,10.0096,10.0096,10.0712,10.1289,10.1289,10.0804,10.0233,10.0233,9.9065,9.786,9.7793,9.7245,9.6685,9.6685,9.6685,9.6685,9.6685,9.6685,9.6465,9.5694,9.5547,9.5547,9.5511,9.4153,9.3125,9.3088,9.2354,9.1803,9.1803,9.3308,9.4299,9.4299,9.5768,9.6685,9.6685,9.6685,9.6685,9.6685,9.6685,9.6318,9.5547,9.5511,9.474,9.3125,9.3125,9.2648,9.1803,9.1803,9.1803,0.0,0.0,10.3905,10.252,0.0,0.0,0.0,0.0,0.0,0.0,0.0,0.0,0.0,10.3905,10.3482,10.2289,10.2404,10.1981,0.0,0.0,0.0,0.0,0.0,0.0,0.0,0.0,0.0,0.0,0.0,0.0,0.0,10.5713,10.579,10.6405,10.6097,10.5597,10.4713,10.3905,10.3289,10.2981,10.2712,10.2904,10.3482,10.4289,10.4789,10.5097,10.5713,10.6097,10.6405,10.6405,10.6405,10.6405,10.6405,10.6405,10.6405,10.6097,10.5597,10.4982,10.4212,10.2789,10.1404,10.202,10.1212,10.0173,10.0712,10.1096,10.121,10.0678,10.0413,10.0087,9.9547,9.8591,9.783,9.783,9.7282,9.6685,9.6685,9.6685,9.6685,9.6685,9.6685,9.6428,9.5658,9.507,9.452,9.4006,9.3455,9.2905,9.2317,9.1987,9.2024,9.2611,9.3639,9.452,9.507,9.6098,9.6685,9.6685,9.6685,9.6685,9.6685,9.6685,9.6318,9.5547,9.4997,9.4189,9.3088,9.1987,9.1583,9.1803,9.1253,9.1289,10.2212,10.3212,0.0,10.252,10.2597,0.0,10.2712,0.0,10.2289,0.0,0.0,0.0,0.0,10.4482,10.3982,10.3212,10.2789,10.1981,0.0,10.0096,0.0,0.0,0.0,0.0,0.0,0.0,0.0,0.0,0.0,0.0,0.0,0.0,10.5405,10.5905,10.5905,10.5713,10.5097,10.4289,10.3905,10.3905,10.3597,10.3789,10.4405,10.5213,10.5597,10.5597,10.6213,10.6405,10.6405,10.6405,10.6405,10.6405,10.6405,10.6405,10.6405,10.6405,10.579,10.4982,10.4482,10.3212,10.1904,10.2404,10.1712,10.0596,10.1096,10.1289,10.1285,10.1092,10.0368,9.9752,9.9525,9.8441,9.7422,9.7422,9.7027,9.6685,9.6685,9.6685,9.6612,9.6318,9.6502,9.6282,9.4887,9.4446,9.4042,9.3235,9.2831,9.2427,9.1877,9.1803,9.2134,9.3015,9.3822,9.463,9.5437,9.6245,9.6575,9.6282,9.6539,9.6685,9.6685,9.6428,9.5878,9.5107,9.3969,9.3015,9.2207,9.0849,9.0592,9.1363,9.0849,9.1033]},{"header":{"parameterUnit":"m.s-1","parameterCategory":1,"la1":30.6,"la2":29.2853,"lo1":-89.7004,"lo2":-87.6739,"dx":0.0162,"dy":0.0183,"nx":112,"ny":82,"refTime":"2022-11-11T18:00:00:Z","depth":0,"parameterNumber":3,"parameterNumberName":"V-component_of_WINDS"},"data":[0.0,0.0,0.0,0.0,0.0,0.0,0.0,0.0,0.0,0.0,0.0,0.0,0.0,0.0,0.0,0.0,0.0,0.0,0.0,0.0,0.0,0.0,0.0,0.0,0.0,0.0,0.0,0.0,0.0,0.0,0.0,0.0,0.0,0.0,0.0,0.0,0.0,0.0,0.0,0.0,0.0,0.0,0.0,0.0,0.0,0.0,0.0,0.0,0.0,0.0,0.0,0.0,0.0,0.0,0.0,0.0,0.0,0.0,0.0,0.0,0.0,0.0,0.0,0.0,0.0,0.0,0.0,0.0,0.0,0.0,0.0,0.0,0.0,0.0,0.0,0.0,0.0,0.0,0.0,0.0,0.0,0.0,0.0,0.0,0.0,0.0,0.0,0.0,0.0,0.0,0.0,-1.4489,-1.5486,-1.6225,-1.6497,-1.6042,-1.5472,-1.4848,0.0,0.0,0.0,0.0,0.0,0.0,0.0,0.0,0.0,0.0,0.0,0.0,0.0,0.0,0.0,0.0,0.0,0.0,0.0,0.0,0.0,0.0,0.0,0.0,0.0,0.0,0.0,0.0,0.0,0.0,0.0,0.0,0.0,0.0,0.0,0.0,0.0,0.0,0.0,0.0,0.0,0.0,0.0,0.0,0.0,0.0,0.0,0.0,0.0,0.0,0.0,0.0,0.0,0.0,0.0,0.0,0.0,0.0,0.0,0.0,0.0,0.0,0.0,0.0,0.0,0.0,0.0,0.0,0.0,0.0,0.0,0.0,0.0,0.0,0.0,0.0,0.0,0.0,0.0,0.0,0.0,0.0,0.0,0.0,0.0,0.0,0.0,0.0,0.0,0.0,0.0,0.0,0.0,0.0,0.0,0.0,0.0,0.0,0.0,0.0,0.0,0.0,0.0,0.0,-1.4299,-1.5493,-1.6015,-1.6341,-1.651,-1.6327,-1.5893,-1.516,0.0,0.0,0.0,0.0,0.0,0.0,0.0,0.0,0.0,0.0,0.0,0.0,0.0,0.0,0.0,0.0,0.0,0.0,0.0,0.0,0.0,0.0,0.0,0.0,0.0,0.0,0.0,0.0,0.0,0.0,0.0,0.0,0.0,0.0,0.0,0.0,0.0,0.0,0.0,0.0,0.0,0.0,0.0,0.0,0.0,0.0,0.0,0.0,0.0,0.0,0.0,0.0,0.0,0.0,0.0,0.0,0.0,0.0,0.0,0.0,0.0,0.0,0.0,0.0,0.0,0.0,0.0,0.0,0.0,0.0,0.0,0.0,0.0,0.0,0.0,0.0,0.0,0.0,0.0,0.0,0.0,0.0,0.0,0.0,0.0,0.0,0.0,0.0,0.0,0.0,0.0,0.0,0.0,0.0,0.0,0.0,0.0,0.0,0.0,0.0,0.0,0.0,0.0,-1.4204,-1.4991,-1.6096,-1.649,-1.6768,-1.6992,-1.6727,-1.6225,-1.5479,-1.4597,0.0,0.0,0.0,0.0,0.0,0.0,0.0,0.0,0.0,0.0,0.0,0.0,0.0,0.0,0.0,0.0,0.0,0.0,0.0,0.0,0.0,0.0,0.0,0.0,0.0,0.0,0.0,0.0,0.0,0.0,0.0,0.0,0.0,0.0,0.0,0.0,0.0,0.0,0.0,0.0,0.0,0.0,0.0,0.0,0.0,0.0,0.0,0.0,0.0,0.0,0.0,0.0,0.0,0.0,0.0,0.0,0.0,0.0,0.0,0.0,0.0,0.0,0.0,0.0,0.0,0.0,0.0,0.0,0.0,0.0,0.0,0.0,0.0,0.0,0.0,0.0,0.0,0.0,0.0,0.0,0.0,0.0,0.0,0.0,0.0,0.0,0.0,0.0,0.0,0.0,0.0,0.0,0.0,0.0,0.0,0.0,0.0,0.0,0.0,0.0,0.0,0.0,-1.4916,-1.5669,-1.6395,-1.6775,-1.7087,-1.7344,-1.7053,-1.6537,-1.5791,-1.5065,0.0,0.0,0.0,0.0,0.0,0.0,0.0,0.0,0.0,0.0,0.0,0.0,0.0,0.0,0.0,0.0,0.0,0.0,0.0,0.0,0.0,0.0,0.0,0.0,0.0,0.0,0.0,0.0,0.0,0.0,0.0,0.0,0.0,0.0,0.0,0.0,0.0,0.0,0.0,0.0,0.0,0.0,0.0,0.0,0.0,0.0,0.0,0.0,0.0,0.0,0.0,0.0,0.0,0.0,0.0,0.0,0.0,0.0,0.0,0.0,0.0,0.0,0.0,0.0,0.0,0.0,0.0,0.0,0.0,0.0,0.0,0.0,0.0,0.0,0.0,0.0,0.0,0.0,0.0,0.0,0.0,0.0,0.0,0.0,0.0,0.0,0.0,0.0,0.0,0.0,0.0,0.0,0.0,0.0,0.0,0.0,0.0,0.0,0.0,0.0,0.0,0.0,-1.5215,-1.6096,-1.63,-1.672,-1.7039,-1.7195,-1.7182,-1.6842,-1.6096,-1.5472,0.0,0.0,0.0,0.0,0.0,0.0,0.0,0.0,0.0,0.0,0.0,0.0,0.0,0.0,0.0,0.0,0.0,0.0,0.0,0.0,0.0,0.0,0.0,0.0,0.0,0.0,0.0,0.0,0.0,0.0,0.0,0.0,0.0,0.0,0.0,0.0,0.0,0.0,0.0,0.0,0.0,0.0,0.0,0.0,0.0,0.0,0.0,0.0,0.0,0.0,0.0,0.0,0.0,0.0,0.0,0.0,0.0,0.0,0.0,0.0,0.0,0.0,0.0,0.0,0.0,0.0,0.0,0.0,0.0,0.0,0.0,0.0,0.0,0.0,0.0,0.0,0.0,0.0,0.0,0.0,0.0,0.0,0.0,0.0,0.0,0.0,0.0,0.0,0.0,0.0,0.0,0.0,0.0,0.0,0.0,0.0,0.0,0.0,0.0,0.0,0.0,0.0,-1.5364,-1.6246,0.0,-1.7046,-1.7317,-1.7467,-1.7473,-1.7121,-1.6279,0.0,0.0,0.0,0.0,0.0,0.0,0.0,0.0,0.0,0.0,0.0,0.0,0.0,0.0,0.0,0.0,0.0,0.0,0.0,0.0,0.0,0.0,0.0,0.0,0.0,0.0,0.0,0.0,0.0,0.0,0.0,0.0,0.0,0.0,0.0,0.0,0.0,0.0,0.0,0.0,0.0,0.0,0.0,0.0,0.0,0.0,0.0,0.0,0.0,0.0,0.0,0.0,0.0,0.0,0.0,0.0,0.0,0.0,0.0,0.0,0.0,0.0,0.0,0.0,0.0,0.0,0.0,0.0,0.0,0.0,0.0,0.0,0.0,0.0,0.0,0.0,0.0,0.0,0.0,0.0,0.0,0.0,0.0,0.0,0.0,0.0,0.0,0.0,0.0,0.0,0.0,0.0,0.0,0.0,0.0,0.0,0.0,0.0,0.0,0.0,0.0,0.0,-1.4468,-1.5513,-1.6415,0.0,-1.7243,-1.748,-1.7629,-1.7684,-1.7331,-1.6435,0.0,0.0,0.0,0.0,0.0,0.0,0.0,0.0,0.0,0.0,0.0,0.0,0.0,0.0,0.0,0.0,0.0,0.0,0.0,0.0,0.0,0.0,0.0,0.0,0.0,0.0,0.0,0.0,0.0,0.0,0.0,0.0,0.0,0.0,0.0,0.0,0.0,0.0,0.0,0.0,0.0,0.0,0.0,0.0,0.0,0.0,0.0,0.0,0.0,0.0,0.0,0.0,0.0,0.0,0.0,0.0,0.0,0.0,0.0,0.0,0.0,0.0,0.0,0.0,0.0,0.0,0.0,0.0,0.0,0.0,0.0,0.0,0.0,0.0,0.0,0.0,0.0,0.0,0.0,0.0,0.0,0.0,0.0,0.0,0.0,0.0,0.0,0.0,0.0,0.0,0.0,0.0,0.0,0.0,0.0,0.0,0.0,0.0,0.0,0.0,0.0,0.0,-1.4496,-1.5689,-1.6639,-1.6944,-1.7243,-1.748,-1.7629,-1.7772,-1.748,0.0,0.0,0.0,0.0,0.0,0.0,0.0,0.0,0.0,0.0,0.0,0.0,0.0,0.0,0.0,0.0,0.0,0.0,0.0,0.0,0.0,0.0,0.0,0.0,0.0,0.0,0.0,0.0,0.0,0.0,0.0,0.0,0.0,0.0,0.0,0.0,0.0,0.0,0.0,0.0,0.0,0.0,0.0,0.0,0.0,0.0,0.0,0.0,0.0,0.0,0.0,0.0,0.0,0.0,0.0,0.0,0.0,0.0,0.0,0.0,0.0,0.0,0.0,0.0,0.0,0.0,0.0,0.0,0.0,0.0,0.0,0.0,0.0,0.0,0.0,0.0,0.0,0.0,0.0,0.0,0.0,0.0,0.0,0.0,0.0,0.0,0.0,0.0,0.0,0.0,0.0,0.0,0.0,0.0,0.0,0.0,0.0,0.0,0.0,0.0,0.0,0.0,0.0,-1.4652,-1.5852,-1.6761,-1.6958,-1.7148,-1.7324,-1.7473,-1.7623,-1.7372,-1.6571,0.0,0.0,0.0,0.0,0.0,0.0,0.0,0.0,0.0,0.0,0.0,0.0,0.0,0.0,0.0,0.0,0.0,0.0,0.0,0.0,0.0,0.0,0.0,0.0,0.0,0.0,0.0,0.0,0.0,0.0,0.0,0.0,0.0,0.0,0.0,0.0,0.0,0.0,0.0,0.0,0.0,0.0,0.0,0.0,0.0,0.0,0.0,0.0,0.0,0.0,0.0,0.0,0.0,0.0,0.0,0.0,0.0,0.0,0.0,0.0,0.0,0.0,0.0,0.0,0.0,0.0,0.0,0.0,0.0,0.0,0.0,0.0,0.0,0.0,0.0,0.0,0.0,0.0,0.0,0.0,0.0,0.0,0.0,0.0,0.0,0.0,0.0,0.0,0.0,0.0,0.0,0.0,0.0,0.0,0.0,0.0,0.0,0.0,0.0,0.0,0.0,0.0,-1.4801,-1.5954,-1.6809,-1.6965,-1.7107,-1.7256,-1.7405,-1.7507,-1.7317,-1.6741,0.0,0.0,0.0,0.0,0.0,0.0,0.0,0.0,0.0,0.0,0.0,0.0,0.0,0.0,0.0,0.0,0.0,0.0,0.0,0.0,0.0,0.0,0.0,0.0,0.0,0.0,0.0,0.0,0.0,0.0,0.0,0.0,0.0,0.0,0.0,0.0,0.0,0.0,0.0,0.0,0.0,0.0,0.0,0.0,0.0,0.0,0.0,0.0,0.0,0.0,0.0,0.0,0.0,0.0,0.0,0.0,0.0,0.0,0.0,0.0,0.0,0.0,0.0,0.0,0.0,0.0,0.0,0.0,0.0,0.0,0.0,0.0,0.0,0.0,0.0,0.0,0.0,0.0,0.0,0.0,0.0,0.0,0.0,0.0,0.0,0.0,0.0,0.0,0.0,0.0,0.0,0.0,0.0,0.0,0.0,0.0,0.0,0.0,0.0,0.0,0.0,0.0,-1.493,-1.6015,-1.6809,-1.6965,-1.7093,-1.7236,-1.7385,-1.7412,-1.729,-1.6978,0.0,0.0,0.0,0.0,0.0,0.0,0.0,0.0,0.0,0.0,0.0,0.0,0.0,0.0,0.0,0.0,0.0,0.0,0.0,0.0,0.0,0.0,0.0,0.0,0.0,0.0,0.0,0.0,0.0,0.0,0.0,0.0,0.0,0.0,0.0,0.0,0.0,0.0,0.0,0.0,0.0,0.0,0.0,0.0,0.0,0.0,0.0,0.0,0.0,0.0,0.0,0.0,0.0,0.0,0.0,0.0,0.0,0.0,0.0,0.0,-1.3044,0.0,0.0,0.0,0.0,0.0,0.0,0.0,0.0,0.0,0.0,0.0,0.0,0.0,0.0,0.0,0.0,0.0,0.0,0.0,0.0,0.0,0.0,0.0,0.0,0.0,0.0,0.0,0.0,0.0,0.0,0.0,0.0,0.0,0.0,0.0,0.0,0.0,0.0,0.0,0.0,0.0,-1.493,-1.6015,-1.6809,-1.6965,-1.7005,-1.7087,-1.7229,-1.7351,-1.7243,-1.6829,-1.6476,0.0,0.0,0.0,0.0,0.0,0.0,0.0,0.0,0.0,0.0,0.0,0.0,0.0,0.0,0.0,0.0,0.0,0.0,0.0,0.0,0.0,0.0,0.0,0.0,0.0,0.0,0.0,0.0,0.0,0.0,0.0,0.0,0.0,0.0,0.0,0.0,0.0,0.0,0.0,0.0,0.0,0.0,0.0,0.0,0.0,0.0,0.0,0.0,0.0,0.0,0.0,0.0,0.0,0.0,0.0,0.0,0.0,0.0,0.0,0.0,-1.3329,0.0,0.0,0.0,0.0,0.0,0.0,0.0,0.0,0.0,0.0,0.0,0.0,0.0,0.0,0.0,0.0,0.0,0.0,0.0,0.0,0.0,0.0,0.0,0.0,0.0,0.0,0.0,0.0,0.0,0.0,0.0,0.0,0.0,0.0,0.0,0.0,0.0,0.0,0.0,0.0,-1.5126,-1.6096,-1.6836,-1.706,-1.708,-1.7168,-1.7392,-1.7419,-1.7324,-1.7087,-1.6659,0.0,0.0,0.0,0.0,0.0,0.0,0.0,0.0,0.0,0.0,0.0,0.0,0.0,0.0,0.0,0.0,0.0,0.0,0.0,0.0,0.0,0.0,0.0,0.0,0.0,0.0,0.0,0.0,0.0,0.0,0.0,0.0,0.0,0.0,0.0,0.0,0.0,0.0,0.0,0.0,0.0,0.0,0.0,0.0,0.0,0.0,0.0,0.0,0.0,0.0,0.0,0.0,0.0,-1.4367,-1.4468,-1.4496,-1.4618,-1.4665,-1.4658,-1.4462,-1.4068,-1.3566,-1.3695,0.0,0.0,0.0,0.0,0.0,0.0,0.0,0.0,0.0,0.0,0.0,0.0,0.0,0.0,0.0,0.0,0.0,0.0,0.0,0.0,0.0,0.0,0.0,0.0,-1.4251,-1.4285,0.0,0.0,0.0,0.0,0.0,0.0,0.0,0.0,0.0,0.0,0.0,0.0,-1.5371,-1.6185,-1.6822,-1.7121,-1.7175,-1.7304,-1.7589,-1.7514,-1.7439,-1.7385,-1.6829,-1.632,0.0,0.0,0.0,0.0,0.0,0.0,0.0,0.0,0.0,0.0,0.0,0.0,0.0,0.0,0.0,0.0,0.0,0.0,0.0,0.0,0.0,0.0,0.0,0.0,0.0,0.0,0.0,0.0,0.0,0.0,0.0,0.0,-1.5231,-1.3487,0.0,0.0,0.0,0.0,0.0,0.0,0.0,0.0,0.0,0.0,0.0,0.0,0.0,-1.4136,-1.4448,-1.4563,-1.4631,-1.4658,-1.493,-1.5133,-1.5262,-1.5282,-1.5289,-1.5303,-1.552,0.0,-1.4183,-1.4204,0.0,0.0,0.0,0.0,0.0,0.0,0.0,0.0,0.0,0.0,0.0,0.0,0.0,0.0,0.0,0.0,0.0,0.0,0.0,0.0,0.0,0.0,-1.4685,-1.4943,-1.4943,-1.4896,0.0,-1.4441,-1.3926,-1.3729,-1.3695,0.0,0.0,0.0,0.0,0.0,0.0,0.0,-1.5513,-1.6164,-1.6666,-1.6978,-1.7121,-1.7263,-1.7439,-1.7555,-1.7507,-1.7243,-1.7256,-1.6904,-1.6083,-1.5852,0.0,0.0,0.0,0.0,0.0,0.0,0.0,0.0,0.0,0.0,0.0,0.0,0.0,0.0,0.0,0.0,0.0,0.0,0.0,0.0,0.0,0.0,0.0,0.0,0.0,0.0,0.0,0.0,0.0,-1.652,-1.598,-1.4089,-1.3641,-1.3546,0.0,0.0,0.0,0.0,0.0,0.0,0.0,0.0,0.0,-1.4434,-1.4529,-1.4719,-1.5011,-1.5086,-1.516,-1.5248,-1.5377,-1.5472,-1.554,-1.5622,-1.5662,-1.5669,-1.5798,-1.5594,-1.516,-1.4991,-1.4658,-1.4238,0.0,0.0,0.0,0.0,-1.3878,-1.4027,-1.4197,-1.4312,0.0,-1.4183,0.0,0.0,0.0,0.0,0.0,0.0,0.0,0.0,0.0,0.0,-1.5194,-1.5486,-1.5513,-1.5459,-1.5445,-1.5248,-1.493,0.0,-1.4346,-1.4197,-1.3729,0.0,0.0,0.0,0.0,-1.5099,-1.5683,-1.6279,-1.6761,-1.7066,-1.7311,-1.7507,-1.765,-1.7738,-1.7684,-1.746,-1.7433,-1.7168,-1.6612,-1.6198,-1.5716,0.0,0.0,0.0,0.0,0.0,0.0,0.0,0.0,0.0,0.0,0.0,0.0,0.0,0.0,0.0,0.0,0.0,0.0,0.0,0.0,0.0,0.0,0.0,0.0,0.0,0.0,0.0,0.0,-1.65,-1.6446,-1.4555,-1.4075,-1.396,0.0,0.0,0.0,0.0,0.0,0.0,-1.4299,-1.4482,-1.4706,-1.4964,-1.5079,-1.5262,-1.552,-1.5486,-1.5527,-1.5642,-1.5642,-1.5655,-1.5696,-1.5805,-1.5872,-1.5913,-1.5913,-1.5913,-1.5893,-1.5628,-1.5282,-1.4889,-1.4672,-1.4489,-1.4353,-1.4353,-1.4455,-1.4618,-1.4835,-1.4991,-1.5045,-1.4814,-1.4692,-1.4557,-1.4183,0.0,0.0,0.0,0.0,-1.4828,-1.5472,-1.5554,-1.5533,-1.5791,-1.5852,-1.5839,-1.5764,-1.5839,-1.5723,0.0,-1.497,-1.4801,-1.4272,0.0,0.0,0.0,0.0,-1.5418,-1.5906,-1.6429,-1.6863,-1.7161,-1.7467,-1.7704,-1.7846,-1.786,-1.7806,-1.7663,-1.7541,-1.7331,-1.6992,-1.6551,-1.6117,-1.5703,0.0,0.0,0.0,0.0,0.0,0.0,0.0,0.0,0.0,0.0,0.0,0.0,0.0,0.0,0.0,0.0,0.0,0.0,0.0,0.0,0.0,0.0,0.0,0.0,0.0,0.0,0.0,0.0,0.0,-1.4847,-1.4448,0.0,0.0,0.0,0.0,-1.4278,-1.4679,-1.4923,-1.4923,-1.5201,-1.5425,-1.5588,-1.5601,-1.5676,-1.5832,-1.5696,-1.5635,-1.5642,-1.5642,-1.571,-1.5845,-1.5852,-1.5934,-1.6069,-1.6069,-1.6069,-1.6056,-1.59,-1.5649,-1.5377,-1.5364,-1.5262,-1.5126,-1.5126,-1.5221,-1.5357,-1.5371,-1.5384,-1.5384,-1.5371,-1.5174,-1.4916,-1.4746,-1.4692,0.0,0.0,-1.5045,-1.5221,-1.5554,-1.5635,-1.5669,-1.5818,-1.5852,-1.5893,-1.6029,-1.6062,-1.5974,0.0,-1.5594,-1.5493,-1.5167,0.0,-1.5187,-1.5337,-1.5377,-1.5615,-1.6212,-1.6558,-1.6863,-1.7161,-1.7467,-1.7704,-1.7846,-1.786,-1.7806,-1.7663,-1.765,-1.7439,-1.6998,-1.6951,-1.6592,-1.5859,-1.5676,0.0,0.0,0.0,0.0,0.0,0.0,0.0,0.0,0.0,0.0,0.0,0.0,0.0,0.0,0.0,0.0,0.0,0.0,0.0,0.0,0.0,0.0,0.0,0.0,0.0,0.0,0.0,0.0,-1.5361,-1.493,0.0,-1.4604,-1.4672,-1.4733,-1.4733,-1.5059,-1.5255,-1.5255,-1.5445,-1.5581,-1.5635,-1.573,-1.5805,-1.5852,-1.59,-1.5927,-1.5927,-1.5927,-1.5954,-1.6001,-1.6001,-1.6029,-1.6083,-1.6083,-1.6083,-1.6076,-1.6022,-1.5879,-1.5696,-1.5696,-1.5608,-1.5479,-1.5479,-1.5567,-1.5696,-1.5696,-1.5696,-1.5683,-1.5588,-1.5486,-1.5391,-1.5337,-1.5316,-1.535,-1.5499,-1.5574,-1.5662,-1.5872,-1.5927,-1.5934,-1.5988,-1.6001,-1.6015,-1.6069,-1.6083,-1.6049,-1.594,-1.5927,-1.5832,-1.5527,-1.5635,-1.5716,-1.5581,-1.5805,-1.6069,-1.6279,-1.6653,-1.6971,-1.7168,-1.7548,-1.7846,-1.8002,-1.8111,-1.8091,-1.7948,-1.7846,-1.767,-1.7419,-1.7134,-1.6809,-1.6435,-1.6096,-1.5486,0.0,0.0,0.0,0.0,0.0,0.0,0.0,0.0,0.0,0.0,0.0,0.0,0.0,0.0,0.0,0.0,0.0,0.0,0.0,0.0,0.0,0.0,0.0,0.0,0.0,0.0,-1.8509,-1.5605,-1.5215,-1.5106,-1.4909,-1.5031,-1.512,-1.512,-1.5391,-1.556,-1.556,-1.5703,-1.5791,-1.5791,-1.5879,-1.5934,-1.5934,-1.6029,-1.611,-1.6157,-1.6157,-1.6185,-1.6232,-1.6232,-1.6232,-1.6232,-1.6232,-1.6232,-1.6225,-1.6178,-1.6096,-1.6001,-1.5947,-1.5872,-1.5791,-1.5791,-1.5845,-1.5934,-1.5934,-1.5934,-1.5913,-1.5818,-1.5791,-1.5791,-1.5791,-1.5791,-1.5805,-1.5906,-1.5934,-1.5967,-1.6117,-1.6123,-1.6096,-1.6144,-1.6157,-1.6157,-1.6157,-1.6198,-1.6232,-1.6232,-1.6151,-1.6022,-1.5818,-1.5947,-1.6029,-1.5886,-1.6117,-1.6347,-1.6442,-1.6761,-1.7073,-1.7317,-1.765,-1.7948,-1.8145,-1.8267,-1.8287,-1.8179,-1.8023,-1.788,-1.7717,-1.7392,-1.7087,-1.6836,-1.6334,-1.5642,-1.474,0.0,0.0,0.0,0.0,0.0,0.0,0.0,0.0,0.0,0.0,0.0,0.0,0.0,0.0,0.0,0.0,0.0,0.0,0.0,0.0,0.0,0.0,0.0,-1.934,-1.6634,-1.5286,-1.5384,-1.5289,-1.5201,-1.5194,-1.5337,-1.5425,-1.5425,-1.5696,-1.5859,-1.5859,-1.6001,-1.6083,-1.6083,-1.609,-1.609,-1.609,-1.6096,-1.6171,-1.632,-1.632,-1.6388,-1.6524,-1.6524,-1.6524,-1.6524,-1.6524,-1.6524,-1.651,-1.6374,-1.632,-1.63,-1.6144,-1.6083,-1.6083,-1.6083,-1.6083,-1.6083,-1.6083,-1.6083,-1.6083,-1.6083,-1.6083,-1.6083,-1.6083,-1.6083,-1.6083,-1.609,-1.609,-1.6123,-1.6279,-1.6205,-1.613,-1.6279,-1.632,-1.632,-1.632,-1.6422,-1.6524,-1.6524,-1.6293,-1.6096,-1.6096,-1.6096,-1.6144,-1.6293,-1.632,0.0,-1.6714,-1.6883,-1.7154,-1.7595,-1.7772,-1.7989,-1.8287,-1.8321,-1.8321,-1.8321,-1.8179,-1.8036,-1.788,-1.7738,-1.7446,-1.6992,-1.6381,-1.5778,-1.5187,0.0,0.0,0.0,0.0,0.0,0.0,0.0,0.0,0.0,0.0,0.0,0.0,0.0,0.0,0.0,0.0,0.0,0.0,0.0,0.0,0.0,0.0,-2.2882,-2.1752,-1.9604,-1.7497,-1.5767,-1.5628,-1.5628,-1.552,-1.5649,-1.573,-1.573,-1.5913,-1.6022,-1.6022,-1.6056,-1.6083,-1.6083,-1.6191,-1.6246,-1.6246,-1.6347,-1.6422,-1.6463,-1.6463,-1.6483,-1.6524,-1.6524,-1.6524,-1.6524,-1.6524,-1.6524,-1.6517,-1.6476,-1.6463,-1.6435,-1.6185,-1.6083,-1.6083,-1.6083,-1.6083,-1.6083,-1.6083,-1.6083,-1.6083,-1.6083,-1.6083,-1.6083,-1.6083,-1.6083,-1.6103,-1.6218,-1.6246,-1.6279,-1.6429,-1.6429,-1.6408,-1.6456,-1.6463,-1.6463,-1.6463,-1.649,-1.6524,-1.6524,-1.6456,-1.6402,-1.6402,-1.6402,-1.6415,-1.6456,-1.6558,0.0,-1.6741,-1.6883,-1.7107,-1.7446,-1.7616,-1.788,-1.8287,-1.8409,-1.8477,-1.8477,-1.8423,-1.8301,-1.8036,-1.788,-1.7548,-1.6992,-1.6178,-1.5622,0.0,0.0,0.0,0.0,0.0,0.0,0.0,0.0,0.0,0.0,0.0,0.0,0.0,0.0,0.0,0.0,0.0,0.0,0.0,0.0,0.0,0.0,-2.2572,-2.132,-2.1442,-1.9437,-1.7589,-1.7448,-1.6572,-1.5818,-1.5737,-1.5866,-1.5947,-1.5947,-1.6029,-1.6083,-1.6083,-1.6144,-1.6178,-1.6178,-1.632,-1.6395,-1.6395,-1.6483,-1.6551,-1.6619,-1.6619,-1.6653,-1.6714,-1.6714,-1.6714,-1.6714,-1.6714,-1.6714,-1.6707,-1.6646,-1.6619,0.0,0.0,0.0,0.0,0.0,-1.6266,-1.6266,-1.6266,-1.6266,-1.6266,-1.6266,-1.6266,-1.6266,-1.6266,-1.6266,-1.6286,-1.6374,-1.6395,-1.6429,-1.6578,-1.6571,-1.6537,-1.6605,-1.6619,-1.6619,-1.6619,-1.6666,-1.6714,-1.6714,-1.6714,0.0,-1.6788,-1.6646,-1.6544,-1.6605,-1.6693,-1.6775,-1.6836,-1.6978,-1.7182,-1.7487,-1.7704,-1.7982,-1.8375,-1.8552,0.0,0.0,0.0,-1.8389,-1.8111,-1.788,0.0,0.0,0.0,0.0,0.0,0.0,0.0,0.0,-2.2705,-2.5394,0.0,0.0,0.0,0.0,0.0,0.0,0.0,0.0,0.0,0.0,0.0,0.0,0.0,0.0,0.0,0.0,-2.081,-1.9514,-1.9742,-1.735,-1.6508,-1.9101,-1.7419,-1.5879,-1.5879,-1.6015,-1.611,-1.611,-1.6123,-1.613,-1.613,0.0,0.0,0.0,0.0,-1.6544,-1.6544,-1.6564,-1.6639,-1.6775,-1.6795,-1.687,-1.7005,-1.7026,-1.7032,-1.7032,-1.7032,-1.7032,-1.7019,-1.6883,-1.6815,-1.6781,-1.6592,-1.6524,-1.6524,-1.6524,-1.6524,-1.6524,-1.6524,0.0,0.0,-1.6524,-1.6524,-1.6524,-1.6524,-1.6524,-1.6524,-1.6544,-1.6544,-1.6585,-1.6734,-1.6673,-1.6612,-1.6761,-1.6802,-1.6802,-1.6802,-1.6924,-1.7019,-1.6985,-1.7005,-1.7066,-1.7175,-1.6849,-1.6625,-1.6775,-1.6802,-1.6849,-1.6985,-1.7127,-1.7331,-1.7616,0.0,0.0,-1.8477,-1.864,-1.8728,-1.8762,-1.862,-1.8409,-1.8124,-1.7806,-1.7514,-1.7222,-1.691,-1.6619,-1.6361,-1.6522,-1.7814,-2.0175,-2.3753,-2.6992,0.0,0.0,0.0,0.0,0.0,0.0,0.0,0.0,0.0,0.0,0.0,0.0,0.0,0.0,0.0,-2.008,-1.985,-1.9759,-1.9902,-1.7622,-1.598,-1.6622,-1.6355,-1.6035,-1.6035,-1.6178,-1.6266,-1.6266,-1.6374,-1.6435,-1.6435,-1.6463,-1.6476,-1.6483,-1.642,-1.6493,-1.6493,-1.6829,-1.6904,-1.6937,0.0,0.0,-1.7154,-1.7283,-1.7338,-1.7338,-1.7338,-1.7338,-1.7331,-1.7304,-1.7216,-1.7066,-1.6673,-1.6524,-1.6524,-1.6524,-1.6524,-1.6524,-1.6524,-1.6524,-1.6524,-1.6524,-1.6524,-1.6524,-1.6524,-1.6524,0.0,-1.6673,-1.6707,-1.6741,-1.6897,-1.691,-1.6931,-1.7073,-1.7107,-1.7107,-1.7107,-1.7229,-1.7263,-1.7026,-1.7175,-1.7304,-1.7209,-1.7026,-1.6937,-1.7087,-1.7107,-1.7121,-1.7148,-1.7283,-1.7446,-1.7629,-1.7704,-1.7894,-1.8321,-1.8389,-1.8511,-1.8742,-1.862,-1.8464,-1.8287,-1.788,-1.7561,-1.7378,-1.6965,-1.672,-1.6666,-1.8621,-1.9651,-2.0198,-2.2876,-2.5505,0.0,0.0,0.0,0.0,0.0,0.0,0.0,0.0,0.0,0.0,0.0,-1.8359,0.0,0.0,-1.749,-1.7741,-1.7855,-1.7939,-1.8023,-1.6793,-1.6553,-1.7712,-1.6814,-1.611,-1.6191,-1.6259,-1.6341,-1.6408,-1.6483,-1.6524,-1.6517,-1.6386,-1.6426,-1.6426,-1.6574,-1.6654,-1.6654,-1.7012,-1.7087,-1.7087,-1.7016,-1.7304,-1.7311,-1.7385,-1.7419,-1.7419,-1.7419,-1.7419,-1.7426,-1.7419,-1.7372,-1.7283,-1.706,-1.6883,-1.6754,-1.6754,-1.6754,-1.6761,-1.6829,-1.6856,-1.687,-1.6944,-1.6971,-1.6971,-1.6971,-1.6971,-1.6985,-1.7066,-1.7087,-1.71,-1.7182,-1.7202,-1.7216,-1.729,-1.7304,-1.7304,-1.7304,-1.7365,-1.7378,-1.7229,-1.7317,-1.7419,-1.7419,-1.7297,-1.7222,-1.7297,-1.7304,-1.7304,-1.7304,-1.7439,-1.7561,-1.765,-1.7792,-1.7968,-1.8179,-1.8335,-1.8511,-1.8742,-1.8694,-1.8552,-1.8335,-1.8036,-1.7717,-1.7426,-1.7127,-1.6897,-1.6748,-1.7807,-1.8488,-1.8404,-2.2181,-2.5292,0.0,0.0,0.0,0.0,0.0,0.0,0.0,0.0,-1.5645,-1.543,-1.5744,-1.6025,-1.5493,-1.5689,-1.5866,-1.5893,-1.6001,-1.6083,-1.6083,-1.611,-1.6907,-1.9058,-1.7297,-1.6185,-1.6334,-1.6172,-1.6232,-1.6346,-1.6592,-1.6612,-1.6612,-1.652,-1.6594,-1.6621,-1.6951,-1.7032,-1.7066,-1.6962,-1.7016,-1.7236,-1.717,-1.7244,-1.7467,-1.771,-1.7507,-1.7507,-1.7507,-1.7507,-1.7724,-1.748,-1.7467,-1.746,-1.7433,-1.7277,-1.7066,-1.7066,-1.7066,-1.708,-1.7195,-1.7236,-1.7256,-1.7378,-1.7419,-1.7419,-1.7419,-1.7419,-1.7419,-1.7419,-1.7419,-1.7419,-1.7419,-1.7419,-1.7426,-1.746,-1.7467,-1.7467,-1.7467,-1.7487,-1.7487,-1.7433,-1.7467,-1.7534,-1.7629,-1.7568,-1.7494,-1.7467,-1.7467,-1.7467,-1.7467,-1.7595,-1.7684,-1.7684,-1.7894,-1.8057,-1.8091,-1.8355,-1.8586,-1.8708,-1.8742,-1.862,-1.8335,-1.8179,-1.7894,-1.7473,-1.7283,-1.7073,-1.6836,-1.6775,-1.6686,-1.6558,-2.1195,-2.4753,-1.5133,-1.5208,0.0,-1.5031,-1.5167,-1.5364,0.0,0.0,-1.8025,-1.5931,-1.7305,-1.8312,-1.6161,-1.5832,-1.59,-1.6035,-1.6069,-1.6083,-1.6083,-1.6198,-1.6279,-1.6474,-1.6273,-1.6132,-1.6068,-1.6406,-1.6493,-1.6513,-1.6849,-1.6931,-1.6931,-1.6944,-1.7012,-1.6922,-1.6942,-1.7016,-1.6928,-1.6948,-1.7177,-1.7843,-1.7779,-1.7847,-1.7854,-1.7758,-1.7812,-1.7812,-1.7812,-1.7812,-1.7812,-1.7895,-1.7847,-1.7609,-1.7473,-1.7399,-1.7372,-1.7372,-1.7372,-1.7372,-1.7392,-1.7392,-1.7399,-1.7412,-1.7419,-1.7419,-1.7419,-1.7419,-1.7419,-1.7419,-1.7419,-1.7419,-1.7419,-1.7419,-1.7453,-1.7589,-1.7623,-1.7623,-1.7623,-1.7717,-1.7738,-1.7473,-1.7636,-1.7772,-1.767,-1.7738,-1.7772,-1.765,-1.7623,-1.7623,-1.7623,-1.7758,-1.7846,-1.7846,-1.786,-1.7948,-1.8077,-1.8355,-1.8531,-1.8552,-1.8694,-1.862,-1.8335,-1.8179,-1.7948,-1.7629,-1.7338,-1.7175,-1.7141,-1.6876,-1.6741,-1.672,-1.9589,-2.2195,-1.5696,-1.5689,0.0,0.0,-1.571,-1.5825,-1.5913,-1.6707,-1.7115,-1.6213,-1.6807,-1.7188,-1.6186,-1.5988,-1.6008,0.0,-1.6157,-1.6218,-1.6218,-1.6341,-1.6259,-1.6346,-1.6353,-1.6379,-1.6227,-1.6287,-1.6359,-1.6668,-1.7019,-1.71,-1.71,-1.6969,-1.7043,-1.7103,-1.7324,-1.7573,-1.7426,-1.7507,-1.7555,-1.8003,-1.793,-1.7998,-1.7998,-1.7826,-1.786,-1.786,-1.786,-1.786,-1.786,-1.7792,-1.7779,-1.7772,-1.7704,-1.7684,-1.765,-1.7487,-1.7419,-1.7433,-1.7521,-1.7555,-1.7568,-1.765,-1.7684,-1.7684,-1.7684,-1.7684,-1.7684,-1.7684,-1.7684,-1.7684,-1.7684,-1.7684,-1.7684,-1.7758,-1.7772,-1.7772,-1.7772,-1.7826,-1.7826,-1.7704,-1.7772,-1.7846,-1.7792,-1.7826,-1.7846,-1.7772,-1.7772,-1.7772,-1.7772,-1.7826,-1.786,-1.786,-1.786,-1.7968,-1.8199,-1.8409,-1.8565,-1.8654,-1.8728,-1.862,-1.8335,-1.8179,-1.7948,-1.765,-1.7521,-1.7372,-1.7195,-1.7066,-1.6965,-1.6876,-1.9363,-2.2066,-1.6008,0.0,0.0,-1.6008,-1.6083,-1.6164,-1.6232,-1.6246,-1.6246,-1.6246,-1.6246,-1.6212,-1.6103,-1.6083,-1.6096,-1.6137,-1.6239,-1.6327,-1.6361,-1.649,-1.6625,-1.652,-1.6607,-1.6654,-1.6654,-1.6445,-1.6492,-1.7026,-1.6956,-1.7036,-1.7256,-1.7143,-1.7217,-1.7257,-1.7703,-1.7947,-1.7989,-1.7875,-1.793,-1.793,-1.7812,-1.786,-1.786,-1.786,-1.786,-1.786,-1.786,-1.786,-1.786,-1.786,-1.786,-1.786,-1.786,-1.786,-1.7846,-1.7623,-1.7541,-1.7561,-1.767,-1.7704,-1.7717,-1.7826,-1.786,-1.786,-1.786,-1.786,-1.786,-1.786,-1.786,-1.786,-1.786,-1.786,-1.786,-1.786,-1.786,-1.786,-1.786,-1.7826,-1.7812,-1.786,-1.7826,-1.7812,-1.786,-1.786,-1.786,-1.786,-1.786,-1.786,-1.786,-1.786,-1.786,-1.786,-1.786,-1.7968,-1.8233,-1.8389,-1.8531,-1.8694,-1.8694,-1.8586,-1.8335,-1.8179,-1.7968,-1.7717,-1.767,-1.7541,-1.7317,-1.7236,-1.7558,-1.8281,-2.0778,-2.3294,-1.594,-1.6076,-1.6225,-1.5934,-1.6083,-1.6266,-1.6123,-1.609,-1.609,-1.609,-1.609,-1.609,-1.6083,-1.6083,-1.613,-1.6279,-1.6307,-1.6361,-1.6497,-1.6646,-1.6741,-1.6534,-1.6788,-1.6962,0.0,-1.6962,-1.6962,-1.6969,-1.7103,-1.7197,-1.7857,-1.7864,-1.7933,-1.7861,-1.7875,-1.793,-1.7846,-1.786,-1.786,-1.786,-1.786,-1.786,-1.786,-1.786,-1.786,-1.786,-1.786,-1.786,-1.786,-1.786,-1.786,-1.786,-1.786,-1.786,-1.786,-1.7846,-1.7846,-1.7846,-1.786,-1.786,-1.786,-1.786,-1.786,-1.786,-1.786,-1.786,-1.786,-1.786,-1.786,-1.786,-1.786,-1.786,-1.786,-1.786,-1.786,-1.786,-1.786,-1.7758,-1.7704,-1.7826,-1.7758,-1.7704,-1.7846,-1.786,-1.786,-1.786,-1.786,-1.786,-1.786,-1.786,-1.786,-1.786,-1.786,-1.7935,-1.8091,-1.8233,-1.8389,-1.8531,-1.8531,-1.8477,-1.8321,-1.8179,-1.8023,-1.786,-1.7717,-1.765,-1.7629,-1.7338,-1.8653,-2.1146,-2.386,-2.6306,-1.6185,-1.6157,-1.6137,-1.6029,-1.6083,-1.6144,-1.6096,-1.6083,-1.6083,-1.6083,-1.6164,-1.6259,-1.6354,-1.6374,-1.6422,-1.6578,-1.6605,-1.6619,-1.6666,-1.6809,-1.6904,-1.6904,-1.6855,0.0,0.0,0.0,0.0,-1.7566,-1.7703,-1.7792,-1.7799,-1.7895,-1.7964,-1.7792,-1.7792,-1.7812,-1.786,-1.786,-1.786,-1.786,-1.786,-1.786,-1.786,-1.786,-1.7914,-1.8002,-1.7914,-1.7982,-1.7927,-1.7827,-1.807,-1.8158,-1.805,-1.8016,-1.7989,-1.7792,-1.7717,-1.7738,-1.7826,-1.786,-1.786,-1.786,-1.786,-1.786,-1.786,-1.786,-1.786,-1.786,-1.786,-1.786,-1.786,-1.786,-1.786,-1.786,-1.786,-1.786,-1.786,-1.7758,-1.7684,-1.7826,-1.7758,-1.7704,-1.7846,-1.786,-1.786,-1.786,-1.786,-1.786,-1.786,-1.786,-1.786,-1.786,-1.786,-1.7968,-1.8213,-1.8375,-1.8531,-1.8674,-1.8694,-1.8565,-1.8335,-1.8179,-1.8023,-1.786,-1.7812,-1.7738,-1.765,-1.9461,-2.0767,-2.1365,-2.4221,-2.6756,-1.6259,-1.6157,-1.6083,-1.6083,-1.6083,-1.6083,-1.6083,-1.6083,-1.6083,-1.6083,-1.6205,-1.6341,-1.6429,-1.649,-1.6592,-1.6795,-1.6829,-1.6849,-1.6897,-1.7039,-1.7121,-1.7066,-1.7016,-1.7358,0.0,0.0,0.0,-1.7954,-1.7861,-1.7944,-1.7944,-1.7812,-1.786,-1.786,-1.786,-1.786,-1.786,-1.786,-1.7894,-1.7948,-1.788,-1.7894,-1.7948,-1.788,-1.7955,-1.8321,-1.7935,-1.8002,-1.7994,-1.807,-1.8077,-1.8145,-1.805,-1.8002,-1.7989,-1.7738,-1.765,-1.7663,-1.7758,-1.7792,-1.7792,-1.7846,-1.786,-1.786,-1.786,-1.786,-1.786,-1.786,-1.786,-1.786,-1.786,-1.786,-1.786,-1.786,-1.7826,-1.7792,-1.7792,-1.7629,-1.7548,-1.7738,-1.767,-1.7629,-1.7826,-1.7826,-1.7772,-1.7724,-1.7758,-1.7812,-1.786,-1.786,-1.786,-1.786,-1.786,-1.7989,-1.8301,-1.8409,-1.8552,-1.8742,-1.8708,-1.8565,-1.8335,-1.8179,-1.8023,-1.786,-1.786,-1.7812,-1.7717,-2.0674,-2.219,-2.2933,-2.5787,-2.8324,-1.6171,-1.609,-1.6083,-1.6083,-1.6083,-1.6083,-1.609,-1.609,-1.6083,-1.6103,-1.6225,-1.6334,0.0,0.0,-1.6653,-1.7154,-1.7188,-1.7019,-1.7148,-1.7304,-1.7344,0.0,0.0,0.0,0.0,0.0,0.0,-1.7895,0.0,-1.786,-1.786,-1.786,-1.786,-1.786,-1.786,-1.786,-1.786,-1.786,-1.7948,-1.786,-1.7948,-1.7968,-1.786,-1.7948,-1.8198,-1.8804,-1.8177,-1.7982,-1.788,-1.8198,-1.8129,-1.7914,-1.7901,-1.788,-1.786,-1.7704,-1.7629,-1.7629,-1.7629,-1.7629,-1.767,-1.7812,-1.786,-1.786,-1.786,-1.786,-1.786,-1.786,-1.786,-1.786,-1.786,-1.786,-1.786,-1.786,-1.7758,-1.765,-1.765,-1.7405,-1.7283,-1.7582,-1.7521,-1.7514,-1.7812,-1.7738,-1.7589,-1.7439,-1.7541,-1.7684,-1.7826,-1.786,-1.786,-1.786,-1.786,-1.7989,-1.8301,-1.8321,-1.8443,-1.8742,-1.862,-1.8477,-1.8321,-1.8179,-1.8023,-1.786,-1.786,-1.786,-1.786,-2.0738,-2.334,-2.5661,-2.8583,-3.1247,-1.6273,-1.6171,-1.6083,-1.6083,-1.6083,-1.611,-1.6225,-1.6164,-1.6144,-1.6368,-1.653,-1.7277,0.0,0.0,0.0,-1.9828,-1.8186,0.0,-1.6856,-1.6998,0.0,-1.7039,0.0,-1.765,-1.765,-1.7772,0.0,0.0,-1.7846,-1.786,-1.786,-1.786,-1.786,-1.786,-1.786,-1.786,-1.786,-1.7968,-1.8057,-1.8097,-1.8397,-1.8233,-1.7802,-1.8213,-1.8514,-1.8879,-1.85,-1.8355,-1.8112,-1.8195,-1.8423,-1.8518,-1.8409,-1.8233,-1.8002,-1.7738,-1.7507,-1.7311,-1.7311,-1.746,-1.765,-1.7684,-1.7772,-1.786,-1.786,-1.786,-1.786,-1.786,-1.786,-1.786,-1.786,-1.786,-1.786,-1.786,-1.7758,-1.765,-1.765,-1.7405,-1.7249,-1.7439,-1.7446,-1.748,-1.767,-1.7582,-1.7467,-1.7426,-1.7453,-1.7534,-1.7684,-1.7792,-1.786,-1.786,-1.786,-1.7989,-1.8301,-1.8321,-1.8443,-1.8742,-1.8728,-1.8586,-1.8335,-1.8287,-1.8145,-1.786,-1.786,-1.786,-1.786,-2.3022,-2.5468,-2.6104,-3.095,-3.3416,-1.6225,-1.6144,-1.6083,-1.6083,-1.613,-1.6185,-1.6205,-1.6198,-1.6232,-1.6395,-1.761,0.0,-1.9114,0.0,0.0,0.0,0.0,0.0,-1.7032,-1.7175,-1.7277,0.0,-1.7548,0.0,-1.7738,-1.7812,-1.786,0.0,-1.786,-1.786,-1.786,-1.786,-1.786,-1.786,-1.786,-1.786,-1.786,-1.8023,-1.8131,-1.8431,-1.8754,-1.8589,-1.8403,-1.8355,-1.8623,-1.8768,0.0,-1.8443,-1.8416,-1.8262,-1.8491,-1.8572,-1.8477,-1.8301,-1.8057,-1.7758,-1.75,-1.7277,-1.7148,-1.7249,-1.7473,-1.7602,-1.7704,-1.7772,-1.7846,-1.786,-1.786,-1.786,-1.786,-1.786,-1.786,-1.7812,-1.7792,-1.7846,-1.765,-1.7467,-1.7534,-1.7311,-1.7141,-1.729,-1.7433,-1.7507,-1.746,-1.7433,-1.7378,-1.7249,-1.7277,-1.7351,-1.7439,-1.7629,-1.7772,-1.7772,-1.7826,-1.7989,-1.8301,-1.8321,-1.8443,-1.8742,-1.8762,-1.8654,-1.8423,-1.8355,-1.8213,-1.7968,-1.7901,-1.8508,-1.9823,-2.4363,-2.7052,-2.811,-3.2332,-3.4162,-1.6117,-1.6083,-1.6083,-1.6083,-1.6185,-1.6252,-1.6157,-1.6225,-1.6327,-1.6388,0.0,-2.0241,-1.7804,-1.9493,-2.0742,-1.8215,0.0,-1.7188,-1.7344,-1.7494,-1.7595,-1.7616,-1.7758,-1.786,-1.786,-1.786,-1.786,-1.7901,-1.7901,-1.788,-1.786,-1.786,-1.786,-1.786,-1.788,-1.7901,-1.7901,-1.8057,-1.8445,-1.8823,-1.8844,-1.8913,-1.8788,-1.8893,-1.8913,-1.8788,-1.8658,-1.8443,-1.8552,-1.8423,-1.8375,-1.8603,-1.8375,-1.8267,-1.8057,-1.7772,-1.7555,-1.7351,-1.7073,-1.706,-1.7209,-1.7494,-1.7616,-1.767,-1.7792,-1.7846,-1.786,-1.786,-1.786,-1.786,-1.786,-1.7758,-1.7684,-1.7826,-1.7521,-1.7236,-1.7385,-1.7188,-1.7026,-1.7161,-1.7405,-1.75,-1.7236,-1.7304,-1.7304,-1.7046,-1.71,-1.7168,-1.7188,-1.746,-1.765,-1.765,-1.7772,-1.7989,-1.8301,-1.8321,-1.8443,-1.8742,-1.8762,-1.8694,-1.8531,-1.8389,-1.8247,-1.8091,-1.7935,-1.9383,-2.221,-2.5014,-2.7931,-3.0493,-3.3227,-3.4229,-1.609,-1.6083,-1.6083,-1.6083,-1.6103,-1.6178,-1.6395,-1.6374,0.0,-1.6788,-1.9168,-2.0845,-2.0438,-2.0812,-2.1113,-2.0553,-1.8351,-1.6883,-1.7032,-1.7182,-1.7317,0.0,-1.7704,-1.786,0.0,0.0,0.0,0.0,0.0,-1.8002,-1.786,-1.786,-1.786,-1.786,-1.7989,-1.8057,-1.8057,-1.8088,-1.8228,-1.8498,-1.8626,-1.8694,-1.8728,-1.8694,-1.8694,-1.8728,-1.8694,0.0,-1.8728,-1.8694,-1.8694,-1.8694,-1.8694,-1.8443,-1.8077,-1.7901,-1.7575,-1.7209,-1.7039,-1.6998,-1.7046,-1.7216,-1.7446,-1.765,-1.7684,-1.7772,-1.786,-1.786,-1.786,-1.786,-1.786,-1.7758,-1.7684,-1.7826,-1.7521,-1.7236,-1.7385,-1.7188,-1.7026,-1.7161,-1.7236,-1.7256,-1.7202,-1.7216,-1.7216,-1.7161,-1.7073,-1.706,-1.7175,-1.746,-1.765,-1.765,-1.7772,-1.7989,-1.8301,-1.8321,-1.8443,-1.8742,-1.8762,-1.8694,-1.8531,-1.8389,-1.8247,-1.8091,-1.7935,-1.9383,-2.221,-2.5014,-2.8016,-3.0976,-3.3523,-3.4523,-1.6178,-1.6198,-1.6218,-1.6293,-1.6313,-1.6347,-1.649,-1.6469,-1.6503,-1.6802,-1.9261,-2.0803,-1.9268,-2.0361,-2.1118,-1.9307,-1.7875,-1.7127,-1.7202,-1.7338,-1.746,-1.7534,-1.767,-1.7717,0.0,0.0,0.0,0.0,0.0,-1.7968,-1.7989,-1.7901,-1.7901,-1.7989,-1.8057,-1.8124,-1.8213,-1.8423,-1.8295,-1.8531,-1.8694,-1.8762,-1.8762,-1.8762,-1.8762,-1.8762,-1.8762,-1.8762,-1.8762,-1.8762,-1.8762,-1.8762,-1.8674,-1.8409,-1.8287,-1.7846,-1.7514,-1.7175,-1.7032,-1.6978,-1.7005,-1.7148,-1.7344,-1.7561,-1.7717,-1.7812,-1.7846,-1.7772,-1.7758,-1.7738,-1.765,-1.7582,-1.7548,-1.7616,-1.7405,-1.7195,-1.7188,-1.708,-1.6998,-1.7066,-1.7209,-1.7283,-1.7209,-1.7256,-1.7283,-1.7202,-1.7073,-1.7005,-1.7073,-1.7344,-1.7528,-1.7528,-1.7724,-1.7948,-1.8179,-1.8267,-1.8409,-1.862,-1.8708,-1.8728,-1.8654,-1.8443,-1.8287,-1.8213,-1.9515,-2.1546,-2.4372,-2.7392,-3.0193,-3.3222,-3.4255,-3.4603,-1.6266,-1.6307,-1.6341,-1.6483,-1.6497,-1.649,-1.6558,-1.6544,-1.6571,-1.6761,-1.9261,-2.045,-1.7622,-1.9577,-2.098,-1.8281,-1.7621,-1.7593,-1.8266,-1.7982,-1.765,0.0,-1.765,0.0,-1.7433,-1.7453,0.0,0.0,0.0,0.0,-1.8145,-1.8023,-1.8002,-1.8091,-1.8145,-1.8233,-1.8321,-1.8464,-1.8531,-1.8531,-1.862,-1.8694,-1.8708,-1.8708,-1.8728,-1.8762,-1.8762,-1.8762,-1.8762,-1.8762,-1.8742,-1.8708,-1.8586,-1.8362,-1.8287,-1.7758,-1.7473,-1.7216,-1.7039,-1.6978,-1.7005,-1.7148,-1.7297,-1.7467,-1.7738,-1.7812,-1.7792,-1.7684,-1.7629,-1.7568,-1.7453,-1.7399,-1.7365,-1.7331,-1.7256,-1.7154,-1.7012,-1.6978,-1.6978,-1.6978,-1.7216,-1.7365,-1.7175,-1.7297,-1.7365,-1.7216,-1.7073,-1.6992,-1.7019,-1.7256,-1.7419,-1.7419,-1.7684,-1.7935,-1.8077,-1.8199,-1.8335,-1.8511,-1.864,-1.8708,-1.8708,-1.8464,-1.8301,-1.8267,-2.0859,-2.372,-2.6529,-2.954,-3.2361,-3.5191,-3.4963,-3.467,-1.6266,-1.6307,-1.6341,-1.6483,-1.6422,-1.6402,-1.6666,-1.6619,-1.6605,-1.6897,-1.9253,-2.0304,-1.7608,-1.9291,-2.1162,-2.0704,-1.8783,-1.8102,-2.0783,-1.9267,-1.7875,-1.765,0.0,0.0,-1.7433,-1.7548,0.0,0.0,0.0,0.0,-1.8301,-1.8287,-1.8213,-1.8091,-1.8355,-1.8443,-1.8321,-1.8464,-1.8531,-1.8531,-1.8409,-1.8423,-1.8552,-1.8552,-1.864,-1.8762,-1.8762,-1.8762,0.0,-1.8762,-1.8674,-1.8552,-1.8531,-1.8355,-1.8057,-1.7758,-1.7541,-1.7358,-1.708,-1.6978,-1.7005,-1.7148,-1.7297,-1.7453,-1.7616,-1.767,-1.7663,-1.765,-1.7548,-1.7439,-1.7426,-1.7317,-1.7182,-1.7053,-1.7107,-1.7154,-1.7012,-1.6978,-1.6978,-1.6978,-1.7216,-1.7331,-1.7046,-1.7236,-1.7365,-1.7216,-1.7073,-1.7026,-1.7154,-1.7317,-1.7419,-1.7419,-1.7684,-1.7935,-1.8077,-1.8111,-1.8233,-1.8511,-1.8552,-1.8552,-1.8552,-1.8409,-1.8247,-1.8111,-2.0796,-2.372,-2.6529,-2.954,-3.2361,-3.5191,-3.5164,-3.4857,-1.6293,-1.6374,-1.6476,-1.6619,-1.6619,-1.6632,-1.6842,-1.6768,-1.672,-1.6937,-1.7875,-1.8956,-1.9477,-1.9212,-1.9311,-2.0861,-1.9122,-1.7808,-1.9029,-1.8255,-1.7616,-1.7521,-1.7514,0.0,0.0,0.0,0.0,0.0,0.0,0.0,-1.8464,-1.8287,-1.8199,-1.8233,-1.8247,-1.8287,-1.8321,-1.8375,-1.8409,-1.8409,-1.8355,-1.8389,-1.8531,-1.8531,-1.862,-1.8762,-1.8762,-1.8762,0.0,-1.8762,-1.8728,-1.8654,-1.8477,-1.8267,-1.8057,-1.7758,-1.7555,-1.7405,-1.729,-1.7243,-1.727,-1.7419,-1.7507,-1.7568,-1.7629,-1.7704,-1.7758,-1.767,-1.7541,-1.7419,-1.7419,-1.7304,-1.7175,-1.7121,-1.7087,-1.7046,-1.6992,-1.7046,-1.7107,-1.7107,-1.7351,-1.7494,-1.7283,-1.7344,-1.7365,-1.7216,-1.7073,-1.7005,-1.706,-1.7195,-1.7317,-1.7412,-1.7684,-1.788,-1.7948,-1.8036,-1.8145,-1.8267,-1.8355,-1.8409,-1.8409,-1.8267,-1.8199,-1.8233,-2.2694,-2.5709,-2.6933,-3.1594,-3.4354,-3.5458,-3.5284,-3.4977,-1.6158,-1.6442,-1.6558,-1.6714,-1.6748,-1.6788,-1.6944,-1.6863,-1.6795,-1.6951,-1.706,-1.7721,-1.9477,-1.8405,-1.811,-2.0961,-1.9006,-1.7689,-1.8697,-1.8121,-1.765,-1.7507,0.0,0.0,0.0,0.0,0.0,0.0,0.0,0.0,-1.8477,-1.8233,-1.8145,-1.8247,-1.8199,-1.8199,-1.8247,-1.8247,-1.8247,-1.8247,-1.8213,-1.8287,-1.8464,-1.8464,-1.8586,-1.8762,-1.8762,-1.8762,0.0,-1.8762,-1.8708,-1.8606,-1.8409,-1.8199,-1.7989,-1.7738,-1.7582,-1.748,-1.7385,-1.7385,-1.7433,-1.7494,-1.7575,-1.765,-1.7704,-1.7758,-1.7772,-1.7684,-1.7541,-1.7412,-1.7365,-1.727,-1.7182,-1.7141,-1.7053,-1.6978,-1.6978,-1.706,-1.7141,-1.7182,-1.7405,-1.7534,-1.7378,-1.7392,-1.7351,-1.7161,-1.7046,-1.6978,-1.6978,-1.7148,-1.7304,-1.7405,-1.7684,-1.786,-1.786,-1.7968,-1.8036,-1.8091,-1.8199,-1.8247,-1.8247,-1.8199,-1.8621,-1.9592,-2.4596,-2.7485,-2.8512,-3.3434,-3.5712,-3.5631,-3.5418,-3.5124,-1.6062,-1.6306,-1.6558,-1.6714,-1.6748,-1.6788,-1.6944,-1.6863,-1.6795,-1.6951,-1.6985,-1.6985,-1.6978,-1.6985,-1.786,-2.0928,-1.9006,-1.8323,-2.1267,-1.9498,-1.7812,0.0,0.0,0.0,0.0,0.0,0.0,0.0,0.0,0.0,-1.8321,-1.8179,-1.8091,-1.8091,-1.8233,-1.8247,-1.8091,-1.8091,-1.8091,-1.8091,-1.7935,-1.8023,-1.8321,-1.8321,-1.8477,-1.8762,-1.8762,-1.8762,0.0,-1.8762,-1.8586,-1.8321,-1.8321,-1.8124,-1.7846,-1.7704,-1.765,-1.7602,-1.7297,-1.7297,-1.7399,-1.7243,-1.7399,-1.767,-1.7812,-1.7758,-1.765,-1.765,-1.7541,-1.7385,-1.7236,-1.7195,-1.7154,-1.7019,-1.6985,-1.6978,-1.6978,-1.6985,-1.7026,-1.7168,-1.7317,-1.7372,-1.7222,-1.7317,-1.7317,-1.7026,-1.6985,-1.6978,-1.6978,-1.7236,-1.7419,-1.7419,-1.7684,-1.786,-1.786,-1.786,-1.7935,-1.8077,-1.8091,-1.8091,-1.8091,-1.8233,-1.9578,-2.2498,-2.5548,-2.8743,-3.1633,-3.4733,-3.5912,-3.5631,-3.5631,-3.5311,-1.6326,-1.6386,-1.6686,-1.6734,-1.6829,-1.6917,-1.6971,-1.6944,-1.6924,-1.6971,-1.6978,-1.7601,-1.9462,-1.8222,-1.7889,-2.0881,-1.9197,-1.7566,-1.8683,-1.8121,0.0,-1.7365,0.0,0.0,0.0,0.0,0.0,0.0,0.0,0.0,-1.8179,-1.8111,-1.8091,-1.8091,-1.8036,-1.7989,-1.7935,-1.7935,-1.7935,-1.7935,-1.7989,-1.8124,-1.8321,-1.8423,-1.8565,-1.8762,-1.8762,-1.8762,-1.8762,-1.8762,-1.864,-1.8464,-1.8355,-1.8199,-1.8002,-1.7846,-1.7792,-1.7772,-1.7575,-1.7534,-1.7568,-1.7521,-1.7568,-1.7684,-1.7826,-1.7826,-1.7792,-1.7792,-1.7846,-1.7826,-1.7568,-1.7426,-1.7311,-1.7161,-1.7053,-1.6978,-1.6978,-1.7141,-1.7297,-1.7338,-1.7555,-1.767,-1.7528,-1.746,-1.7351,-1.7154,-1.7039,-1.6978,-1.6978,-1.706,-1.7195,-1.7399,-1.75,-1.765,-1.7846,-1.786,-1.788,-1.7935,-1.8036,-1.8091,-1.8091,-1.8233,-1.9687,-2.2861,-2.5824,-2.9064,-3.2138,-3.49,-3.6112,-3.5631,-3.5431,-3.5124,-1.6632,-1.668,-1.6748,-1.6748,-1.687,-1.6992,-1.7046,-1.7019,-1.6998,-1.7053,-1.7019,-1.7601,-1.9253,-1.8222,-1.7685,-1.9607,-1.8352,-1.7365,-1.7616,-1.7704,0.0,-1.7392,0.0,0.0,0.0,0.0,0.0,0.0,0.0,0.0,-1.8091,-1.8036,-1.8002,-1.8002,-1.7914,-1.786,-1.786,-1.786,-1.786,-1.786,-1.8023,-1.8179,-1.8321,-1.8464,-1.862,-1.8762,-1.8762,-1.8762,0.0,-1.8762,-1.864,-1.8443,-1.8355,-1.8199,-1.7989,-1.7901,-1.786,-1.7826,-1.7629,-1.7602,-1.7629,-1.7514,-1.7589,-1.7738,-1.7826,-1.7901,-1.7968,-1.8023,-1.8057,-1.8036,-1.7792,-1.7575,-1.7385,-1.7229,-1.7087,-1.6978,-1.6978,-1.7168,-1.7351,-1.7412,-1.7616,-1.7758,-1.7663,-1.7521,-1.7365,-1.7216,-1.7073,-1.6978,-1.6978,-1.7026,-1.7154,-1.7392,-1.7473,-1.7602,-1.7846,-1.786,-1.786,-1.786,-1.8002,-1.8538,-1.964,-2.008,-2.2252,-2.6398,-2.8498,-3.0891,-3.4185,-3.5728,-3.6259,-3.5792,-3.5498,-3.5204,0.0,-1.6761,-1.6768,-1.6768,-1.6883,-1.7032,-1.7161,-1.71,0.0,-1.7182,-1.7093,-1.6998,-1.6998,-1.6985,-1.7026,-1.7168,-1.7317,-1.7467,-1.7609,-1.7738,0.0,0.0,0.0,0.0,0.0,0.0,0.0,0.0,0.0,0.0,-1.8077,-1.7935,-1.786,-1.786,-1.786,-1.786,-1.786,-1.786,-1.786,-1.786,-1.8023,-1.8179,-1.8321,-1.8464,-1.862,0.0,-1.8762,-1.8762,-1.8762,-1.8762,-1.8586,-1.8321,-1.8321,-1.8124,-1.786,-1.786,-1.786,-1.7826,-1.7521,-1.7514,-1.7582,-1.729,-1.748,-1.7846,-1.786,-1.7989,-1.8145,-1.8287,-1.8213,-1.8077,-1.7901,-1.765,-1.7385,-1.7229,-1.7087,-1.6978,-1.6978,-1.71,-1.7249,-1.7392,-1.7555,-1.7663,-1.7663,-1.7528,-1.7372,-1.7229,-1.708,-1.6978,-1.6978,-1.7107,-1.7249,-1.7405,-1.7555,-1.7704,-1.7846,-1.786,-1.786,-1.786,-1.8023,-1.9425,-2.2498,-2.2861,-2.5967,-3.2044,-3.2502,-3.4185,-3.6941,-3.6647,-3.6366,-3.6099,-3.5778,-3.5485,-1.6686,0.0,-1.6924,-1.6924,-1.7032,-1.7154,0.0,-1.7256,-1.7324,-1.7358,-1.7249,-1.7141,-1.7141,-1.7053,-1.7026,-1.7168,-1.7317,-1.7433,-1.7467,-1.7399,0.0,-1.7623,0.0,0.0,0.0,0.0,0.0,0.0,0.0,-1.8002,-1.7914,-1.788,-1.786,-1.786,-1.786,-1.786,-1.786,-1.786,-1.786,-1.786,-1.8023,-1.8179,-1.8321,-1.8464,-1.862,-1.8762,-1.8762,-1.8762,-1.8762,-1.8762,-1.8586,-1.8321,-1.8321,-1.8124,-1.786,-1.786,-1.786,-1.7826,-1.7521,-1.7446,-1.7446,-1.7256,-1.7344,-1.7589,-1.7935,-1.8213,-1.8409,-1.8335,-1.8301,-1.8199,-1.7935,-1.765,-1.7385,-1.7229,-1.7087,-1.6978,-1.6978,-1.7182,-1.7378,-1.7412,-1.7629,-1.7812,-1.7812,-1.7595,-1.7405,-1.7372,-1.7148,-1.6978,-1.6978,-1.7107,-1.7249,-1.7405,-1.7555,-1.7704,-1.7846,-1.786,-1.786,-1.786,-1.8111,-1.9592,-2.2701,-2.3056,-2.6196,-3.2314,-3.463,-3.6249,-3.6941,-3.6647,-3.6473,-3.6393,-3.5872,-3.5591,-1.6661,-1.691,-1.689,-1.6965,-1.7087,-1.7209,-1.7283,-1.7358,-1.7439,-1.7507,-1.7405,-1.7277,-1.7202,-1.7188,-1.7182,-1.7188,-1.7317,-1.7446,-1.7514,-1.7453,-1.746,-1.7629,-1.75,0.0,0.0,0.0,0.0,0.0,0.0,-1.7948,-1.786,-1.786,-1.786,-1.786,-1.786,-1.7901,-1.7968,-1.7901,-1.7935,-1.8077,-1.8158,-1.8267,-1.8423,-1.8565,-1.8694,-1.8762,-1.8762,-1.8762,-1.8762,-1.8762,-1.8586,-1.8321,-1.8389,-1.8199,-1.786,-1.7935,-1.7914,-1.7826,-1.7521,-1.7331,-1.7209,-1.7121,-1.7243,-1.7467,-1.7704,-1.8036,-1.8321,-1.8321,-1.8213,-1.8057,-1.7826,-1.7541,-1.7297,-1.7209,-1.7087,-1.6998,-1.7066,-1.7256,-1.7439,-1.7514,-1.7704,-1.786,-1.786,-1.7616,-1.7419,-1.7419,-1.7168,-1.6978,-1.6978,-1.7107,-1.7249,-1.7405,-1.7555,-1.7704,-1.7846,-1.786,-1.7901,-1.7968,-1.8199,-2.035,-2.4891,-2.5185,-2.8327,-3.4432,-3.6015,-3.6941,-3.6941,-3.6794,-3.6647,-3.65,-3.6046,-3.5765,-1.6835,-1.6937,-1.6802,-1.6998,-1.7141,-1.727,-1.7419,-1.7473,-1.7528,-1.765,-1.7541,-1.7385,-1.7283,-1.7331,-1.7351,-1.7243,-1.7358,-1.75,-1.7629,-1.7629,-1.7623,-1.765,-1.7629,0.0,0.0,0.0,0.0,0.0,0.0,-1.786,-1.786,-1.786,-1.786,-1.786,-1.786,-1.7948,-1.8124,-1.7968,-1.8036,-1.8321,-1.8321,-1.8389,-1.8531,-1.8674,-1.8742,-1.8762,0.0,0.0,-1.8762,-1.8762,-1.8586,-1.8335,-1.8464,-1.8233,-1.788,-1.8002,-1.7968,-1.7826,-1.7521,-1.7243,-1.7012,-1.7012,-1.7182,-1.7392,-1.7439,-1.7684,-1.7989,-1.8145,-1.8023,-1.7826,-1.7629,-1.7385,-1.7188,-1.7168,-1.7066,-1.7012,-1.7134,-1.7297,-1.746,-1.7589,-1.7758,-1.786,-1.786,-1.7616,-1.7419,-1.7419,-1.7168,-1.6985,-1.7012,-1.7141,-1.7283,-1.7439,-1.7589,-1.7738,-1.7846,-1.786,-1.7935,-1.8111,-1.8247,-2.1082,-2.7336,-2.8676,-3.1735,-3.6706,-3.6941,-3.6941,-3.6941,-3.6941,-3.6794,-3.658,-3.6273,-3.5979,-1.6768,-1.6788,-1.7065,-1.7249,-1.7372,-1.7426,-1.7582,-1.7704,-1.7812,-1.7826,-1.7609,-1.7453,-1.7561,-1.7385,-1.7263,-1.7365,-1.7514,-1.7623,0.0,0.0,-1.75,-1.7629,0.0,0.0,0.0,0.0,0.0,0.0,0.0,-1.786,-1.786,-1.786,-1.786,-1.786,-1.786,-1.8002,-1.8287,-1.8124,-1.8145,-1.8321,-1.8321,-1.8389,-1.8531,-1.8552,-1.864,-1.8762,0.0,-1.8762,-1.8762,-1.8762,-1.8586,-1.8321,-1.8335,-1.8145,-1.786,-1.7901,-1.788,-1.7826,-1.7521,-1.7304,-1.7161,-1.7161,-1.7188,-1.7277,-1.7534,-1.748,-1.7358,-1.7514,-1.7704,-1.7772,-1.7365,-1.7229,-1.7161,-1.7039,-1.6998,-1.6985,-1.7012,-1.7229,-1.7426,-1.7453,-1.767,-1.786,-1.786,-1.7616,-1.7419,-1.7419,-1.7168,-1.7026,-1.7148,-1.729,-1.7446,-1.7595,-1.7738,-1.7846,-1.786,-1.786,-1.7989,-1.8267,-1.8301,-2.1136,-2.7576,-3.2832,-3.6041,-3.6941,-3.6941,-3.6941,-3.6941,-3.6941,-3.6901,-3.6861,-3.658,-3.6286,-1.7032,-1.7053,-1.71,-1.7548,-1.7541,-1.746,-1.7616,-1.7758,-1.786,-1.786,-1.7684,-1.7561,-1.7629,-1.7467,-1.7338,-1.7405,0.0,-1.7704,0.0,0.0,0.0,0.0,0.0,0.0,0.0,0.0,0.0,0.0,-1.786,-1.786,-1.786,-1.786,-1.786,-1.786,-1.786,-1.8002,-1.8321,-1.8247,-1.8335,-1.8552,-1.8477,-1.8511,-1.8654,-1.8654,-1.8694,-1.8762,0.0,-1.8762,-1.8762,-1.8762,-1.8586,-1.8335,-1.8498,-1.8267,-1.786,-1.786,-1.7758,-1.7616,-1.7561,-1.7338,-1.7087,-1.7168,-1.7195,-1.7202,-1.727,-1.7304,-1.7297,-1.7209,-1.7338,-1.7433,-1.7154,-1.708,-1.706,-1.6998,-1.6978,-1.7026,-1.7182,-1.7324,-1.7467,-1.7629,-1.7772,-1.786,-1.786,-1.7616,-1.7419,-1.7419,-1.7236,-1.7121,-1.7182,-1.7399,-1.7568,-1.765,-1.7772,-1.786,-1.786,-1.7935,-1.8077,-1.8301,-2.1613,-2.4732,-2.7863,-3.3763,-3.6941,-3.6941,-3.6941,-3.6941,-3.6941,-3.6941,-3.6941,-3.6941,-3.6647,-3.6353,-1.7429,-1.7256,-1.7277,-1.7623,-1.7589,-1.7514,-1.767,-1.7792,-1.786,-1.786,-1.7758,-1.765,-1.765,-1.7555,0.0,-1.7521,-1.7724,0.0,0.0,0.0,0.0,0.0,0.0,0.0,0.0,0.0,-1.786,-1.786,-1.786,-1.786,-1.786,-1.786,-1.786,-1.786,-1.786,-1.8002,-1.8321,-1.8321,-1.8464,-1.8762,-1.864,-1.8654,-1.8762,-1.8762,-1.8762,-1.8762,-1.8762,-1.8762,-1.8762,-1.8728,-1.8552,-1.8335,-1.8565,-1.8375,-1.7968,-1.7935,-1.7724,-1.7487,-1.7568,-1.7344,-1.7046,-1.7154,-1.7195,-1.7175,-1.7066,-1.7168,-1.727,-1.7046,-1.706,-1.7121,-1.7012,-1.6978,-1.6978,-1.6978,-1.6978,-1.7053,-1.7311,-1.7399,-1.75,-1.7758,-1.7846,-1.786,-1.786,-1.765,-1.7473,-1.7473,-1.7344,-1.7256,-1.7297,-1.75,-1.7663,-1.7704,-1.7792,-1.788,-1.7914,-1.8023,-1.8397,-1.9468,-2.4732,-2.8317,-2.8996,-3.3986,-3.6941,-3.6941,-3.6941,-3.6941,-3.6941,-3.6941,-3.6941,-3.6941,-3.6727,-3.6393,-1.6965,-1.71,-1.7202,-1.7236,-1.7439,-1.767,-1.7812,-1.786,-1.786,-1.786,-1.7758,-1.765,-1.765,-1.7629,-1.7684,-1.7812,-1.7846,0.0,0.0,0.0,0.0,0.0,0.0,0.0,0.0,-1.786,-1.786,-1.786,-1.786,-1.786,-1.786,-1.786,-1.786,-1.786,-1.786,-1.8002,-1.8321,-1.8321,-1.8464,-1.8762,-1.8742,-1.8742,-1.8762,-1.8762,-1.8762,-1.8762,-1.8762,-1.8762,-1.8742,-1.8599,-1.8464,-1.8321,-1.8335,-1.8321,-1.8267,-1.8124,-1.788,-1.7616,-1.748,-1.7324,-1.7175,-1.7188,-1.7195,-1.7188,-1.7182,-1.71,-1.7005,-1.6985,-1.6985,-1.6992,-1.6985,-1.6978,-1.6978,-1.6978,-1.6978,-1.7026,-1.7175,-1.7317,-1.7467,-1.7629,-1.7772,-1.786,-1.786,-1.7738,-1.7629,-1.7629,-1.75,-1.7453,-1.7595,-1.7629,-1.7704,-1.7826,-1.786,-1.7914,-1.8057,-1.8091,-1.9324,-2.2536,-2.5931,-2.9212,-3.1924,-3.5126,-3.6941,-3.6941,-3.6941,-3.6941,-3.6941,-3.6941,-3.6941,-3.6941,-3.6901,-3.6607,-1.7046,-1.7222,-1.7358,-1.7453,-1.7629,-1.7772,-1.7738,-1.7738,-1.7772,-1.7968,-1.7806,-1.7616,-1.7521,-1.7582,-1.7663,-1.7717,-1.7812,0.0,0.0,0.0,0.0,0.0,0.0,0.0,-1.7846,-1.786,-1.786,-1.786,-1.786,-1.786,-1.786,-1.786,-1.786,-1.786,-1.786,-1.8002,-1.8321,-1.8321,-1.8464,-1.8762,-1.8762,-1.8708,-1.862,-1.862,-1.862,-1.862,-1.862,-1.8674,-1.8762,-1.8694,-1.8531,-1.8301,-1.8213,-1.8233,-1.8301,-1.8145,-1.7846,-1.7528,-1.765,-1.7473,-1.7222,-1.7412,-1.7344,-1.7195,-1.7195,-1.7093,-1.6978,-1.6978,-1.6978,-1.6978,-1.6978,-1.6978,-1.6978,-1.6978,-1.6978,-1.7019,-1.7161,-1.7311,-1.7467,-1.7616,-1.7758,-1.786,-1.786,-1.7738,-1.765,-1.765,-1.7602,-1.7582,-1.765,-1.7717,-1.7812,-1.786,-1.7948,-1.8077,-1.8213,-1.8321,-2.0471,-2.5695,-2.7143,-2.9222,-3.2373,-3.5335,-3.6941,-3.6941,-3.6941,-3.6941,-3.6941,-3.6941,-3.6941,-3.6941,-3.6754,-3.6473,-1.7127,-1.7338,-1.7507,-1.7561,-1.7684,-1.7772,-1.767,-1.7717,-1.7846,-1.8057,-1.7806,-1.7561,-1.75,-1.7541,0.0,0.0,0.0,0.0,0.0,0.0,0.0,0.0,0.0,-1.7758,-1.7846,-1.786,-1.786,-1.786,-1.786,-1.786,-1.786,-1.786,-1.786,-1.786,-1.786,-1.8002,-1.8321,-1.8321,-1.8464,-1.8762,-1.8762,-1.8674,-1.8531,-1.8531,-1.8511,-1.8464,-1.8464,-1.8531,-1.862,-1.8565,-1.843,-1.8247,-1.8233,-1.8267,-1.8301,-1.8199,-1.7914,-1.7582,-1.7738,-1.7561,-1.729,-1.7453,-1.7365,-1.7182,-1.7141,-1.706,-1.6978,-1.6978,-1.6978,-1.6978,-1.6978,-1.6978,-1.6978,-1.6978,-1.6978,-1.7032,-1.7222,-1.7344,-1.748,-1.7684,-1.7792,-1.786,-1.786,-1.7772,-1.7717,-1.7717,-1.7717,-1.7717,-1.7717,-1.7806,-1.786,-1.786,-1.7948,-1.8111,-1.8301,-1.9313,-2.2147,-2.7616,-2.8759,-3.0576,-3.3763,-3.5806,-3.6941,-3.6941,-3.6941,-3.6941,-3.6941,-3.6941,-3.6901,-3.6794,-3.6607,-3.6299,-1.7154,-1.7412,-1.7609,-1.746,-1.7541,-1.765,-1.765,-1.788,-1.8091,-1.8091,-1.7738,-1.7473,-1.7623,-1.7528,0.0,0.0,0.0,0.0,-1.767,-1.7772,-1.7812,-1.7663,-1.7772,-1.786,-1.786,-1.786,-1.786,-1.786,-1.786,-1.786,-1.786,-1.786,-1.786,-1.786,-1.786,-1.8002,-1.8321,-1.8321,-1.8464,-1.8762,-1.8762,-1.8674,-1.8531,-1.8531,-1.8443,-1.8321,-1.8321,-1.8321,-1.8301,-1.8158,-1.8091,-1.8124,-1.8409,-1.8443,-1.8321,-1.8321,-1.8124,-1.7846,-1.7704,-1.7548,-1.7399,-1.7249,-1.7195,-1.7168,-1.7026,-1.6985,-1.6978,-1.6978,-1.6978,-1.6978,-1.6978,-1.6978,-1.6978,-1.6978,-1.6978,-1.706,-1.7358,-1.7419,-1.7507,-1.7812,-1.786,-1.786,-1.786,-1.786,-1.786,-1.786,-1.786,-1.786,-1.786,-1.786,-1.786,-1.7867,-1.7867,-1.7989,-1.8287,-2.1205,-2.4263,-2.7833,-3.0812,-3.3738,-3.6706,-3.6941,-3.6941,-3.6941,-3.6941,-3.6941,-3.6941,-3.6941,-3.6794,-3.65,-3.65,-3.6193,-1.7182,-1.7338,-1.75,-1.7568,-1.7684,-1.7826,-1.7935,-1.7948,-1.7968,-1.8077,-1.7901,-1.7738,-1.7792,-1.7684,0.0,0.0,0.0,0.0,-1.7684,-1.786,-1.7935,-1.7684,-1.7772,-1.786,-1.786,-1.786,-1.786,-1.786,-1.786,-1.786,-1.786,-1.786,-1.786,-1.786,-1.786,-1.8002,-1.8321,-1.8321,-1.8464,-1.8762,-1.8654,-1.8531,-1.8389,-1.8389,-1.8301,-1.8158,-1.8267,-1.8321,-1.8301,-1.8158,-1.8213,-1.8389,-1.8267,-1.8199,-1.8158,-1.8158,-1.7968,-1.7717,-1.7772,-1.7704,-1.7589,-1.765,-1.7521,-1.7344,-1.7304,-1.7148,-1.6978,-1.6978,-1.6978,-1.6978,-1.6978,-1.6978,-1.6978,-1.6978,-1.6978,-1.7032,-1.7222,-1.7344,-1.748,-1.767,-1.7792,-1.786,-1.786,-1.786,-1.786,-1.786,-1.786,-1.786,-1.786,-1.786,-1.8736,-2.0694,-2.0905,-2.1661,-2.409,-2.5104,-2.7297,-3.0522,-3.182,-3.3738,-3.6706,-3.6941,-3.6941,-3.6941,-3.6941,-3.6941,-3.6941,-3.6941,-3.6794,-3.65,-3.6299,-3.5992,-1.7338,-1.7439,-1.7548,-1.7704,-1.7792,-1.7901,-1.8057,-1.8023,-1.7968,-1.7989,-1.788,-1.7772,-1.7772,-1.7704,0.0,0.0,0.0,0.0,-1.7758,-1.788,-1.7935,-1.7758,-1.7812,-1.786,-1.786,-1.786,-1.786,-1.786,-1.786,-1.786,-1.786,-1.786,-1.786,-1.786,-1.786,-1.8002,-1.8321,-1.8321,-1.8464,-1.8762,-1.8599,-1.8464,-1.8321,-1.8247,-1.8145,-1.8002,-1.8158,-1.8267,-1.8321,-1.8213,-1.8247,-1.8335,-1.8233,-1.8111,-1.8002,-1.8077,-1.7935,-1.7738,-1.7826,-1.7812,-1.7717,-1.7704,-1.7568,-1.7399,-1.7283,-1.7121,-1.6978,-1.6978,-1.6978,-1.6978,-1.6978,-1.6978,-1.6992,-1.7053,-1.7066,-1.7121,-1.7331,-1.7446,-1.7555,-1.7704,-1.7812,-1.786,-1.786,-1.786,-1.786,-1.786,-1.786,-1.786,-1.786,-1.786,-1.8928,-2.1682,-2.1942,-2.3337,-2.6286,-2.782,-2.9613,-3.1764,-3.3284,-3.4777,-3.6927,-3.6941,-3.6941,-3.6941,-3.6941,-3.6941,-3.6941,-3.6834,-3.662,-3.6326,-3.6032,-3.5738,-1.7568,-1.765,-1.7684,-1.7826,-1.786,-1.7901,-1.8036,-1.8077,-1.8036,-1.7914,-1.7772,-1.767,-1.767,-1.767,-1.7717,0.0,0.0,-1.788,-1.786,-1.788,-1.788,-1.7846,-1.786,-1.786,-1.786,-1.786,-1.786,-1.786,-1.786,-1.786,-1.786,-1.788,-1.788,-1.786,-1.788,-1.8023,-1.8321,-1.8321,-1.8464,-1.8762,-1.8586,-1.8443,-1.8321,-1.8158,-1.8023,-1.7901,-1.8036,-1.8199,-1.8335,-1.8301,-1.8233,-1.8124,-1.8233,-1.8111,-1.788,-1.8023,-1.7989,-1.786,-1.786,-1.786,-1.7812,-1.7534,-1.7433,-1.7365,-1.7087,-1.6992,-1.6978,-1.6978,-1.6978,-1.6978,-1.6978,-1.6978,-1.7019,-1.7175,-1.7202,-1.7277,-1.7582,-1.765,-1.7684,-1.7826,-1.786,-1.786,-1.786,-1.786,-1.786,-1.786,-1.786,-1.786,-1.786,-1.786,-1.8892,-2.1957,-2.2284,-2.3665,-2.6694,-2.972,-3.1603,-3.2356,-3.4887,-3.6647,-3.6941,-3.6941,-3.6941,-3.6941,-3.6941,-3.6941,-3.6901,-3.6647,-3.634,-3.6019,-3.5752,-3.5471,-1.7595,-1.765,-1.7684,-1.7826,-1.786,-1.786,-1.7901,-1.7914,-1.7935,-1.8023,-1.7914,-1.7812,-1.7812,-1.7812,-1.786,-1.8023,-1.8036,-1.8002,-1.788,-1.7968,-1.7948,-1.7717,-1.7792,-1.786,-1.786,-1.786,-1.786,-1.786,-1.786,-1.786,-1.786,-1.7968,-1.7989,-1.786,-1.7989,-1.8124,-1.8321,-1.8321,-1.8464,-1.8762,-1.8498,-1.8355,-1.8321,-1.8158,-1.8077,-1.8057,-1.8199,-1.8355,-1.8464,-1.8233,-1.8199,-1.8247,-1.8036,-1.7914,-1.786,-1.7901,-1.7901,-1.786,-1.786,-1.786,-1.7826,-1.765,-1.7521,-1.7385,-1.7202,-1.7066,-1.6978,-1.6978,-1.6978,-1.6978,-1.6978,-1.6978,-1.7046,-1.7311,-1.7283,-1.7277,-1.7582,-1.765,-1.7684,-1.7826,-1.786,-1.786,-1.786,-1.786,-1.786,-1.786,-1.786,-1.786,-1.786,-1.786,-1.9762,-2.4728,-2.5021,-2.6859,-3.2162,-3.3484,-3.4319,-3.4893,-3.5811,-3.6647,-3.6941,-3.6941,-3.6941,-3.6941,-3.6941,-3.6834,-3.6607,-3.654,-3.6233,-3.5725,-3.5658,-3.5471,-1.7589,-1.7595,-1.7575,-1.7717,-1.7812,-1.786,-1.786,-1.786,-1.788,-1.7968,-1.7914,-1.786,-1.786,-1.7914,-1.8002,-1.8077,-1.8158,-1.8179,-1.8091,-1.8091,-1.8036,-1.788,-1.786,-1.786,-1.786,-1.786,-1.786,-1.786,-1.786,-1.786,-1.786,-1.7935,-1.7948,-1.786,-1.8002,-1.8158,-1.8321,-1.8389,-1.8531,-1.8762,-1.8531,-1.8355,-1.8213,-1.8124,-1.8091,-1.8091,-1.8247,-1.8409,-1.8511,-1.8213,-1.8179,-1.8287,-1.7989,-1.786,-1.786,-1.786,-1.786,-1.786,-1.786,-1.786,-1.7826,-1.7609,-1.7487,-1.7378,-1.7161,-1.7039,-1.6978,-1.6978,-1.6978,-1.6978,-1.6978,-1.7032,-1.7141,-1.7365,-1.7358,-1.7385,-1.7684,-1.7758,-1.7772,-1.7846,-1.786,-1.786,-1.786,-1.786,-1.786,-1.786,-1.786,-1.786,-1.786,-1.917,-2.1489,-2.5584,-2.706,-2.9446,-3.3897,-3.4456,-3.4803,-3.5378,-3.5979,-3.6433,-3.6727,-3.6861,-3.6861,-3.6727,-3.658,-3.6433,-3.6299,-3.6153,-3.5925,-3.5631,-3.5485,-3.5338,-1.7528,-1.7541,-1.7494,-1.765,-1.7772,-1.786,-1.7901,-1.7901,-1.7914,-1.7935,-1.7901,-1.786,-1.7901,-1.8002,-1.8111,-1.8158,-1.8247,-1.8321,-1.8355,-1.8199,-1.8091,-1.8091,-1.7948,-1.786,-1.786,-1.786,-1.786,-1.786,-1.786,-1.788,-1.7901,-1.7901,-1.7901,-1.7901,-1.8023,-1.8158,-1.8321,-1.8443,-1.8586,-1.8762,-1.8586,-1.8355,-1.8091,-1.8091,-1.8077,-1.8057,-1.8267,-1.8389,-1.8443,-1.8213,-1.8199,-1.8247,-1.7968,-1.786,-1.786,-1.786,-1.786,-1.786,-1.786,-1.786,-1.7812,-1.7514,-1.7419,-1.7365,-1.7073,-1.6978,-1.6978,-1.6978,-1.6978,-1.6978,-1.6978,-1.7066,-1.7202,-1.7378,-1.7419,-1.75,-1.7792,-1.786,-1.786,-1.786,-1.786,-1.786,-1.786,-1.786,-1.786,-1.786,-1.786,-1.8088,-1.8515,-2.0694,-2.3421,-2.6378,-2.8722,-3.1097,-3.3957,-3.4255,-3.4549,-3.5084,-3.5725,-3.6206,-3.65,-3.6727,-3.6727,-3.6433,-3.6246,-3.6126,-3.6072,-3.5778,-3.5605,-3.5551,-3.5311,-3.5191,-1.7815,-1.7758,-1.765,-1.7792,-1.7846,-1.7901,-1.8036,-1.8057,-1.8091,0.0,-1.8057,-1.7901,-1.8036,-1.8077,-1.8179,-1.8423,-1.8389,-1.8355,-1.8477,-1.8267,-1.8091,-1.8091,-1.7948,-1.786,-1.786,-1.786,-1.786,-1.786,-1.786,-1.7914,-1.8057,-1.8057,-1.8057,-1.8057,-1.8077,-1.8158,-1.8321,-1.8335,-1.8477,-1.8762,-1.8477,-1.8247,-1.8091,-1.8091,-1.8023,-1.7914,-1.8321,-1.8375,-1.8158,-1.8247,-1.8213,-1.8111,-1.7935,-1.786,-1.786,-1.786,-1.786,-1.786,-1.786,-1.786,-1.7812,-1.7514,-1.7419,-1.7365,-1.7073,-1.6978,-1.6978,-1.6978,-1.6978,-1.6978,-1.6978,-1.6992,-1.708,-1.7358,-1.7419,-1.75,-1.7792,-1.786,-1.786,-1.786,-1.786,-1.786,-1.786,-1.786,-1.786,-1.786,-1.786,-1.8743,-2.1335,-2.2008,-2.4007,-2.891,-2.9886,-3.0939,-3.3373,-3.4015,-3.4469,-3.4803,-3.5605,-3.6206,-3.65,-3.654,-3.6433,-3.6139,-3.634,-3.6326,-3.6072,-3.5778,-3.5498,-3.5257,-3.5217,-3.5191,-1.7435,-1.7467,-1.765,-1.7623,-1.7738,-1.788,-1.7948,-1.8023,-1.8111,-1.8179,-1.8158,-1.8145,-1.8213,-1.8287,-1.8375,-1.8511,-1.8552,-1.8586,-1.8654,-1.8409,-1.8213,-1.8213,-1.8002,-1.786,-1.786,-1.786,-1.7901,-1.7989,-1.7914,-1.7968,-1.8213,-1.8057,-1.8036,-1.8213,-1.8213,-1.8287,-1.8443,-1.8531,-1.864,-1.8762,-1.8552,-1.8355,-1.8213,-1.8124,-1.8002,-1.788,-1.8165,-1.8213,-1.8091,-1.8077,-1.8077,-1.8077,-1.7914,-1.786,-1.786,-1.786,-1.786,-1.786,-1.786,-1.786,-1.7812,-1.7514,-1.7419,-1.7365,-1.7073,-1.6978,-1.6978,-1.6978,-1.6978,-1.6978,-1.6978,-1.7107,-1.7263,-1.7392,-1.7548,-1.7704,-1.7826,-1.786,-1.786,-1.786,-1.786,-1.786,-1.786,-1.786,-1.786,-1.786,-1.9162,-2.0701,-2.1983,-2.5014,-2.7963,-3.0317,-3.1733,-3.2801,-3.4175,-3.4269,-3.4523,-3.4977,-3.5672,-3.6126,-3.6259,-3.6433,-3.6366,-3.6086,-3.6032,-3.5872,-3.5578,-3.5444,-3.5324,-3.5191,-3.5191,-3.5191,-1.7121,-1.7385,-1.7575,-1.75,-1.767,-1.788,-1.7914,-1.8036,-1.8158,0.0,-1.8301,-1.8375,-1.8375,-1.8423,-1.8498,-1.8586,-1.8654,-1.8708,-1.8762,-1.8511,-1.8321,-1.8321,-1.8057,-1.786,-1.786,-1.786,-1.7935,-1.8077,-1.7989,-1.8057,-1.8355,-1.8124,-1.8111,-1.8375,-1.8335,-1.8389,-1.8531,-1.8694,-1.8762,-1.8762,-1.8599,-1.8464,-1.8321,-1.8158,-1.8002,-1.788,-1.8077,-1.8111,-1.8036,-1.7989,-1.8002,-1.8023,-1.7914,-1.786,-1.786,-1.786,-1.786,-1.786,-1.786,-1.786,-1.7812,-1.7514,-1.7419,-1.7365,-1.7073,-1.6978,-1.6978,-1.6978,-1.6978,-1.6978,-1.6978,-1.7168,-1.7372,-1.7412,-1.7616,-1.7826,-1.786,-1.786,-1.786,-1.786,-1.786,-1.786,-1.786,-1.786,-1.8074,-1.8942,-2.0921,-2.2656,-2.4155,-2.8253,-3.1225,-3.1741,-3.3291,-3.4376,-3.4536,-3.4402,-3.4536,-3.5057,-3.5712,-3.6072,-3.6072,-3.6353,-3.6366,-3.6086,-3.5778,-3.5525,-3.5311,-3.5231,-3.5191,-3.5191,-3.5191,-3.5151,-1.7154,-1.7532,-1.7689,-1.7602,-1.7758,-1.7901,-1.8036,0.0,-1.8335,-1.8477,-1.8511,-1.8511,-1.8511,-1.8409,-1.8423,-1.8708,-1.864,-1.8599,-1.8742,-1.8511,-1.8321,-1.8321,-1.8057,-1.786,-1.786,-1.786,-1.7935,-1.8077,-1.8091,-1.8213,-1.8498,-1.8375,-1.8375,-1.8511,-1.8389,-1.8389,-1.8531,-1.8694,-1.8762,-1.8762,-1.8599,-1.8464,-1.8321,-1.8158,-1.8002,-1.788,-1.8179,-1.8145,-1.7901,-1.8179,-1.8124,-1.788,-1.786,-1.786,-1.786,-1.786,-1.786,-1.786,-1.786,-1.786,-1.7812,-1.7514,-1.7419,-1.7365,-1.7073,-1.6978,-1.6978,-1.6978,-1.6978,-1.6978,-1.6978,-1.7093,-1.7243,-1.7385,-1.7541,-1.7704,-1.7826,-1.786,-1.786,-1.786,-1.786,-1.786,-1.786,-1.786,-1.8743,-2.1571,-2.221,-2.4155,-2.9765,-3.0621,-3.1729,-3.3783,-3.413,-3.4215,-3.3961,-3.4175,-3.4456,-3.4763,-3.5591,-3.6072,-3.6072,-3.6353,-3.6366,-3.6086,-3.5778,-3.5618,-3.5605,-3.5324,-3.5191,-3.5191,-3.5191,-3.5044,-1.6992,-1.7236,-1.7433,-1.7487,-1.7684,-1.788,-1.7935,-1.8145,-1.8335,-1.8389,-1.8552,-1.8654,-1.8552,-1.8498,-1.8498,-1.8599,-1.8654,-1.8694,-1.8762,-1.8586,-1.8423,-1.8335,-1.8145,-1.7968,-1.788,-1.7948,-1.8077,-1.8233,-1.8233,-1.8375,-1.8654,-1.8443,-1.8423,-1.8674,-1.8531,-1.8531,-1.8674,-1.8728,-1.8762,-1.8762,-1.8599,-1.8464,-1.8321,-1.8158,-1.8002,-1.788,-1.8091,-1.8057,-1.786,-1.7989,-1.7968,-1.786,-1.786,-1.786,-1.786,-1.786,-1.786,-1.786,-1.786,-1.786,-1.7812,-1.7514,-1.7419,-1.7365,-1.7073,-1.6978,-1.6978,-1.6978,-1.6978,-1.6978,-1.6978,-1.7161,-1.7399,-1.765,-1.7738,-1.7792,-1.7846,-1.786,-1.786,-1.786,-1.786,-1.8508,-2.0262,-2.0694,-2.1554,-2.4589,-2.6529,-2.8468,-3.0621,-3.2586,-3.3952,-3.4643,-3.4429,-3.4349,-3.4442,-3.4376,-3.4603,-3.5271,-3.5792,-3.5992,-3.5792,-3.6072,-3.6006,-3.5525,-3.5404,-3.5351,-3.5351,-3.5244,-3.5191,-3.5191,-3.5191,-3.5044,-1.6924,-1.7195,-1.7419,-1.7419,-1.7684,-1.7935,-1.788,-1.8145,-1.8375,-1.8335,-1.8511,-1.8654,-1.8552,-1.8531,-1.8531,-1.8531,-1.862,-1.8708,-1.8762,-1.862,-1.8477,-1.8335,-1.8179,-1.8036,-1.788,-1.8002,-1.8158,-1.8301,-1.8375,0.0,-1.8742,-1.8565,-1.8552,-1.8762,-1.8654,-1.8654,-1.8762,-1.8762,-1.8742,-1.8694,-1.8586,-1.8423,-1.8233,-1.8145,-1.8002,-1.786,-1.7968,-1.7948,-1.786,-1.7914,-1.7914,-1.786,-1.786,-1.786,-1.786,-1.786,-1.786,-1.786,-1.786,-1.7826,-1.7758,-1.75,-1.7385,-1.7297,-1.7053,-1.6978,-1.6978,-1.6978,-1.6978,-1.6978,-1.6978,-1.7202,-1.7494,-1.7792,-1.786,-1.8074,-1.9177,-1.8515,-1.8295,-1.9177,-1.9383,-2.0262,-2.3075,-2.3729,-2.4589,-2.7607,-2.954,-3.1272,-3.2148,-3.4017,-3.4937,-3.4643,-3.4349,-3.4295,-3.4589,-3.4429,-3.4656,-3.5431,-3.5765,-3.5832,-3.5631,-3.5819,-3.5738,-3.5351,-3.5244,-3.5191,-3.5191,-3.5191,-3.5191,-3.5191,-3.5191,-3.499,0.0,0.0,0.0,-1.7412,-1.7758,-1.8036,-1.7901,0.0,-1.8477,-1.8355,-1.8423,-1.8531,-1.8531,-1.8531,-1.8531,-1.8531,-1.8531,-1.8586,-1.8742,-1.864,-1.8477,-1.8335,-1.8199,-1.8036,-1.7901,-1.8023,-1.8165,-1.8321,-1.8464,-1.8599,-1.8762,-1.8762,-1.8762,-1.8762,-1.8762,-1.8762,-1.8762,-1.8762,-1.8694,-1.8531,-1.8531,-1.8375,-1.8091,-1.8091,-1.8002,-1.786,-1.786,-1.786,-1.788,-1.8023,-1.8002,-1.786,-1.786,-1.786,-1.786,-1.786,-1.786,-1.786,-1.786,-1.7772,-1.7623,-1.7467,-1.7317,-1.7168,-1.7026,-1.6978,-1.6978,-1.6978,-1.6978,-1.6985,-1.6992,-1.7209,-1.75,-1.7792,-1.786,-1.8736,-2.1571,-2.005,-1.8942,-2.1773,-2.2437,-2.3293,-2.6097,-2.6519,-2.7607,-3.0621,-3.1047,-3.2136,-3.4755,-3.4923,-3.4643,-3.4336,-3.4055,-3.4002,-3.4295,-3.4322,-3.4576,-3.5164,-3.5471,-3.5631,-3.5618,-3.5631,-3.5631,-3.5618,-3.5338,-3.5191,-3.5191,-3.5191,-3.5191,-3.5191,-3.5177,-3.4857,-1.6951,0.0,0.0,0.0,0.0,0.0,0.0,0.0,0.0,-1.8301,-1.8423,-1.8531,-1.8531,-1.862,-1.8654,-1.8552,-1.862,-1.8708,-1.8762,-1.8728,-1.864,-1.8498,-1.8443,-1.8355,-1.8213,-1.8321,-1.8423,0.0,-1.862,-1.8708,-1.8762,-1.8762,-1.8762,-1.8762,-1.8762,-1.8762,-1.8762,-1.8762,-1.8694,-1.8531,-1.8423,-1.8287,-1.8091,-1.8091,-1.8002,-1.786,-1.7989,-1.8023,-1.8023,-1.7948,-1.7901,-1.786,-1.786,-1.786,-1.786,-1.786,-1.786,-1.786,-1.786,-1.7772,-1.7623,-1.7467,-1.7317,-1.7168,-1.7026,-1.6978,-1.6978,-1.6978,-1.6978,-1.7032,-1.7243,-1.7439,-1.7629,-1.7826,-1.786,-1.8736,-2.1571,-2.1571,-2.1781,-2.4797,-2.5231,-2.6313,-2.9112,-2.9765,-3.0632,-3.3672,-3.3926,-3.402,-3.4883,-3.4629,-3.4336,-3.4042,-3.3935,-3.4002,-3.4295,-3.4322,-3.4576,-3.5164,-3.5471,-3.5538,-3.5324,-3.5511,-3.5538,-3.5324,-3.5231,-3.5191,-3.5191,-3.5191,-3.5191,-3.5191,-3.4763,-3.4362,-1.7046,-1.7175,-1.7304,-1.7365,0.0,0.0,0.0,0.0,0.0,0.0,-1.8389,-1.8443,-1.8443,-1.8565,-1.864,-1.8552,-1.8654,-1.8762,-1.8762,-1.8762,-1.8708,-1.8552,-1.8531,-1.8477,-1.8335,-1.8443,-1.8531,-1.8531,-1.8674,-1.8728,-1.8674,-1.8728,-1.8728,-1.8674,-1.8728,-1.8762,-1.8762,-1.8694,-1.8586,-1.8443,-1.8301,-1.8145,-1.8002,-1.8057,-1.8002,-1.788,-1.8091,-1.8145,-1.8091,-1.8057,-1.8023,-1.7948,-1.7948,-1.7914,-1.786,-1.786,-1.786,-1.786,-1.786,-1.7724,-1.7541,-1.7453,-1.7277,-1.7087,-1.7005,-1.6978,-1.6992,-1.7053,-1.7114,-1.7216,-1.7453,-1.7582,-1.7895,-1.9346,-1.9595,-2.0897,-2.5023,-2.588,-2.6313,-2.8038,-2.8253,-2.9326,-3.2148,-3.2798,-3.3235,-3.498,-3.495,-3.4763,-3.4763,-3.4402,-3.4068,-3.3908,-3.3881,-3.4002,-3.4295,-3.4429,-3.4696,-3.5164,-3.5351,-3.5378,-3.5204,-3.5364,-3.5364,-3.5204,-3.5191,-3.5191,-3.5191,-3.5191,-3.5137,-3.5004,-3.4536,-3.4162,-1.7216,-1.7304,-1.7433,-1.7589,-1.7717,0.0,0.0,0.0,0.0,0.0,-1.8301,-1.8301,-1.8335,-1.8423,-1.8511,-1.8511,-1.862,-1.8728,-1.8762,-1.8762,-1.8708,-1.8565,-1.8552,-1.8511,-1.8375,-1.8477,-1.8552,-1.8552,-1.8694,-1.8708,-1.8565,-1.8694,-1.8694,-1.8565,-1.8694,-1.8762,-1.8762,-1.8599,-1.8464,-1.8321,-1.8158,-1.8002,-1.786,-1.8023,-1.8023,-1.7901,-1.8199,-1.8247,-1.8145,-1.8287,-1.8247,-1.8091,-1.8091,-1.8002,-1.788,-1.786,-1.788,-1.788,-1.786,-1.767,-1.7419,-1.7419,-1.7222,-1.6985,-1.6998,-1.7005,-1.7032,-1.7175,-1.7324,-1.7473,-1.7616,-1.7663,-1.8347,-2.1092,-2.2008,-2.372,-2.9112,-3.0597,-3.1024,-3.1272,-3.1272,-3.2148,-3.4755,-3.5191,-3.5191,-3.5191,-3.495,-3.475,-3.4723,-3.4229,-3.3868,-3.3841,-3.3868,-3.4002,-3.4295,-3.4589,-3.4883,-3.5177,-3.5191,-3.5191,-3.5191,-3.5191,-3.5191,-3.5191,-3.5191,-3.5191,-3.5191,-3.5164,-3.5004,-3.471,-3.4416,-3.4108,-1.7344,-1.7311,-1.727,-1.7426,-1.7487,0.0,0.0,-1.7738,0.0,0.0,-1.8213,-1.8213,-1.8443,-1.8423,-1.8355,-1.8355,-1.8389,-1.8498,-1.8728,-1.8762,-1.8742,-1.8728,-1.8708,-1.8708,-1.8674,-1.8708,-1.8708,-1.8708,-1.8742,-1.8742,-1.8728,-1.8742,-1.8742,-1.8728,-1.8742,-1.8762,-1.8762,-1.8599,-1.8464,-1.8321,-1.8158,-1.8002,-1.786,-1.8023,-1.8077,-1.8057,-1.8233,-1.8375,-1.8443,-1.8477,-1.8335,-1.8091,-1.8091,-1.8077,-1.8036,-1.7914,-1.7935,-1.8023,-1.7901,-1.767,-1.7419,-1.7419,-1.7222,-1.7005,-1.7114,-1.7154,-1.7182,-1.7331,-1.7487,-1.7609,-1.765,-1.7738,-1.8053,-1.8515,-2.0466,-2.3075,-2.6529,-2.8956,-3.1234,-3.3845,-3.4319,-3.4544,-3.5191,-3.5191,-3.5191,-3.5191,-3.495,-3.4683,-3.4442,-3.4095,-3.3788,-3.3534,-3.3734,-3.4002,-3.4295,-3.4589,-3.4883,-3.5177,-3.5191,-3.5191,-3.5191,-3.5191,-3.5191,-3.5191,-3.5191,-3.5191,-3.5191,-3.4963,-3.4696,-3.4402,-3.4108,-3.3801,-1.7419,-1.7419,-1.7439,-1.7514,0.0,0.0,0.0,0.0,-1.767,-1.8111,-1.8091,-1.8023,-1.8165,-1.8199,-1.8213,-1.8213,-1.8267,-1.8375,-1.8518,-1.8552,-1.8565,-1.864,-1.8654,-1.8674,-1.8762,-1.8762,-1.8762,-1.8762,-1.8762,-1.8728,-1.8654,-1.8728,-1.8728,-1.8654,-1.8728,-1.8762,-1.8762,-1.8531,-1.8389,-1.8321,-1.8091,-1.7935,-1.786,-1.8023,-1.8091,-1.8111,-1.8321,-1.8464,-1.8531,-1.862,-1.8511,-1.8301,-1.8301,-1.8267,-1.8179,-1.8036,-1.8023,-1.8077,-1.7914,-1.7717,-1.7521,-1.7446,-1.727,-1.71,-1.7168,-1.7297,-1.7439,-1.7514,-1.765,-1.7758,-1.7758,-1.7812,-1.8736,-2.1546,-2.3284,-2.5447,-2.9991,-3.1826,-3.3282,-3.494,-3.5191,-3.5191,-3.5191,-3.5191,-3.5191,-3.5191,-3.4817,-3.4496,-3.4336,-3.3935,-3.3587,-3.3427,-3.3828,-3.4162,-3.4309,-3.4723,-3.5044,-3.5191,-3.5191,-3.5191,-3.5191,-3.5191,-3.5191,-3.5191,-3.5191,-3.5124,-3.4977,-3.4683,-3.4469,-3.4309,-3.4015,-3.3721,-1.7534,-1.7575,-1.765,0.0,0.0,-1.7528,0.0,0.0,0.0,0.0,0.0,0.0,0.0,0.0,0.0,0.0,0.0,0.0,0.0,-1.8213,0.0,0.0,0.0,0.0,-1.8674,-1.8674,-1.8708,-1.8762,-1.8728,-1.8674,-1.8586,-1.8694,-1.8708,-1.8586,-1.8694,-1.8742,-1.8728,-1.8464,-1.8301,-1.8267,-1.8002,-1.786,-1.786,-1.7989,-1.8077,-1.8145,-1.8389,-1.8531,-1.8586,-1.8708,-1.8694,-1.8565,-1.8552,-1.8464,-1.8335,-1.8158,-1.8111,-1.8111,-1.7935,-1.7772,-1.7623,-1.7467,-1.7338,-1.7236,-1.7236,-1.7446,-1.7684,-1.7684,-1.7772,-1.786,-1.786,-1.8302,-1.9823,-2.458,-2.6529,-2.8682,-3.3447,-3.4716,-3.5124,-3.5191,-3.5151,-3.5137,-3.5191,-3.5191,-3.5191,-3.5191,-3.475,-3.4389,-3.4322,-3.3841,-3.348,-3.3414,-3.3961,-3.4322,-3.4322,-3.4857,-3.5191,-3.5191,-3.5191,-3.5191,-3.5191,-3.5191,-3.5191,-3.5191,-3.5191,-3.5057,-3.4763,-3.4469,-3.4295,-3.4229,-3.3935,-3.3654,0.0,0.0,0.0,0.0,-1.7629,0.0,0.0,0.0,0.0,-1.8002,0.0,0.0,0.0,0.0,0.0,0.0,0.0,0.0,-1.7738,-1.7826,0.0,0.0,0.0,0.0,0.0,-1.8375,-1.8477,-1.8742,-1.864,-1.8599,-1.8728,-1.8742,-1.8762,-1.8742,-1.8742,-1.8694,-1.8565,-1.8409,-1.8247,-1.8111,-1.7948,-1.786,-1.786,-1.788,-1.8036,-1.8301,-1.8335,-1.8498,-1.8742,-1.8762,-1.8742,-1.8728,-1.8586,-1.8511,-1.8477,-1.8199,-1.8179,-1.8247,-1.7968,-1.7772,-1.7623,-1.7467,-1.7405,-1.7392,-1.7392,-1.7602,-1.7846,-1.7846,-1.7846,-1.786,-1.786,-1.9823,-2.1781,-2.2429,-2.6745,-3.0621,-3.1272,-3.3256,-3.4897,-3.5151,-3.499,-3.4897,-3.5151,-3.5191,-3.5191,-3.5191,-3.4923,-3.4616,-3.4349,-3.4028,-3.3721,-3.344,-3.3961,-3.4322,-3.4322,-3.4857,-3.5191,-3.5191,-3.5191,-3.5191,-3.5191,-3.5191,-3.5191,-3.5191,-3.5191,-3.5057,-3.4763,-3.4469,-3.4189,-3.3935,-3.3614,-3.344,-1.7738,-1.7826,0.0,0.0,0.0,0.0,-1.7812,0.0,-1.7521,0.0,0.0,0.0,0.0,0.0,0.0,0.0,-1.7826,0.0,0.0,0.0,-1.7948,0.0,0.0,0.0,0.0,0.0,0.0,0.0,-1.862,-1.8599,-1.8762,-1.8762,-1.8762,-1.8762,-1.8762,-1.8694,-1.8531,-1.8389,-1.8247,-1.8091,-1.7935,-1.786,-1.786,-1.7948,-1.8111,-1.8321,-1.8409,-1.8565,-1.8762,-1.8762,-1.8762,-1.8762,-1.8694,-1.8674,-1.864,-1.8423,-1.8335,-1.8287,-1.8077,-1.7901,-1.7758,-1.7602,-1.7494,-1.7439,-1.7528,-1.7704,-1.786,-1.786,-1.786,-1.786,-1.786,-2.005,-2.2647,-2.4372,-2.7823,-3.1272,-3.301,-3.4228,-3.5057,-3.5177,-3.5097,-3.5057,-3.5177,-3.5191,-3.5137,-3.4963,-3.4696,-3.4402,-3.4108,-3.3801,-3.3561,-3.3427,-3.3961,-3.4322,-3.4322,-3.4857,-3.5191,-3.5191,-3.5191,-3.5191,-3.5191,-3.5191,-3.5191,-3.5191,-3.503,-3.4803,-3.4509,-3.4215,-3.3908,-3.3614,-3.3467,-3.3414,-1.7758,0.0,0.0,0.0,0.0,0.0,0.0,0.0,0.0,0.0,0.0,0.0,0.0,0.0,-1.7968,-1.788,0.0,-1.7901,0.0,0.0,0.0,0.0,0.0,0.0,0.0,0.0,0.0,0.0,0.0,-1.8531,-1.8694,-1.8742,-1.8762,-1.8762,-1.8728,-1.862,-1.8477,-1.8335,-1.8179,-1.8023,-1.7948,-1.7935,-1.7935,-1.8091,-1.8233,-1.8389,-1.8477,-1.862,-1.8762,-1.8762,-1.8762,-1.8762,-1.8762,-1.8762,-1.8742,-1.8586,-1.8464,-1.8355,-1.8213,-1.8023,-1.7846,-1.7738,-1.7602,-1.75,-1.7616,-1.7758,-1.786,-1.786,-1.853,-1.917,-1.917,-2.1781,-2.5014,-2.7176,-2.9979,-3.2586,-3.4755,-3.5191,-3.5191,-3.5191,-3.5191,-3.5177,-3.5097,-3.5084,-3.5004,-3.479,-3.4442,-3.4122,-3.3921,-3.3614,-3.3414,-3.3414,-3.3961,-3.4322,-3.4322,-3.4857,-3.5191,-3.5191,-3.5191,-3.5191,-3.5191,-3.5191,-3.5164,-3.5084,-3.487,-3.4576,-3.4202,-3.3988,-3.3721,-3.3414,-3.3414,-3.3414,0.0,0.0,0.0,-1.7901,0.0,0.0,0.0,0.0,-1.7717,0.0,0.0,0.0,0.0,-1.8301,-1.8213,-1.7914,-1.7989,0.0,0.0,0.0,0.0,0.0,0.0,0.0,0.0,0.0,0.0,0.0,0.0,0.0,-1.8531,-1.8674,-1.8762,-1.8762,-1.862,-1.8477,-1.8321,-1.8179,-1.8023,-1.788,-1.8023,-1.8091,-1.8091,-1.8247,-1.8389,-1.8531,-1.8531,-1.862,-1.8762,-1.8762,-1.8762,-1.8762,-1.8762,-1.8762,-1.8742,-1.8586,-1.8531,-1.8498,-1.8355,-1.8111,-1.786,-1.786,-1.7758,-1.765,-1.765,-1.7758,-1.786,-1.786,-1.9823,-2.1992,-2.1992,-2.6313,-3.0621,-3.0834,-3.301,-3.5191,-3.5191,-3.5191,-3.5191,-3.5191,-3.5191,-3.511,-3.483,-3.4776,-3.4776,-3.4763,-3.4269,-3.3895,-3.3881,-3.3614,-3.3414,-3.3414,-3.3961,-3.4322,-3.4322,-3.4857,-3.5191,-3.5191,-3.5191,-3.5191,-3.5191,-3.5191,-3.5057,-3.4776,-3.4763,-3.4482,-3.3895,-3.3895,-3.3721,-3.3414,-3.3414,-3.3414,0.0,0.0,-1.8321,-1.8077,0.0,0.0,0.0,0.0,0.0,0.0,0.0,0.0,0.0,-1.8321,-1.8247,-1.8036,-1.8057,-1.7982,0.0,0.0,0.0,0.0,0.0,0.0,0.0,0.0,0.0,0.0,0.0,0.0,0.0,-1.864,-1.8654,-1.8762,-1.8708,-1.862,-1.8464,-1.8321,-1.8213,-1.8158,-1.8111,-1.8145,-1.8247,-1.8389,-1.8477,-1.8531,-1.864,-1.8708,-1.8762,-1.8762,-1.8762,-1.8762,-1.8762,-1.8762,-1.8762,-1.8708,-1.862,-1.8511,-1.8375,-1.8124,-1.788,-1.7989,-1.7846,-1.7663,-1.7758,-1.7826,-1.8302,-2.0255,-2.1343,-2.2647,-2.4589,-2.8038,-3.0846,-3.0846,-3.3023,-3.5191,-3.5191,-3.5191,-3.5191,-3.5191,-3.5191,-3.5097,-3.4817,-3.4603,-3.4402,-3.4215,-3.4015,-3.3814,-3.3601,-3.348,-3.3494,-3.3708,-3.4082,-3.4402,-3.4603,-3.4977,-3.5191,-3.5191,-3.5191,-3.5191,-3.5191,-3.5191,-3.5057,-3.4776,-3.4576,-3.4282,-3.3881,-3.348,-3.3334,-3.3414,-3.3213,-3.3227,-1.8023,-1.8199,0.0,-1.8077,-1.8091,0.0,-1.8111,0.0,-1.8036,0.0,0.0,0.0,0.0,-1.8423,-1.8335,-1.8199,-1.8124,-1.7982,0.0,-1.765,0.0,0.0,0.0,0.0,0.0,0.0,0.0,0.0,0.0,0.0,0.0,0.0,-1.8586,-1.8674,-1.8674,-1.864,-1.8531,-1.8389,-1.8321,-1.8321,-1.8267,-1.8301,-1.8409,-1.8552,-1.862,-1.862,-1.8728,-1.8762,-1.8762,-1.8762,-1.8762,-1.8762,-1.8762,-1.8762,-1.8762,-1.8762,-1.8654,-1.8511,-1.8423,-1.8199,-1.7968,-1.8057,-1.7935,-1.7738,-1.7826,-1.786,-1.8544,-2.1718,-2.3172,-2.4409,-2.7601,-3.0331,-3.2361,-3.2361,-3.3883,-3.5191,-3.5191,-3.5191,-3.5164,-3.5057,-3.5124,-3.5044,-3.4536,-3.4376,-3.4229,-3.3935,-3.3788,-3.3641,-3.344,-3.3414,-3.3534,-3.3855,-3.4148,-3.4442,-3.4736,-3.503,-3.5151,-3.5044,-3.5137,-3.5191,-3.5191,-3.5097,-3.4897,-3.4616,-3.4202,-3.3855,-3.3561,-3.3066,-3.2973,-3.3253,-3.3066,-3.3133]}]]